     2              OBSERVATION DATA                        RINEX VERSION / TYPE
DAT2RIN 1.01d Dan Johnson 12SEP96 4:33:18 GMT               PGM / RUN BY / DATE
Mojave '96 team Central Washington U                        OBSERVER / AGENCY
16306 TRIMBLE 4000SSI Nav 7.09 Sig 3.03                     REC # / TYPE / VERS
66922 TRIMBLE CHOKE                                         ANT # / TYPE
RITA                                                        MARKER NAME
 -2405689.0000 -4505260.0000  3810978.0000                  APPROX POSITION XYZ
        0.0614        0.0000        0.0000                  ANTENNA: DELTA H/E/N
     1     1     0                                          WAVELENGTH FACT L1/2
     5    L1    C1    P1    L2    P2                        # / TYPES OF OBSERV
    30                                                      INTERVAL
                                                            COMMENT
PANGA GPS Data Analysis Center                              COMMENT
Department of Geology                                       COMMENT
Central Washington University                               COMMENT
Ellensburg, WA 98926                                        COMMENT
                                                            COMMENT
http://www.panga.cwu.edu                                    COMMENT
ftp://panga.cwu.edu                                         COMMENT
                                                            COMMENT
  1996     9     5     0     0   30.000000                  TIME OF FIRST OBS
  1996     9     5    23    59    0.000000                  TIME OF LAST OBS
    25                                                      # OF SATELLITES
           1   733   734     0   731   731                  PRN / # OF OBS
           2   839   840     0   830   830                  PRN / # OF OBS
           3   913   914     0   909   909                  PRN / # OF OBS
           4   793   793     0   786   786                  PRN / # OF OBS
           5   716   716     0   712   712                  PRN / # OF OBS
           6   778   779     0   774   774                  PRN / # OF OBS
           7   731   732     0   728   728                  PRN / # OF OBS
           9   861   861     0   856   856                  PRN / # OF OBS
          10   887   890     0   879   879                  PRN / # OF OBS
          14   709   709     0   705   705                  PRN / # OF OBS
          15   881   883     0   875   875                  PRN / # OF OBS
          16   891   891     0   885   885                  PRN / # OF OBS
          17   846   847     0   839   839                  PRN / # OF OBS
          18   753   762     0   747   747                  PRN / # OF OBS
          19   843   843     0   839   839                  PRN / # OF OBS
          21   849   849     0   843   843                  PRN / # OF OBS
          22   886   887     0   879   879                  PRN / # OF OBS
          23   790   790     0   788   788                  PRN / # OF OBS
          24   695   695     0   691   691                  PRN / # OF OBS
          25   649   650     0   646   646                  PRN / # OF OBS
          26   927   928     0   920   920                  PRN / # OF OBS
          27   812   813     0   810   810                  PRN / # OF OBS
          28   641     0   642   641   641                  PRN / # OF OBS
          29   843   843     0   841   841                  PRN / # OF OBS
          31   923   923     0   914   914                  PRN / # OF OBS
                                                            END OF HEADER
 96  9  5  0  0 30.0000000  0  6  1 14 15 21 25 29
  21832328.21610  22168657.60900                  17107357.73350  22168663.24640
  -1714729.35610  23365770.43800                  -1298276.73950  23365776.98840
  -4590961.56710  20836948.57000                  -3508989.93750  20836954.18440
  36035633.98610  22873509.13300                   5223394.55550  22873515.63740
  -4591834.39710  20811444.94500                  -3523264.18450  20811449.43440
  -1513139.20910  23533050.87500                  -1139795.08250  23533056.78140
 96  9  5  0  1  0.0000000  0  6  1 14 15 21 25 29
  21962473.61200  22193423.29700                  17208769.70940  22193429.03940
  -1740089.82000  23360944.57000                  -1318038.12040  23360950.41840
  -4558572.36700  20843111.96100                  -3483751.59940  20843117.57440
  36171633.33200  22899388.80500                   5329368.01440  22899394.98040
  -4560681.12700  20817373.37500                  -3498988.89640  20817378.01640
  -1527364.83000  23530344.24200                  -1150879.94240  23530350.16040
 96  9  5  0  1 30.0000000  0  6  1 14 15 21 25 29
  22092707.81200  22218205.53100                  17310250.89040  22218211.43840
  -1765423.77100  23356123.68800                  -1337778.80740  23356130.13340
  -4525580.10200  20849390.20300                  -3458043.33840  20849395.75840
  36307894.64000  22925318.51600                   5435545.59540  22925325.05540
  -4528992.10400  20823403.58600                  -3474296.13940  20823408.07440
  -1541442.60900  23527665.00800                  -1161849.57140  23527669.98840
 96  9  5  0  2  0.0000000  0  6  1 14 15 21 25 29
  22223034.03000  22243006.01600                  17411803.76040  22243011.71140
  -1790726.52200  23351308.57000                  -1357495.19040  23351313.80940
  -4491982.31500  20855783.71100                  -3431863.24040  20855789.28940
  36444411.95600  22951297.48400                   5541922.68040  22951303.37940
  -4496761.16000  20829536.81300                  -3449181.10440  20829541.47740
  -1555349.86400  23525018.14800                  -1172686.36140  23525023.21140
 96  9  5  0  2 30.0000000  0  6  1 14 15 21 25 29
  22353478.71100  22267828.90600                  17513448.93440  22267834.43840
  -1815998.00700  23346499.69500                  -1377187.22240  23346505.70740
  -4457778.46800  20862292.39800                  -3405210.88840  20862298.04740
  36581179.91200  22977323.17200                   5648495.03740  22977329.47740
  -4464014.23100  20835768.17200                  -3423664.00140  20835772.78940
  -1569062.65800  23522408.64100                  -1183371.61840  23522414.62940
 96  9  5  0  3  0.0000000  0  6  1 14 15 21 25 29
  22484066.36200  22292678.42200                  17615205.52940  22292684.07040
  -1841235.18600  23341696.37500                  -1396852.52640  23341702.32840
  -4422967.44000  20868916.75000                  -3378085.40740  20868922.38740
  36718194.38000  23003395.95300                   5755259.52140  23003401.91840
  -4430775.04700  20842093.64100                  -3397763.33040  20842098.21140
  -1582553.98200  23519841.07800                  -1193884.27740  23519847.28940
 96  9  5  0  3 30.0000000  0  6  1 14 15 21 25 29
  22614793.25100  22317555.50000                  17717070.61440  22317561.24240
  -1866443.81000  23336899.69500                  -1416495.55540  23336906.44540
  -4387543.32100  20875657.72700                  -3350482.19440  20875663.28140
  36855440.08800  23029513.46100                   5862204.17540  23029519.50840
  -4397040.11700  20848512.93000                  -3371476.36140  20848517.38340
  -1595825.96300  23517315.77300                  -1204226.02740  23517320.87140
 96  9  5  0  4  0.0000000  0  6  1 14 15 21 25 29
  22745644.17900  22342455.92200                  17819032.34940  22342461.33640
  -1891641.61400  23332104.35200                  -1436130.17440  23332110.76240
  -4351511.60000  20882514.40600                  -3322405.52640  20882519.76240
  36992907.11100  23055672.69500                   5969321.27840  23055677.74640
  -4362806.76600  20855027.64800                  -3344801.01640  20855032.12540
  -1608897.03500  23514828.67200                  -1214411.25640  23514833.66440
 96  9  5  0  4 30.0000000  0  6  1 14 15 21 25 29
  22876610.95900  22367377.70300                  17921084.35340  22367383.41040
  -1916801.98600  23327317.43800                  -1455735.64440  23327322.91040
  -4314866.61900  20889487.64100                  -3293850.99240  20889493.25440
  37130616.75200  23081878.29700                   6076627.45140  23081883.86340
  -4328059.07000  20861639.85900                  -3317724.87940  20861644.33640
  -1621778.06600  23512377.03900                  -1224448.39140  23512382.79340
 96  9  5  0  5  0.0000000  0  6  1 14 15 21 25 29
  23007653.28700  22392314.11700                  18023195.23940  22392319.41440
  -1941920.44300  23322537.02300                  -1475308.44040  23322542.55540
  -4277624.44500  20896574.50800                  -3264831.11740  20896580.25040
  37268564.85100  23108128.46900                   6184119.41240  23108134.39840
  -4292784.78300  20868352.28100                  -3290238.41440  20868356.67640
  -1634512.75900  23509953.43800                  -1234371.48340  23509959.22740
 96  9  5  0  5 30.0000000  0  6  1 14 15 21 25 29
  23138756.39100  22417262.53100                  18125353.47840  22417268.33240
  -1966996.20000  23317765.57000                  -1494847.95540  23317771.05540
  -4239777.20600  20903776.77300                  -3235339.76340  20903782.42240
  37406760.70900  23134425.79700                   6291804.46340  23134432.24240
  -4256953.75700  20875170.60900                  -3262318.12340  20875175.01640
  -1647112.78700  23507556.14100                  -1244189.60840  23507561.37940
 96  9  5  0  6  0.0000000  0  6  1 14 15 21 25 29
  23269929.28500  22442223.86700                  18227566.09940  22442229.41040
  -1992013.65200  23313004.85900                  -1514342.03440  23313010.66040
  -4201313.37400  20911096.14100                  -3205367.95040  20911101.95340
  37545226.88000  23160774.98400                   6399700.10840  23160780.96140
  -4220557.32200  20882096.60900                  -3233957.25340  20882100.99240
  -1659574.30700  23505184.89100                  -1253899.83440  23505190.18840
 96  9  5  0  6 30.0000000  0  6  1 14 15 21 25 29
  23401179.07700  22467200.16400                  18329838.64940  22467205.63740
  -2016977.54400  23308254.50000                  -1533794.40240  23308260.87540
  -4162233.58200  20918532.65600                  -3174916.17240  20918538.36340
  37683953.92500  23187174.69500                   6507799.01840  23187181.24640
  -4183602.25800  20889128.89100                  -3205161.08940  20889133.25040
  -1671899.69100  23502839.25800                  -1263504.02440  23502844.76640
 96  9  5  0  7  0.0000000  0  6  1 14 15 21 25 29
  23532511.18500  22492191.31300                  18432175.33040  22492197.02040
  -2041926.23500  23303506.93000                  -1553234.90140  23303512.94140
  -4122542.83600  20926085.60900                  -3143988.32140  20926091.09440
  37822915.62500  23213618.07800                   6616080.81740  23213623.79740
  -4146111.48900  20896263.16400                  -3175947.49040  20896267.65240
  -1684093.15000  23500518.40600                  -1273005.37440  23500523.73840
 96  9  5  0  7 30.0000000  0  6  1 14 15 21 25 29
  23663948.40400  22517202.96900                  18534593.91540  22517208.75840
  -2066865.41000  23298760.69500                  -1572668.01340  23298766.52040
  -4082225.90800  20933757.76600                  -3112572.54340  20933763.30940
  37962111.32700  23240105.89100                   6724544.95940  23240111.90240
  -4108090.03700  20903498.42200                  -3146320.37640  20903502.78140
  -1696127.99700  23498228.71900                  -1282383.14940  23498234.41440
 96  9  5  0  8  0.0000000  0  6  1 14 15 21 25 29
  23795491.69700  22542235.21900                  18637095.16240  22542241.17240
  -2091789.49600  23294018.06300                  -1592089.34940  23294024.02740
  -4041290.35700  20941547.42200                  -3080674.72240  20941553.05940
  38101531.86600  23266637.00000                   6833184.28340  23266642.95340
  -4069553.63400  20910831.77300                  -3116291.99940  20910836.07440
  -1708009.55400  23495967.43000                  -1291641.45940  23495972.92640
 96  9  5  0  8 30.0000000  0  6  1 14 15 21 25 29
  23927145.62600  22567288.31300                  18739682.61240  22567293.87940
  -2116692.73400  23289278.55500                  -1611494.45240  23289284.52040
  -3999730.30000  20949455.98400                  -3048290.27440  20949461.71540
  38241175.12300  23293210.14100                   6941997.14040  23293216.16440
  -4030489.98900  20918265.46100                  -3085852.78340  20918269.66840
  -1719715.60700  23493739.57000                  -1300763.00840  23493745.37140
 96  9  5  0  9  0.0000000  0  6  1 14 15 21 25 29
  24058882.81800  22592356.92200                  18842334.96040  22592362.58240
  -2141581.89700  23284542.93000                  -1630888.56440  23284548.63740
  -3957560.22100  20957480.70300                  -3015430.48140  20957486.41040
  38381022.44000  23319822.87500                   7050969.01640  23319829.22740
  -3990919.24900  20925795.16400                  -3055018.43040  20925799.37140
  -1731239.89800  23491547.37500                  -1309742.95040  23491552.55540
 96  9  5  0  9 30.0000000  0  6  1 14 15 21 25 29
  24190706.62500  22617442.03100                  18945054.77740  22617447.68040
  -2166424.04500  23279815.69500                  -1650246.05140  23279821.18040
  -3914763.52200  20965624.75000                  -2982082.42040  20965630.43440
  38521095.70700  23346477.93800                   7160116.95340  23346483.32840
  -3950813.65700  20933427.12500                  -3023767.31140  20933431.46140
  -1742558.08600  23489393.75800                  -1318562.29240  23489398.52740
 96  9  5  0 10  0.0000000  0  6  1 14 15 21 25 29
  24322595.58800  22642539.60200                  19047825.38440  22642544.60540
  -2191216.68500  23275097.81300                  -1669564.96740  23275103.62540
  -3871349.71200  20973886.11700                  -2948253.48940  20973891.61340
  38661394.45000  23373175.18000                   7269440.57240  23373181.22740
  -3910177.39500  20941160.06300                  -2992102.67840  20941164.37540
  -1753673.75600  23487278.12500                  -1327223.82740  23487284.04340
 96  9  5  0 10 30.0000000  0  6  1 14 15 21 25 29
  24454537.89400  22667647.43000                  19150637.55240  22667652.89140
  -2215961.53700  23270388.21900                  -1688846.62940  23270393.79740
  -3827314.94800  20982265.60900                  -2913940.70040  20982271.30540
  38801916.52300  23399915.98400                   7378938.23240  23399921.39840
  -3869010.95600  20948993.65600                  -2960024.92540  20948998.13340
  -1764569.74600  23485204.57000                  -1335714.16840  23485210.19540
 96  9  5  0 11  0.0000000  0  6  1 14 15 21 25 29
  24586527.56700  22692764.45300                  19253486.62440  22692769.87940
  -2240652.80300  23265690.12500                  -1708086.54740  23265695.79740
  -3782662.28900  20990762.61700                  -2879146.43140  20990768.23040
  38942663.95100  23426700.28900                   7488611.47540  23426706.38340
  -3827318.66300  20956927.41400                  -2927537.41540  20956931.85540
  -1775275.82500  23483166.69500                  -1344056.53640  23483172.57840
 96  9  5  0 11 30.0000000  0  6  1 14 15 21 25 29
  24718580.60300  22717893.21900                  19356385.07140  22717898.79740
  -2265271.36000  23261005.27300                  -1727269.81040  23261011.68440
  -3737381.92100  20999379.23400                  -2843863.03740  20999384.93040
  39083658.75200  23453529.71900                   7598477.51740  23453536.56340
  -3785080.98600  20964964.95300                  -2894624.93140  20964969.26640
  -1785805.48700  23481163.19500                  -1352261.41640  23481168.82040
 96  9  5  0 12  0.0000000  0  6  1 14 15 21 25 29
  24850700.83800  22743034.90600                  19459335.88240  22743040.62540
  -2289816.68600  23256334.57000                  -1746396.00440  23256340.46540
  -3691476.80700  21008114.75000                  -2808092.82940  21008120.39840
  39224901.78100  23480406.85200                   7708536.94740  23480413.12140
  -3742296.21700  20973106.71100                  -2861286.14440  20973111.09440
  -1796171.18000  23479190.93000                  -1360338.55440  23479196.35540
 96  9  5  0 12 30.0000000  0  6  1 14 15 21 25 29
  24982907.47900  22768192.87500                  19562354.02440  22768198.57040
  -2314285.31300  23251677.71900                  -1765462.44840  23251684.07040
  -3644940.19800  21016970.48400                  -2771830.54540  21016976.08640
  39366395.62700  23507332.78100                   7818791.79140  23507339.05140
  -3698950.68600  20981355.18000                  -2827510.39540  20981359.48040
  -1806380.56000  23477248.11700                  -1368293.88340  23477253.16840
 96  9  5  0 13  0.0000000  0  6  1 14 15 21 25 29
  25115213.63600  22793369.83600                  19665449.69740  22793375.43840
  -2338683.56600  23247035.54700                  -1784474.03040  23247041.39540
  -3597780.33400  21025944.70300                  -2735082.60540  21025950.22340
  39508133.82300  23534304.73400                   7929237.09640  23534310.67640
  -3655049.64600  20989709.18800                  -2793301.78440  20989713.50040
  -1816454.72100  23475331.10200                  -1376143.83140  23475336.34040
 96  9  5  0 13 30.0010000  0  6  1 14 15 21 25 29
  25247618.96000  22818566.16100                  19768622.65740  22818571.71640
  -2363026.05500  23242403.00500                  -1803442.17440  23242409.35640
  -3549993.80000  21035038.22400                  -2697846.35640  21035043.96640
  39650120.29300  23561323.13000                   8039875.83540  23561329.73940
  -3610592.67100  20998168.96600                  -2758659.97840  20998173.22040
  -1826366.94300  23473444.66100                  -1383867.59740  23473450.09940
 96  9  5  0 14  0.0010000  0  6  1 14 15 21 25 29
  25380118.25200  22843779.84100                  19871868.82840  22843785.47840
  -2387314.97500  23237781.27800                  -1822368.57640  23237787.54840
  -3501572.45500  21044252.47400                  -2660115.44640  21044258.04040
  39792345.12500  23588388.93500                   8150700.28140  23588395.63840
  -3565585.43100  21006733.66900                  -2723589.39740  21006738.06340
  -1836100.95700  23471592.66100                  -1391452.52040  23471598.22840
 96  9  5  0 14 30.0010000  0  6  1 14 15 21 25 29
  25512701.52300  22869009.45800                  19975180.44840  22869015.22440
  -2411572.84700  23233164.59100                  -1841270.80240  23233170.49740
  -3452525.33700  21053585.76300                  -2621896.91940  21053591.36440
  39934793.90600  23615496.38000                   8261699.25140  23615502.23940
  -3520055.61700  21015397.77100                  -2688111.61840  21015402.15340
  -1845666.40400  23469772.08300                  -1398906.07540  23469776.92340
 96  9  5  0 15  0.0010000  0  6  1 14 15 21 25 29
  25645358.35900  22894253.26300                  20078549.37840  22894258.78240
  -2435803.53700  23228553.96600                  -1860151.83440  23228560.14240
  -3402849.74000  21063038.60600                  -2583188.67040  21063044.19640
  40077467.09500  23642645.85600                   8372873.11040  23642651.82140
  -3474010.95300  21024159.61400                  -2652232.65040  21024163.97440
  -1855061.90300  23467984.56000                  -1406227.20640  23467990.03240
 96  9  5  0 15 30.0010000  0  6  1 14 15 21 25 29
  25778074.35900  22919508.52800                  20181964.40340  22919514.20040
  -2460013.69700  23223947.10600                  -1879016.86940  23223952.46240
  -3352542.45500  21072611.91900                  -2543988.19440  21072617.77840
  40220373.51700  23669839.78600                   8484228.71540  23669845.71640
  -3427454.98800  21033018.84900                  -2615955.26840  21033023.30240
  -1864291.91500  23466227.57500                  -1413419.40840  23466233.45840
 96  9  5  0 16  0.0010000  0  6  1 14 15 21 25 29
  25910876.31700  22944780.03600                  20285446.42040  22944785.91940
  -2484188.38300  23219346.73900                  -1897854.25440  23219352.35340
  -3301595.32200  21082306.88000                  -2504289.13740  21082312.71640
  40363519.41500  23697079.59100                   8595770.91140  23697086.50940
  -3380376.45000  21041977.76300                  -2579270.68740  21041982.06340
  -1873369.94100  23464499.98100                  -1420493.14340  23464505.46640
 96  9  5  0 16 30.0010000  0  6  1 14 15 21 25 29
  26043761.45000  22970067.18500                  20388993.24440  22970072.50540
  -2508334.32200  23214751.76300                  -1916669.25640  23214757.50540
  -3250019.09200  21092121.39600                  -2464099.87240  21092127.12640
  40506898.41200  23724364.51300                   8707494.73540  23724371.19240
  -3332767.42100  21051037.39600                  -2542172.73340  21051041.77840
  -1882308.93600  23462799.13000                  -1427458.55740  23462804.27440
 96  9  5  0 17  0.0010000  0  6  1 14 15 21 25 29
  26176746.96900  22995373.21600                  20492618.27940  22995378.59540
  -2532423.42700  23210167.78600                  -1935439.95940  23210173.89240
  -3197798.91000  21102058.54400                  -2423408.82940  21102064.32140
  40650523.74400  23751695.24700                   8819410.50440  23751701.77440
  -3284599.41000  21060203.38800                  -2504639.21540  21060207.77140
  -1891085.89600  23461128.38000                  -1434297.70940  23461134.20440
 96  9  5  0 17 30.0010000  0  6  1 14 15 21 25 29
  26309839.10800  23020699.73100                  20596326.40840  23020705.12240
  -2556434.81400  23205598.26300                  -1954150.10740  23205604.12240
  -3144935.36500  21112118.13000                  -2382216.46240  21112123.89640
  40794394.99600  23779073.14600                   8931517.89740  23779079.45040
  -3235866.40500  21069476.99700                  -2466665.44240  21069481.26340
  -1899689.97700  23459491.90300                  -1441002.15140  23459497.39940
 96  9  5  0 18  0.0010000  0  6  1 14 15 21 25 29
  26443013.86800  23046042.23900                  20700098.90940  23046048.07540
  -2580374.35400  23201042.65300                  -1972804.27640  23201048.54840
  -3091452.21300  21122295.64600                  -2340541.28740  21122301.24740
  40938470.34400  23806489.19200                   9043784.31840  23806495.56740
  -3186585.06500  21078854.98100                  -2428264.39740  21078859.24740
  -1908125.67400  23457886.22400                  -1447575.39340  23457891.31040
 96  9  5  0 18 30.0010000  0  6  1 14 15 21 25 29
  26576264.43800  23071399.20800                  20803930.48540  23071405.02140
  -2604220.69400  23196504.91100                  -1991385.82840  23196510.98140
  -3037331.49200  21132594.63000                  -2298369.30840  21132600.26740
  41082764.20200  23833947.04400                   9156221.04940  23833953.45440
  -3136746.83400  21088338.94200                  -2389429.40940  21088343.33740
  -1916363.02400  23456318.77800                  -1453994.08540  23456325.03640
 96  9  5  0 19  0.0010000  0  6  1 14 15 21 25 29
  26709582.07300  23096768.56000                  20907814.32040  23096773.86840
  -2627961.94200  23191987.11400                  -2009885.48140  23191993.29040
  -2982571.80900  21143014.91900                  -2255699.43640  21143020.48540
  41227284.61000  23861448.99700                   9268834.29140  23861456.92340
  -3086373.58800  21097924.55200                  -2350177.52340  21097928.89940
  -1924393.19700  23454790.30200                  -1460251.32040  23454796.18540
 96  9  5  0 19 30.0010000  0  6  1 14 15 21 25 29
  26842951.61200  23122148.45000                  21011738.59240  23122154.40340
  -2651615.29900  23187486.27100                  -2028316.64640  23187491.56740
  -2927178.83700  21153555.98900                  -2212536.09140  21153561.82540
  41372036.52400  23888994.66100                   9381627.92340  23889000.06340
  -3035479.78400  21107609.42700                  -2310520.00940  21107613.72840
  -1932221.61200  23453301.01300                  -1466351.35840  23453306.16940
 96  9  5  0 20  0.0010000  0  6  1 14 15 21 25 29
  26976369.42800  23147536.12200                  21115700.48740  23147541.94640
  -2675198.27500  23182998.25500                  -2046692.96840  23183004.13840
  -2871154.16600  21164217.01300                  -2168880.51240  21164222.60340
  41517031.41000  23916585.70800                   9494610.89840  23916593.61040
  -2984072.26300  21117391.88800                  -2270462.19740  21117396.11840
  -1939862.30600  23451846.78600                  -1472305.12240  23451852.61040
 96  9  5  0 20 30.0010000  0  6  1 14 15 21 25 29
  27109834.66300  23172934.02800                  21219699.34240  23172939.48940
  -2698709.55300  23178524.28600                  -2065013.43140  23178530.13440
  -2814492.55900  21174999.31000                  -2124728.62540  21175004.88840
  41662291.43000  23944228.18500                   9607800.41840  23944235.34940
  -2932150.25200  21127272.25500                  -2230003.47940  21127276.62640
  -1947321.15100  23450427.94200                  -1478117.17740  23450433.53240
 96  9  5  0 21  0.0010000  0  6  1 14 15 21 25 29
  27243343.28600  23198339.87200                  21323731.98940  23198345.05240
  -2722139.53200  23174065.98900                  -2083270.53340  23174072.01340
  -2757196.29200  21185902.57500                  -2080082.19740  21185908.37640
  41807810.35000  23971919.66100                   9721191.76640  23971926.02440
  -2879707.78900  21137251.52100                  -2189139.22340  21137255.98540
  -1954605.87400  23449041.46600                  -1483793.56140  23449047.06740
 96  9  5  0 21 30.0010000  0  6  1 14 15 21 25 29
  27376911.80000  23223756.88000                  21427811.30840  23223762.98540
  -2745481.44100  23169624.18500                  -2101459.01040  23169630.27840
  -2699255.70800  21196928.24700                  -2034933.70840  21196934.01340
  41953575.23800  23999657.85600                   9834774.70340  23999664.31340
  -2826716.87300  21147335.38000                  -2147847.59940  21147339.84540
  -1961712.78300  23447689.13800                  -1489331.37140  23447694.62240
 96  9  5  0 22  0.0010000  0  6  1 14 15 21 25 29
  27510530.69400  23249184.23900                  21531929.89040  23249189.80640
  -2768730.88000  23165199.77100                  -2119575.43840  23165205.89940
  -2640679.94600  21208074.99700                  -1989290.26940  21208080.85640
  42099554.74000  24027436.92700                   9948524.86540  24027445.12240
  -2773173.40000  21157524.52100                  -2106125.40840  21157528.92740
  -1968660.64900  23446366.80200                  -1494745.25640  23446372.38040
 96  9  5  0 22 30.0010000  0  6  1 14 15 21 25 29
  27644194.61900  23274619.64600                  21636083.55840  23274625.13040
  -2791872.66200  23160795.66900                  -2137607.96040  23160801.17740
  -2581466.69200  21219342.62200                  -1943150.08140  21219348.42340
  42245727.61200  24055252.45800                  10062425.78640  24055259.77440
  -2719069.11900  21167820.31000                  -2063966.22140  21167824.65740
  -1975442.27000  23445076.18500                  -1500029.60840  23445081.51740
 96  9  5  0 23  0.0010000  0  6  1 14 15 21 25 29
  27777905.00600  23300064.20800                  21740273.42040  23300070.13840
  -2814920.06200  23156409.84900                  -2155566.95440  23156415.54440
  -2521625.99300  21230730.31000                  -1896520.98040  21230736.04040
  42392078.17300  24083101.59100                  10176465.07140  24083107.68540
  -2664410.39600  21178221.55200                  -2021375.00340  21178225.92340
  -1982064.01800  23443816.16100                  -1505189.39040  23443820.90740
 96  9  5  0 23 30.0010000  0  6  1 14 15 21 25 29
  27911688.05000  23325521.84100                  21844519.91940  23325527.97040
  -2837878.28000  23152041.30200                  -2173456.45540  23152047.04440
  -2461143.97700  21242239.63000                  -1849392.15240  21242245.43140
  42538624.03700  24110988.63800                  10290656.55140  24110995.47040
  -2609177.02000  21188732.02800                  -1978336.00940  21188736.30640
  -1988511.62500  23442589.36400                  -1510213.48740  23442594.42740
 96  9  5  0 24  0.0010000  0  6  1 14 15 21 25 29
  28045534.09200  23350992.06000                  21948815.49740  23350997.75540
  -2860752.70400  23147688.07500                  -2191280.64540  23147693.98140
  -2400022.48500  21253870.70000                  -1801765.02840  21253876.57140
  42685386.46200  24138916.12200                  10405016.92240  24138922.72040
  -2553380.42000  21199349.81700                  -1934858.13240  21199354.13040
  -1994788.94900  23441394.35600                  -1515104.88040  23441400.31040
 96  9  5  0 24 30.0010000  0  6  1 14 15 21 25 29
  28179459.55000  23376476.95800                  22053172.96540  23376482.71240
  -2883555.67000  23143348.90300                  -2209049.16840  23143354.44640
  -2338255.28500  21265624.56000                  -1753634.76040  21265630.39640
  42832384.45500  24166890.06700                  10519560.64640  24166896.48940
  -2497028.34000  21210073.16100                  -1890947.41740  21210077.40340
  -2000883.79100  23440234.74700                  -1519854.06640  23440240.91140
 96  9  5  0 25  0.0010000  0  6  1 14 15 21 25 29
  28313468.05600  23401978.48100                  22157595.15440  23401984.22440
  -2906308.14900  23139019.31000                  -2226778.34240  23139025.31040
  -2275847.66600  21277500.22400                  -1705005.46040  21277505.93140
  42979624.04500  24194908.46600                  10634292.70040  24194916.19240
  -2440137.14000  21220899.30200                  -1846616.60940  21220903.64940
  -2006804.27200  23439108.59900                  -1524467.40640  23439114.25940
 96  9  5  0 25 30.0010000  0  6  1 14 15 21 25 29
  28447556.86900  23427494.66100                  22262079.90440  23427500.45040
  -2929007.05500  23134699.73100                  -2244465.77240  23134705.60340
  -2212799.63800  21289498.02800                  -1655877.13840  21289503.81740
  43127099.10500  24222972.14600                  10749208.39240  24222978.45040
  -2382719.04800  21231825.66100                  -1801875.23540  21231829.91540
  -2012557.81900  23438013.52800                  -1528950.66640  23438019.00140
 96  9  5  0 26  0.0010000  0  6  1 14 15 21 25 29
  28581713.05200  23453023.68500                  22366617.14840  23453029.32140
  -2951636.18100  23130393.84100                  -2262098.83940  23130399.85340
  -2149115.85700  21301616.62200                  -1606253.42840  21301622.28240
  43274809.33700  24251080.64600                  10864307.12640  24251085.84940
  -2324793.12500  21242848.34100                  -1756738.15140  21242852.66540
  -2018150.86300  23436948.53600                  -1533308.86440  23436954.22040
 96  9  5  0 26 30.0020000  0  6  1 14 15 21 25 29
  28715942.88100  23478566.97100                  22471211.78740  23478572.78340
  -2974177.05100  23126104.54100                  -2279663.12640  23126110.67040
  -2084793.47900  21313856.78300                  -1556132.10640  21313862.50240
  43422740.74500  24279231.54100                  10979578.29140  24279237.67040
  -2266355.48100  21253968.71300                  -1711202.32140  21253973.11940
  -2023573.23800  23435916.99400                  -1537534.06340  23435922.58440
 96  9  5  0 27  0.0020000  0  6  1 14 15 21 25 29
  28850210.02300  23504117.03300                  22575835.50640  23504122.64640
  -2996612.99300  23121834.92400                  -2297145.66640  23121841.01840
  -2019851.17600  21326214.82200                  -1505527.73140  21326220.35440
  43570872.15700  24307420.29900                  11095005.24840  24307428.23640
  -2207417.17100  21265184.40800                  -1665276.36540  21265188.76840
  -2028846.37600  23434913.16600                  -1541642.97840  23434918.87340
 96  9  5  0 27 30.0020000  0  6  1 14 15 21 25 29
  28984525.23800  23529675.97100                  22680496.69140  23529681.88940
  -3018912.40900  23117591.32200                  -2314521.81040  23117597.15840
  -1954271.41800  21338694.33800                  -1454426.63240  21338700.04540
  43719224.44000  24335650.25200                  11210604.39140  24335658.09640
  -2147942.96000  21276501.93200                  -1618932.82540  21276506.20940
  -2033942.84000  23433943.59600                  -1545614.22440  23433949.12740
 96  9  5  0 28  0.0020000  0  6  1 14 15 21 25 29
  29118893.15400  23555245.33800                  22785198.93140  23555250.78740
  -3041066.27800  23113375.65800                  -2331784.55340  23113381.74040
  -1888046.83600  21351296.40800                  -1402823.07740  21351302.06840
  43867806.37200  24363923.61100                  11326382.45340  24363929.67040
  -2087910.35500  21287925.70500                  -1572154.17240  21287930.00640
  -2038837.19500  23433012.07200                  -1549427.98440  23433017.95540
 96  9  5  0 28 30.0020000  0  6  1 14 15 21 25 29
  29253303.85600  23580823.26800                  22889934.51440  23580828.91640
  -3063092.08000  23109184.47900                  -2348947.50140  23109190.49040
  -1821184.10700  21364020.00200                  -1350722.26440  21364025.76840
  44016607.12200  24392241.04900                  11442331.00640  24392246.93240
  -2027319.74900  21299455.65800                  -1524940.71640  21299460.10040
  -2043535.87500  23432118.54100                  -1553089.27040  23432123.56840
 96  9  5  0 29  0.0020000  0  6  1 14 15 21 25 29
  29387755.67100  23606408.68200                  22994702.13140  23606414.69340
  -3085011.04000  23105013.63500                  -2366027.19540  23105019.28340
  -1753681.32900  21376865.31400                  -1298122.71740  21376870.98640
  44165638.58800  24420600.76000                  11558459.25840  24420604.80340
  -1966171.13600  21311091.76800                  -1477292.44740  21311096.16240
  -2048040.40300  23431260.83800                  -1556599.25140  23431266.02940
 96  9  5  0 29 30.0020000  0  6  1 14 15 21 25 29
  29522240.99800  23632000.22900                  23099495.86140  23632006.08840
  -3106840.71100  23100859.62700                  -2383037.30840  23100865.45140
  -1685540.12100  21389832.14300                  -1245025.68740  21389838.00240
  44314891.76000  24449002.23600                  11674760.43940  24449009.47140
  -1904474.63800  21322832.36900                  -1429217.25340  21322836.77540
  -2052336.82900  23430443.54900                  -1559947.09140  23430448.92840
 96  9  5  0 30  0.0020000  0  6  1 14 15 21 25 29
  29656752.83600  23657597.31400                  23204310.24140  23657602.78740
  -3128587.71600  23096720.63500                  -2399983.01240  23096726.29540
  -1616762.95400  21402920.07200                  -1191433.10540  21402925.73240
  44464365.17700  24477446.47900                  11791233.18540  24477451.82240
  -1842250.32700  21334673.29900                  -1380730.77340  21334677.65840
  -2056443.84100  23429662.08000                  -1563147.34340  23429666.76840
 96  9  5  0 30 30.0020000  0  6  1 14 15 21 25 29
  29791296.89300  23683199.44700                  23309149.73340  23683205.29540
  -3150255.90900  23092597.47900                  -2416867.30940  23092603.39640
  -1547353.21100  21416128.31400                  -1137347.60740  21416134.15040
  44614050.13500  24505930.47900                  11907870.67540  24505937.33840
  -1779509.98700  21346612.37700                  -1331842.19040  21346616.72540
  -2060380.63300  23428912.38500                  -1566214.95240  23428917.62340
 96  9  5  0 31  0.0020000  0  6  1 14 15 21 25 29
  29925887.95400  23708811.76000                  23414025.86040  23708817.53740
  -3171832.16800  23088491.72100                  -2433679.96040  23088497.68640
  -1477304.86200  21429458.04100                  -1082764.49440  21429463.78340
  44763945.80800  24534455.15000                  12024672.47040  24534460.17840
  -1716245.62200  21358651.11900                  -1282545.28440  21358655.43240
  -2064140.36000  23428196.73600                  -1569144.57840  23428202.26840
 96  9  5  0 31 30.0020000  0  6  1 14 15 21 25 29
  30060538.14500  23734434.84600                  23518948.04740  23734440.70540
  -3193305.72600  23084405.55700                  -2450412.58640  23084411.36940
  -1406624.26200  21442908.18200                  -1027688.72040  21442913.90040
  44914044.74600  24563017.70500                  12141632.60740  24563023.67040
  -1652458.17300  21370789.63500                  -1232840.78040  21370793.90040
  -2067735.88700  23427512.89300                  -1571946.26640  23427518.14340
 96  9  5  0 32  0.0020000  0  6  1 14 15 21 25 29
  30195270.76600  23760074.00200                  23623934.47340  23760079.95540
  -3214658.49000  23080342.26800                  -2467051.09940  23080348.09240
  -1335301.85100  21456480.46300                   -972112.83240  21456486.34640
  45064352.18700  24591620.06400                  12258755.23340  24591625.73640
  -1588129.89200  21383030.85400                  -1182714.84240  21383035.10740
  -2071174.16700  23426858.49400                  -1574625.41640  23426863.40440
 96  9  5  0 32 30.0020000  0  6  1 14 15 21 25 29
  30330081.29700  23785726.96300                  23728981.60740  23785733.09240
  -3235897.30800  23076300.62700                  -2483600.81240  23076306.51040
  -1263346.26300  21470173.09600                   -916043.55340  21470178.81440
  45214853.00400  24620259.78300                  12376028.55540  24620268.27140
  -1523261.88400  21395374.58800                  -1132168.33740  21395378.94740
  -2074463.37200  23426233.08800                  -1577188.42040  23426238.17440
 96  9  5  0 33  0.0020000  0  6  1 14 15 21 25 29
  30464946.09600  23811391.81400                  23834071.02040  23811397.49840
  -3257024.44700  23072280.36100                  -2500063.50540  23072286.25640
  -1190761.66600  21483985.30700                   -859484.14140  21483991.08440
  45365554.02400  24648937.08000                  12493457.87040  24648946.54140
  -1457859.40300  21407820.37700                  -1081205.36640  21407824.84240
  -2077605.37000  23425634.81400                  -1579636.70440  23425639.98240
 96  9  5  0 33 30.0020000  0  6  1 14 15 21 25 29
  30599859.36800  23837064.83800                  23939198.19740  23837070.65040
  -3278039.75100  23068280.88500                  -2516439.05140  23068286.53340
  -1117544.59700  21497918.09600                   -802431.89640  21497924.01440
  45516462.86000  24677654.84600                  12611049.09740  24677662.77140
  -1391916.57600  21420368.83800                  -1029821.34840  21420373.08040
  -2080591.79500  23425066.53300                  -1581963.76440  23425071.53740
 96  9  5  0 34  0.0020000  0  6  1 14 15 21 25 29
  30734809.54200  23862744.59600                  24044354.14940  23862750.42040
  -3298938.81700  23064304.15000                  -2532724.01140  23064309.50640
  -1043692.63700  21511971.84600                   -744884.93140  21511977.64640
  45667574.79700  24706409.84600                  12728798.58140  24706416.79940
  -1325434.10900  21433020.01000                   -978016.82840  21433024.31140
  -2083407.14300  23424530.90800                  -1584157.52140  23424535.43240
 96  9  5  0 34 30.0020000  0  6  1 14 15 21 25 29
  30869779.64200  23888429.16600                  24149525.59040  23888434.97940
  -3319737.31700  23060346.26800                  -2548930.61940  23060351.84640
   -969217.47700  21526143.98600                   -686852.35740  21526149.85740
  45818880.66400  24735201.93200                  12846699.21040  24735209.08440
  -1258420.59200  21445772.39300                   -925798.50440  21445776.75240
  -2086053.67300  23424026.83000                  -1586219.73140  23424031.58840
 96  9  5  0 35  0.0020000  0  6  1 14 15 21 25 29
  31004781.58700  23914118.61900                  24254721.89340  23914124.56140
  -3340423.60600  23056409.76800                  -2565049.78140  23056415.49840
   -894110.56500  21540436.48600                   -628327.50340  21540442.27540
  45970392.05900  24764035.23600                  12964759.81040  24764041.97540
  -1190858.24600  21458629.02500                   -873152.52040  21458633.39640
  -2088499.41100  23423561.29100                  -1588125.47940  23423566.70540
 96  9  5  0 35 30.0020000  0  6  1 14 15 21 25 29
  31139825.73400  23939816.22900                  24359951.04340  23939822.35740
  -3360981.50800  23052497.83800                  -2581068.90440  23052503.31140
   -818368.96100  21554849.41600                   -569308.08640  21554855.14640
  46122108.72400  24792905.16600                  13082980.62840  24792911.57640
  -1122739.24800  21471591.60400                   -820072.78440  21471596.11540
  -2090739.79800  23423135.72900                  -1589871.21240  23423141.15440
 96  9  5  0 36  0.0020000  0  6  1 14 15 21 25 29
  31274900.66200  23965520.69700                  24465204.20140  23965527.02540
  -3381404.85100  23048611.25200                  -2596983.17840  23048617.05340
   -741997.53700  21569382.39300                   -509797.90440  21569388.26440
  46274026.82100  24821813.87700                  13201358.21040  24821821.35740
  -1054077.92900  21484657.51800                   -766570.46240  21484661.94740
  -2092788.76400  23422745.52500                  -1591467.78040  23422750.68240
 96  9  5  0 36 30.0020000  0  6  1 14 15 21 25 29
  31410002.13300  23991229.64300                  24570478.01640  23991235.20940
  -3401685.28100  23044752.06400                  -2612786.08340  23044758.02940
   -664991.11500  21584036.22900                   -449792.91240  21584042.10040
  46426163.78700  24850764.52500                  13319906.45940  24850771.56140
   -984877.98700  21497825.83800                   -712648.42740  21497830.15040
  -2094649.60900  23422391.26800                  -1592917.76740  23422396.40040
 96  9  5  0 37  0.0020000  0  6  1 14 15 21 25 29
  31545120.53200  24016941.92400                  24675765.03440  24016947.72540
  -3421825.16600  23040919.38500                  -2628479.47740  23040925.10440
   -587360.84200  21598808.99400                   -389301.81340  21598814.87740
  46578503.83100  24879754.43900                  13438612.85840  24879761.72140
   -915169.07300  21511091.02500                   -658329.79640  21511095.30340
  -2096337.95000  23422069.93200                  -1594233.35040  23422075.35740
 96  9  5  0 37 30.0020000  0  6  1 14 15 21 25 29
  31680262.31600  24042658.32200                  24781070.28940  24042663.95940
  -3441806.73500  23037117.40800                  -2644049.51940  23037123.29140
   -509097.07300  21613702.07200                   -328317.08040  21613707.93240
  46731055.04300  24908783.66600                  13557483.90640  24908788.36540
   -844964.08100  21524450.50200                   -603624.60740  21524454.82640
  -2097865.61700  23421778.97100                  -1595423.71040  23421784.13940
 96  9  5  0 38  0.0020000  0  6  1 14 15 21 25 29
  31815424.01300  24068379.12700                  24886391.04140  24068384.84640
  -3461649.54900  23033341.36900                  -2659511.43240  23033347.27540
   -430212.93900  21628713.18200                   -266848.94440  21628719.12340
  46883798.89000  24937849.71300                  13676504.96240  24937857.75640
   -774281.20800  21537901.06400                   -548547.04840  21537905.56440
  -2099242.39600  23421517.15000                  -1596496.51840  23421522.17840
 96  9  5  0 38 30.0020000  0  6  1 14 15 21 25 29
  31950646.77800  24094111.25200                  24991759.36940  24094116.67840
  -3481336.35800  23029594.95500                  -2674851.78140  23029600.58040
   -350685.34500  21643846.80700                   -204879.41440  21643852.64340
  47036754.59800  24966956.08800                  13795691.16440  24966964.48240
   -703088.17200  21551448.58800                   -493071.96040  21551453.07640
  -2100439.59900  23421289.25200                  -1597429.39240  23421294.74840
 96  9  5  0 39  0.0020000  0  6  1 14 15 21 25 29
  32085924.37300  24119853.74400                  25097170.44440  24119859.36940
  -3500887.56600  23025874.54100                  -2690086.46740  23025880.30740
   -270532.47300  21659099.44700                   -142422.65440  21659105.33040
  47189905.98000  24996100.76800                  13915029.75540  24996108.15440
   -631386.05800  21565093.16600                   -437200.18340  21565097.63140
  -2101475.29500  23421092.68200                  -1598236.41440  23421098.31840
 96  9  5  0 39 30.0020000  0  6  1 14 15 21 25 29
  32221248.36800  24145605.14300                  25202617.67240  24145611.08440
  -3520314.57500  23022177.66600                  -2705224.37740  23022183.01040
   -189758.61000  21674470.25200                    -79482.00240  21674476.07640
  47343256.84500  25025282.83800                  14034523.85840  25025290.26040
   -559159.43500  21578837.33000                   -380919.70240  21578841.61940
  -2102349.22300  23420926.11900                  -1598917.37740  23420931.22940
 96  9  5  0 40  0.0030000  0  6  1 14 15 21 25 29
  32356633.62600  24171368.15500                  25308112.63740  24171373.82740
  -3539613.36000  23018505.16300                  -2720262.38140  23018511.05840
   -108355.52000  21689960.79600                    -16051.04840  21689966.72640
  47496814.22800  25054502.86600                  14154178.81240  25054510.05440
   -486380.76600  21592686.76500                   -324209.05140  21592691.07740
  -2103043.18100  23420794.36600                  -1599458.11240  23420799.76940
 96  9  5  0 40 30.0030000  0  6  1 14 15 21 25 29
  32492070.08100  24197140.52200                  25413647.48940  24197146.45240
  -3558780.43700  23014857.88200                  -2735197.75040  23014863.56540
    -26327.77700  21705570.09300                     47866.65440  21705575.78840
  47650572.49300  25083762.53000                  14273990.44840  25083768.55440
   -413047.64300  21606641.56900                   -267066.35540  21606645.83540
  -2103551.46900  23420697.24900                  -1599854.16140  23420702.75740
 96  9  5  0 41  0.0030000  0  6  1 14 15 21 25 29
  32627554.19300  24222922.58500                  25519219.48940  24222928.21040
  -3577818.23500  23011234.92900                  -2750032.39040  23011240.69440
     56318.42200  21721297.17100                    112266.26840  21721302.98340
  47804527.71800  25113059.36600                  14393955.42940  25113066.08140
   -339173.40900  21620699.28800                   -209502.01640  21620703.53040
  -2103881.13400  23420634.64000                  -1600111.03340  23420640.64040
 96  9  5  0 41 30.0030000  0  6  1 14 15 21 25 29
  32763090.53500  24248713.81900                  25624832.18040  24248719.50340
  -3596712.47500  23007639.60100                  -2764755.15940  23007645.24940
    139588.90200  21737142.95200                    177152.33840  21737148.76540
  47958662.78300  25142390.46800                  14514060.53140  25142396.58540
   -264760.64500  21634859.58500                   -151518.04140  21634863.87440
  -2104021.03000  23420607.78000                  -1600220.02540  23420612.71440
 96  9  5  0 42  0.0030000  0  6  1 14 15 21 25 29
  32898667.37000  24274513.77200                  25730476.42740  24274520.22940
  -3615461.04200  23004071.60100                  -2779364.42240  23004077.29640
    223473.41900  21753105.71000                    242516.87040  21753111.54640
  48112967.38200  25171753.73300                  14634297.89640  25171762.56240
   -189825.67400  21649119.18700                    -93127.15540  21649123.51140
  -2103981.74400  23420615.04600                  -1600189.39840  23420620.56540
 96  9  5  0 42 30.0030000  0  6  1 14 15 21 25 29
  33034286.99100  24300321.19400                  25836154.01740  24300326.81940
  -3634046.27100  23000535.08500                  -2793846.40940  23000540.75740
    307989.72500  21769188.62400                    308373.71440  21769194.64740
  48267457.15600  25201151.78000                  14754679.43540  25201159.07340
   -114360.21400  21663480.00700                    -34322.90040  21663484.44840
  -2103754.60000  23420658.53800                  -1600012.37540  23420664.01140
 96  9  5  0 43  0.0030000  0  6  1 14 15 21 25 29
  33169915.54400  24326130.66300                  25941838.57240  24326137.27240
  -3652481.90800  22997026.89700                  -2808211.81540  22997032.71040
    393120.29800  21785388.38200                    374709.20040  21785394.37040
  48422108.81000  25230582.10100                  14875187.08840  25230588.73340
    -38390.11200  21677936.55400                     24874.58340  21677940.85440
  -2103368.71500  23420732.10100                  -1599711.66940  23420737.50340
 96  9  5  0 43 30.0030000  0  6  1 14 15 21 25 29
  33305547.44800  24351940.16300                  26047525.73140  24351946.39740
  -3670757.99800  22993548.93700                  -2822452.90140  22993554.67940
    478867.04100  21801705.51500                    441524.81840  21801711.47940
  48576939.98000  25260044.15500                  14995834.66740  25260051.22640
     38089.11000  21692489.79600                     84468.78440  21692494.13240
  -2102819.69400  23420836.47600                  -1599283.84540  23420842.00740
 96  9  5  0 44  0.0030000  0  6  1 14 15 21 25 29
  33441185.26700  24377751.39700                  26153217.49240  24377757.05840
  -3688888.41600  22990098.91300                  -2836580.48940  22990104.64440
    565230.10000  21818139.92900                    508820.68540  21818145.88240
  48731969.77800  25289546.59300                  15116637.02140  25289553.00340
    115073.32500  21707139.49900                    144456.48540  21707143.76540
  -2102111.89100  23420971.02200                  -1598732.29740  23420976.61240
 96  9  5  0 44 30.0030000  0  6  1 14 15 21 25 29
  33576829.31100  24403563.50700                  26258914.08540  24403570.04640
  -3706889.74400  22986673.44400                  -2850607.47740  22986679.18740
    652196.94100  21834689.26500                    576587.02540  21834695.07740
  48887188.71900  25319083.44400                  15237586.78540  25319089.65540
    192541.96400  21721881.21000                    204821.65640  21721885.49940
  -2101255.73800  23421133.88200                  -1598065.14040  23421139.17940
 96  9  5  0 45  0.0030000  0  6  1 14 15 21 25 29
  33712488.95600  24429378.50700                  26364622.87240  24429385.24540
  -3724761.99900  22983272.31200                  -2864533.89340  22983277.98340
    739759.08700  21851351.78000                    644817.24440  21851357.68740
  49042608.31700  25348658.91300                  15358692.81140  25348664.09340
    270488.92600  21736714.14000                    265559.54840  21736718.44040
  -2100247.74100  23421325.80400                  -1597279.67240  23421331.24140
 96  9  5  0 45 30.0030000  0  6  1 14 15 21 25 29
  33848198.07500  24455203.56900                  26470370.19140  24455210.53440
  -3742477.18000  22979901.19400                  -2878337.90040  22979906.96040
    827932.51800  21868130.44400                    713523.79140  21868136.22240
  49198246.24500  25378275.67900                  15479969.08440  25378282.11240
    348935.64900  21751642.08500                    326686.86040  21751646.42140
  -2099055.18800  23421552.53000                  -1596350.38340  23421557.87440
 96  9  5  0 46  0.0030000  0  6  1 14 15 21 25 29
  33983955.15900  24481036.97600                  26576154.89140  24481042.75340
  -3760040.45200  22976558.90500                  -2892023.54940  22976564.62440
    916719.15200  21885026.27200                    782708.15540  21885032.14440
  49354085.51300  25407931.45200                  15601402.28340  25407939.95240
    427885.55100  21766665.67900                    388206.26540  21766670.19040
  -2097669.69700  23421816.32700                  -1595270.76140  23421821.91740
 96  9  5  0 46 30.0030000  0  6  1 14 15 21 25 29
  34119746.24700  24506877.26500                  26681966.10040  24506884.33540
  -3777435.05000  22973248.94400                  -2905577.75640  22973254.94440
   1006109.45100  21902036.56200                    852362.91140  21902042.45640
  49510110.50700  25437621.61600                  15722980.10240  25437627.31240
    507334.39600  21781784.35100                    450114.45740  21781788.74540
  -2096096.20500  23422115.66300                  -1594044.63940  23422120.89040
 96  9  5  0 47  0.0030000  0  6  1 14 15 21 25 29
  34255571.97200  24532723.60800                  26787804.28240  24532729.91340
  -3794649.31200  22969973.12400                  -2918991.44040  22969979.04240
   1096107.63000  21919162.62400                    922491.34240  21919168.57740
  49666314.53000  25467346.35100                  15844697.38940  25467353.96040
    587302.85000  21797001.77200                    512427.53740  21797006.12040
  -2094334.44600  23422450.85100                  -1592671.81940  23422455.85440
 96  9  5  0 47 30.0030000  0  5  1 14 15 25 29
  34391421.38900  24558575.21000                  26893660.94640  24558581.59740
  -3811701.21900  22966728.23300                  -2932278.61240  22966734.40940
   1186713.48900  21936404.44400                    993093.28340  21936410.21040
    667791.86300  21812318.41300                    575146.24840  21812322.77240
  -2092402.42200  23422818.74100                  -1591166.31640  23422824.01540
 96  9  5  0 48  0.0030000  0  5  1 14 15 25 29
  34527284.51500  24584429.49900                  26999528.26640  24584436.08540
  -3828608.43400  22963510.90500                  -2945453.03940  22963516.65940
   1277925.29500  21953761.46000                   1064167.39240  21953767.30840
    748806.06500  21827734.99900                    638274.20140  21827739.35840
  -2090323.96500  23423213.84300                  -1589546.71140  23423219.32740
 96  9  5  0 48 30.0030000  0  5  1 14 15 25 29
  34663167.46100  24610286.85800                  27105411.03440  24610293.11640
  -3845355.01500  22960324.38200                  -2958502.29940  22960329.92540
   1369742.90200  21971233.60800                   1135713.55140  21971239.56240
    830355.79200  21843253.46000                    701819.44640  21843257.65540
  -2088103.23200  23423636.53800                  -1587816.23840  23423642.21040
 96  9  5  0 49  0.0030000  0  5  1 14 15 25 29
  34799044.78000  24636144.06900                  27211289.41740  24636150.45640
  -3861964.00600  22957163.44400                  -2971444.34440  22957169.22240
   1462151.76600  21988818.63200                   1207720.43340  21988824.50340
    912420.82200  21858869.77200                    765766.21940  21858874.09740
  -2085756.74800  23424083.07700                  -1585987.78840  23424088.45640
 96  9  5  0 49 30.0030000  0  5  1 14 15 25 29
  34934912.37400  24661998.07700                  27317160.24740  24662003.44440
  -3878417.51400  22954032.52200                  -2984265.23740  22954037.62040
   1555163.52100  22006518.17100                   1280197.10040  22006524.11240
    994996.41800  21874583.37400                    830110.83940  21874587.73340
  -2083259.80500  23424558.15500                  -1584042.08040  23424563.40540
 96  9  5  0 50  0.0030000  0  5  1 14 15 25 29
  35070782.47600  24687853.69400                  27423033.00940  24687859.09740
  -3894681.60100  22950937.65500                  -2996938.52540  22950943.11640
   1648778.75500  22024332.62400                   1353144.01340  22024338.64740
   1078079.51200  21890393.48300                    894850.90940  21890397.90140
  -2080580.43400  23425068.41300                  -1581954.23140  23425073.90940
 96  9  5  0 50 30.0030000  0  5  1 14 15 25 29
  35206650.79200  24713708.67900                  27528904.39840  24713715.10140
  -3910737.58900  22947882.10100                  -3009449.66440  22947887.52640
   1742991.38500  22042260.61600                   1426556.42540  22042266.51140
   1161650.51400  21906296.58500                    959971.16840  21906300.93340
  -2077697.35600  23425616.71800                  -1579707.63940  23425622.03840
 96  9  5  0 51  0.0030000  0  5  1 14 15 25 29
  35342516.28200  24739562.99900                  27634773.58840  24739568.89440
  -3926602.75300  22944863.05400                  -3021812.10740  22944868.58540
   1837791.58100  22060300.69400                   1500426.68340  22060306.62440
   1245681.94200  21922287.24900                   1025450.20340  21922291.64440
  -2074611.86200  23426203.52200                  -1577303.33040  23426209.04240
 96  9  5  0 51 30.0030000  0  6  1 14 15 22 25 29
  35478411.01300  24765423.26500                  27740665.56240  24765428.33940
  -3942284.09100  22941879.06900                  -3034031.31040  22941884.70640
   1933175.03700  22078451.53800                   1574751.43040  22078457.51540
    -28470.22710  25565988.84300
   1330177.58900  21938366.19400                   1091290.95740  21938370.62440
  -2071322.67000  23426829.77200                  -1574740.28940  23426834.64740
 96  9  5  0 52  0.0030000  0  6  1 14 15 22 25 29
  35614376.17500  24791296.37400                  27846612.41340  24791302.39740
  -3957770.83800  22938932.14700                  -3046098.88840  22938937.70240
   2029150.52400  22096715.21000                   1649537.49640  22096721.16340
    -65673.61300  25558908.87400
   1415164.09000  21954538.66300                   1157514.20840  21954542.87040
  -2067830.68100  23427494.26500                  -1572019.22840  23427499.37440
 96  9  5  0 52 30.0030000  0  6  1 14 15 22 25 29
  35750416.20700  24817184.30400                  27952617.59240  24817190.11640
  -3973069.06300  22936020.74900                  -3058019.55840  22936026.46840
   2125722.04900  22115091.95200                   1724788.00940  22115097.80040
   -102946.94200  25551816.42900                     -6779.51350  25551823.49940
   1500643.50700  21970804.96800                   1224121.53940  21970809.31540
  -2064156.28200  23428193.12400                  -1569156.02940  23428198.32740
 96  9  5  0 53  0.0030000  0  6  1 14 15 22 25 29
  35886528.25900  24843085.33500                  28058678.89940  24843091.11240
  -3988204.80500  22933140.64700                  -3069813.63140  22933146.36640
   2222880.76000  22133580.62400                   1800496.06740  22133586.55440
   -140285.85300  25544710.42100                    -35874.70640  25544717.15940
   1586612.44900  21987164.28800                   1291110.32340  21987168.41340
  -2060329.50700  23428921.39700                  -1566174.09340  23428926.83540
 96  9  5  0 53 30.0040000  0  6  1 14 15 22 25 29
  36022698.00000  24868997.37900                  28164785.18340  24869003.07440
  -4003176.75400  22930291.52000                  -3081480.07140  22930297.14540
   2320627.04000  22152181.18400                   1876661.97340  22152187.09040
   -177685.08900  25537594.04300                    -65016.96540  25537600.24240
   1673080.65400  22003618.45700                   1358488.14640  22003622.74640
  -2056363.15100  23429675.61300                  -1563083.40040  23429680.88740
 96  9  5  0 54  0.0040000  0  6  1 14 15 22 25 29
  36158861.60100  24894908.16800                  28270886.64840  24894914.55540
  -4017988.04300  22927472.83200                  -3093021.32240  22927478.43440
   2418936.58300  22170888.88700                   1953266.78640  22170894.89840
   -215161.10500  25530463.27000                    -94219.02040  25530471.77040
   1760014.37100  22020161.41000                   1426228.70640  22020165.72340
  -2052279.84700  23430452.80900                  -1559901.56940  23430458.05940
 96  9  5  0 54 30.0040000  0  6  1 14 15 22 25 29
  36295015.19400  24920817.59000                  28376980.32840  24920823.87140
  -4032616.54100  22924689.39500                  -3104420.13440  22924695.16040
   2517836.83300  22189709.21500                   2030331.88740  22189715.27340
   -252678.41000  25523323.64500                   -123453.27740  25523329.79740
   1847426.53200  22036795.58200                   1494342.08040  22036799.78940
  -2048049.98900  23431258.14500                  -1556605.54740  23431263.30140
 96  9  5  0 55  0.0040000  0  6  1 14 15 22 25 29
  36431141.12600  24946721.84000                  28483052.44640  24946727.66440
  -4047063.71700  22921939.91000                  -3115677.66240  22921945.64140
   2617321.55400  22208640.45700                   2107852.42340  22208646.42240
   -290245.16400  25516175.55100                   -152726.03940  25516183.44140
   1935317.38600  22053520.54300                   1562828.46140  22053524.85540
  -2043669.74200  23432091.57400                  -1553192.34740  23432096.74240
 96  9  5  0 55 30.0040000  0  6  1 14 15 22 25 29
  36567212.85600  24972615.51200                  28589082.31540  24972621.16040
  -4061319.64000  22919227.16000                  -3126786.15540  22919232.94940
   2717372.84300  22227679.61300                   2185814.43840  22227685.50840
   -327877.81100  25509013.38700                   -182050.21740  25509018.28540
   2023672.52700  22070333.87900                   1631676.62340  22070338.33240
  -2039144.37700  23432952.73800                  -1549666.05540  23432957.78940
 96  9  5  0 56  0.0040000  0  6  1 14 15 22 25 29
  36703253.58300  24998503.55100                  28695088.05740  24998510.68040
  -4075359.41600  22916555.39500                  -3137726.22640  22916561.04340
   2818003.26000  22246828.78500                   2264227.72140  22246834.66840
   -365551.73100  25501844.33200                   -211406.46140  25501851.10540
   2112509.61400  22087239.03500                   1700900.32540  22087243.53540
  -2034445.07400  23433847.05900                  -1546004.23740  23433852.36740
 96  9  5  0 56 30.0040000  0  6  1 14 15 22 25 29
  36839275.20000  25024387.41000                  28801078.84640  25024392.66040
  -4089197.33800  22913922.25400                  -3148509.00540  22913927.85540
   2919193.50800  22266084.68400                   2343077.23740  22266090.61340
   -403279.08200  25494664.07400                   -240804.33040  25494670.96940
   2201819.84700  22104234.27700                   1770492.71040  22104238.71940
  -2029586.01700  23434771.51200                  -1542217.92540  23434776.37540
 96  9  5  0 57  0.0040000  0  6  1 14 15 22 25 29
  36975325.56800  25050276.76200                  28907092.12140  25050283.46540
  -4102799.47500  22911333.66000                  -3159108.05640  22911339.12140
   3020966.12900  22285451.30100                   2422380.55240  22285457.21940
   -441042.21900  25487478.79300                   -270230.12540  25487486.80140
   2291633.33900  22121325.19900                   1840477.24940  22121329.57040
  -2024544.29500  23435730.96500                  -1538289.27640  23435735.88740
 96  9  5  0 57 30.0040000  0  6  1 14 15 22 25 29
  37111386.13200  25076168.46500                  29013113.27640  25076174.06640
  -4116196.68000  22908784.54300                  -3169547.42640  22908789.93440
   3123292.02200  22304923.61300                   2502114.98640  22304929.60240
   -478858.68700  25480281.98000                   -299697.54740  25480290.87940
   2381918.10500  22138505.69100                   1910829.01340  22138510.12140
  -2019349.20600  23436719.90200                  -1534241.13340  23436724.59040
 96  9  5  0 58  0.0040000  0  6  1 14 15 22 25 29
  37247504.92900  25102070.70700                  29119179.82340  25102076.94140
  -4129377.90900  22906276.15200                  -3179818.49440  22906281.71940
   3226199.01500  22324505.97300                   2582302.23440  22324511.92640
   -516697.33000  25473081.68400                   -329182.20240  25473090.35940
   2472705.45600  22155781.98000                   1981572.40140  22155786.45740
  -2013977.79100  23437741.99600                  -1530055.58240  23437746.87140
 96  9  5  0 58 30.0040000  0  6  1 14 15 22 25 29
  37383680.75200  25127984.02000                  29225290.82940  25127990.09040
  -4142355.22300  22903806.56600                  -3189930.67140  22903812.14540
   3329688.42800  22344199.34800                   2662943.30640  22344205.19540
   -554547.65900  25465879.31600                   -358675.86740  25465884.32040
   2563990.10300  22173152.82400                   2052703.29540  22173157.21940
  -2008444.09800  23438794.83200                  -1525743.58440  23438799.77740
 96  9  5  0 59  0.0040000  0  6  1 14 15 22 25 29
  37519869.68100  25153899.95700                  29331412.04740  25153905.55940
  -4155158.97200  22901370.30100                  -3199907.60740  22901375.91440
   3433739.20100  22363999.59000                   2744021.80940  22364005.63740
   -592422.25900  25458671.98000                   -388188.52340  25458679.34440
   2655745.94400  22190613.51200                   2124201.35340  22190617.73040
  -2002768.58700  23439875.09000                  -1521321.07940  23439880.09440
 96  9  5  0 59 30.0040000  0  6  1 14 15 22 25 29
  37656072.00700  25179818.61300                  29437543.69340  25179824.50840
  -4167791.73800  22898966.07400                  -3209751.29940  22898971.62940
   3538354.83500  22383907.37900                   2825540.46440  22383913.18040
   -630306.82100  25451462.73000                   -417708.94340  25451469.73040
   2747974.44000  22208163.86300                   2196067.71240  22208168.29340
  -1996939.49300  23440983.87100                  -1516778.89940  23440989.21540
 96  9  5  1  0  0.0040000  0  6  1 14 15 22 25 29
  37792284.07500  25205738.70700                  29543682.94740  25205744.91840
  -4180244.50500  22896596.42600                  -3219454.73840  22896602.14540
   3643529.51800  22403921.55100                   2907494.73840  22403927.50440
   -668204.35200  25444251.57400                   -447239.37040  25444256.83640
   2840661.33700  22225801.83200                   2268291.26840  22225806.22740
  -1990958.05400  23442122.11300                  -1512118.00740  23442126.96540
 96  9  5  1  0 30.0040000  0  6  1 14 15 22 25 29
  37928513.24500  25231662.66000                  29649835.49240  25231669.30540
  -4192487.09900  22894266.88700                  -3228994.40640  22894272.57040
   3749280.76800  22424045.19100                   2989898.28540  22424051.08640
   -706088.93600  25437041.41000                   -476759.78940  25437047.58640
   2933810.31400  22243527.42600                   2340874.88740  22243531.76240
  -1984793.89300  23443295.13700                  -1507314.73040  23443300.14140
 96  9  5  1  1  0.0040000  0  6  1 14 15 22 25 29
  38064745.29900  25257586.69100                  29755990.26340  25257594.35940
  -4204514.03500  22891978.15200                  -3238366.03140  22891983.88340
   3855592.77700  22444275.73000                   3072738.78440  22444281.62540
   -743976.50400  25429832.12900                   -506282.57740  25429839.87940
   3027399.51200  22261336.78500                   2413801.53240  22261341.19140
  -1978452.66800  23444501.91000                  -1502373.47540  23444507.10240
 96  9  5  1  1 30.0040000  0  6  1 14 15 22 25 29
  38201016.95000  25283518.09800                  29862175.93340  25283524.76640
  -4216285.29400  22889738.20700                  -3247538.42440  22889743.89140
   3962483.90400  22464616.37100                   3156030.54440  22464622.32440
   -781847.41800  25422624.92600                   -535792.27940  25422630.82040
   3121446.19400  22279233.40200                   2487084.66440  22279237.94940
  -1971911.41100  23445746.50400                  -1497276.35940  23445751.41440
 96  9  5  1  2  0.0040000  0  6  1 14 15 22 25 29
  38337286.30400  25309449.15200                  29968359.81940  25309455.29340
  -4227819.59900  22887543.10500                  -3256526.17840  22887548.59040
   4069923.35200  22485061.52700                   3239749.57140  22485067.55140
   -819725.42100  25415417.44900                   -565307.52940  25415426.50040
   3215925.80500  22297212.13700                   2560705.13240  22297216.43740
  -1965196.88900  23447024.54300                  -1492044.22740  23447029.57040
 96  9  5  1  2 30.0040000  0  6  1 14 15 22 25 29
  38473552.70100  25335379.24600                  30074541.37740  25335386.37540
  -4239121.25000  22885392.39500                  -3265332.64240  22885398.09040
   4177914.21700  22505611.56600                   3323898.26940  22505617.59040
   -857599.40800  25408210.09800                   -594819.70940  25408216.54340
   3310856.43900  22315276.82400                   2634677.05040  22315281.20740
  -1958309.52700  23448335.00400                  -1486677.42140  23448339.76240
 96  9  5  1  3  0.0040000  0  6  1 14 15 22 25 29
  38609818.74500  25361310.12900                  30180722.70540  25361315.50840
  -4250190.43900  22883286.15200                  -3273957.96740  22883291.70740
   4286453.44100  22526265.90200                   3408474.26540  22526271.76240
   -895483.88200  25401000.73800                   -624340.03940  25401008.00840
   3406253.81200  22333430.56600                   2709012.66440  22333434.89140
  -1951251.66900  23449678.07400                  -1481177.75740  23449682.93740
 96  9  5  1  3 30.0040000  0  6  1 14 15 22 25 29
  38746094.61100  25387242.19900                  30286911.64340  25387248.80940
  -4261028.42400  22881223.54300                  -3282403.13340  22881229.28540
   4395542.74600  22547024.94100                   3493478.88840  22547030.87140
   -933376.29900  25393790.35500                   -653866.50340  25393797.34440
   3502130.40900  22351675.16800                   2783721.69340  22351679.56240
  -1944005.70300  23451056.87900                  -1475531.52340  23451061.77740
 96  9  5  1  4  0.0040000  0  6  1 14 15 22 25 29
  38882376.25900  25413175.91000                  30393105.09340  25413181.00840
  -4271644.71700  22879203.43400                  -3290675.55240  22879209.22340
   4505182.90700  22567888.94900                   3578912.75440  22567894.94940
   -971260.12700  25386581.59800                   -683386.32240  25386588.78540
   3598496.77200  22370013.16800                   2858812.36440  22370017.55140
  -1936563.60400  23452472.84800                  -1469732.45740  23452477.72340
 96  9  5  1  4 30.0040000  0  6  1 14 15 22 25 29
  39018666.80600  25439111.89500                  30499305.50340  25439119.24640
  -4282052.92500  22877222.97300                  -3298785.82340  22877228.65640
   4615357.05900  22588854.28500                   3664762.72240  22588860.27340
  -1009154.40500  25379370.77000                   -712914.26540  25379377.09840
   3695330.23300  22388439.86300                   2934267.01040  22388444.34040
  -1928954.55100  23453920.69900                  -1463803.30440  23453925.76240
 96  9  5  1  5  0.0040000  0  6  1 14 15 22 25 29
  39154984.03800  25465052.05900                  30605526.66740  25465057.98840
  -4292221.63600  22875287.81600                  -3306709.47840  22875293.30140
   4726079.09400  22609923.98000                   3751039.60340  22609930.02740
  -1047039.29000  25372160.30900                   -742434.91840  25372167.05940
   3792641.72000  22406957.72300                   3010094.14140  22406962.01240
  -1921156.96000  23455404.49600                  -1457727.23640  23455409.65240
 96  9  5  1  5 30.0040000  0  6  1 14 15 22 25 29
  39291317.06500  25490995.23800                  30711760.21240  25491001.07440
  -4302147.78500  22873399.09800                  -3314444.11940  22873404.48840
   4837349.87400  22631098.12900                   3837744.07840  22631104.11740
  -1084883.58000  25364959.77000                   -771923.91740  25364966.66440
   3890422.98500  22425564.59800                   3086287.33240  22425569.21540
  -1913185.33900  23456921.54300                  -1451515.55540  23456926.46540
 96  9  5  1  6  0.0040000  0  6  1 14 15 22 25 29
  39427651.05400  25516938.98800                  30817994.46140  25516945.17640
  -4311834.02800  22871555.73000                  -3321991.82540  22871561.05140
   4949158.09700  22652374.53500                   3924867.34540  22652380.41840
  -1122680.41400  25357767.50400                   -801375.93340  25357773.72740
   3988656.17100  22444257.92600                   3162832.67540  22444262.13340
  -1905079.43600  23458463.99600                  -1445199.24940  23458469.21140
 96  9  5  1  6 30.0040000  0  6  1 14 15 22 25 29
  39563991.75200  25542883.89500                  30924233.95440  25542890.49240
  -4321271.17000  22869759.85500                  -3329345.43140  22869765.35240
   5061503.20900  22673752.85500                   4012408.96440  22673758.93740
  -1160435.86600  25350582.60500                   -830795.70240  25350590.61340
   4087339.19300  22463036.48000                   3239728.53340  22463040.88740
  -1896851.10800  23460029.94100                  -1438787.53440  23460034.80540
 96  9  5  1  7  0.0050000  0  6  1 14 15 22 25 29
  39700330.82800  25568829.18100                  31030472.16940  25568835.14540
  -4330466.98700  22868009.86800                  -3336510.98440  22868015.28240
   5174382.14300  22695233.16500                   4100366.54940  22695239.15340
  -1198147.08600  25343405.46200                   -860180.96640  25343411.48540
   4186470.27000  22481900.53200                   3316973.53240  22481904.93840
  -1888488.54600  23461620.97800                  -1432271.22340  23461625.57140
 96  9  5  1  7 30.0050000  0  6  1 14 15 22 25 29
  39836648.23700  25594768.69600                  31136693.52740  25594774.80240
  -4339439.98800  22866302.56300                  -3343502.92140  22866308.11840
   5287779.76700  22716811.92300                   4188728.30340  22716817.89940
  -1235818.22600  25336237.70400                   -889535.05740  25336243.97440
   4286033.60100  22500846.89200                   3394555.34840  22500851.39240
  -1879998.98400  23463236.65700                  -1425655.96440  23463241.63840
 96  9  5  1  8  0.0050000  0  6  1 14 15 22 25 29
  39972971.97100  25620709.98500                  31242919.77540  25620716.50140
  -4348176.03500  22864639.98500                  -3350310.21440  22864645.36440
   5401710.16100  22738492.41500                   4277505.21340  22738498.34540
  -1273457.46300  25329074.58700                   -918864.28840  25329081.99740
   4386046.29500  22519878.78200                   3472487.32040  22519883.15340
  -1871351.44800  23464882.23500                  -1418917.60140  23464886.97040
 96  9  5  1  8 30.0050000  0  6  1 14 15 22 25 29
  40109294.58000  25646652.10300                  31349145.19240  25646658.04440
  -4356692.80500  22863019.13400                  -3356946.64640  22863025.01740
   5516163.78700  22760272.05600                   4366689.83640  22760278.09140
  -1311091.47700  25321913.51700                   -948189.36740  25321919.41140
   4486499.55200  22538994.36800                   3550762.58740  22538998.72840
  -1862524.28100  23466562.10300                  -1412039.26240  23466566.94240
 96  9  5  1  9  0.0050000  0  6  1 14 15 22 25 29
  40245598.40100  25672589.90700                  31455355.92940  25672596.35340
  -4364998.21700  22861438.79800                  -3363418.38040  22861444.32940
   5631133.19100  22782150.26700                   4456276.35840  22782156.23140
  -1348719.61700  25314752.70400                   -977509.94740  25314759.71640
   4587377.18800  22558190.68800                   3629368.53440  22558195.03640
  -1853511.66400  23468276.97800                  -1405016.42340  23468281.74740
 96  9  5  1  9 30.0050000  0  6  1 14 15 22 25 29
  40381896.86600  25698526.11000                  31561562.50640  25698532.06340
  -4373065.28500  22859903.57900                  -3369704.39340  22859909.38040
   5746633.43900  22804128.94600                   4546276.53540  22804135.01740
  -1386326.51700  25307596.21200                  -1006813.99040  25307602.70440
   4688701.02000  22577472.10300                   3708322.17240  22577476.43840
  -1844310.04700  23470028.03200                  -1397846.30940  23470033.00140
 96  9  5  1 10  0.0050000  0  6  1 14 15 22 25 29
  40518187.68900  25724460.93100                  31667763.11240  25724467.32940
  -4380894.91900  22858413.71200                  -3375805.39240  22858419.41940
   5862644.49000  22826205.25100                   4636674.73640  22826211.23940
  -1423929.80300  25300439.94600                  -1036115.16340  25300447.20440
   4790446.26500  22596833.64900                   3787604.17740  22596838.09140
  -1834933.71600  23471812.29800                  -1390540.05240  23471817.24340
 96  9  5  1 10 30.0050000  0  6  1 14 15 22 25 29
  40654489.35200  25750398.38400                  31773972.16040  25750403.99740
  -4388463.20500  22856973.54800                  -3381702.74540  22856978.95040
   5979177.91900  22848381.11000                   4727479.97840  22848386.98140
  -1461497.78000  25293291.98500                  -1065388.83440  25293298.16140
   4892616.55500  22616275.79800                   3867217.39040  22616280.25140
  -1825378.96600  23473630.39900                  -1383094.76540  23473635.53240
 96  9  5  1 11  0.0050000  0  6  1 14 15 22 25 29
  40790791.63600  25776336.35300                  31880181.72340  25776342.57540
  -4395766.85600  22855583.72800                  -3387393.88940  22855589.31740
   6096218.04400  22870652.84500                   4818680.05540  22870658.69240
  -1499024.31200  25286149.54000                  -1094630.21040  25286156.12640
   4995195.44400  22635795.72800                   3947148.98740  22635800.25140
  -1815684.72000  23475474.99300                  -1375540.78140  23475479.79840
 96  9  5  1 11 30.0050000  0  6  1 14 15 22 25 29
  40927118.27700  25802278.57900                  31986410.23840  25802284.90740
  -4402791.63800  22854246.90700                  -3392867.72840  22854252.46240
   6213764.45500  22893021.26700                   4910274.64140  22893027.18540
  -1536499.51600  25279018.63400                  -1123831.62840  25279025.62240
   5098187.43600  22655394.61000                   4027402.48740  22655399.16940
  -1805849.55700  23477346.70400                  -1367876.99340  23477351.56740
 96  9  5  1 12  0.0050000  0  6  1 14 15 22 25 29
  41063472.37100  25828226.23500                  32092660.15740  25828232.14240
  -4409531.88700  22852964.23500                  -3398119.85540  22852969.77840
   6331818.73000  22915486.26700                   5002264.96140  22915492.24340
  -1573903.67000  25271900.63400                  -1152977.59440  25271906.77440
   5201587.24000  22675070.88400                   4107973.76340  22675075.38440
  -1795867.91000  23479246.18800                  -1360099.05340  23479251.13440
 96  9  5  1 12 30.0050000  0  6  1 14 15 22 25 29
  41199839.18200  25854176.27400                  32198919.93640  25854183.16940
  -4415990.96800  22851735.22800                  -3403152.88640  22851740.60640
   6450376.11000  22938047.08700                   5094647.31340  22938052.92340
  -1611231.51300  25264797.49300                  -1182064.16940  25264803.81040
   5305401.02600  22694826.12600                   4188867.62540  22694830.66140
  -1785745.60300  23481172.22000                  -1352211.51540  23481177.35340
 96  9  5  1 13  0.0050000  0  6  1 14 15 22 25 29
  41336218.93700  25880127.79800                  32305189.82540  25880133.97440
  -4422170.60700  22850559.13400                  -3407968.17340  22850564.67740
   6569436.84300  22960703.60300                   5187421.89240  22960709.43840
  -1648478.64500  25257710.04000                  -1211087.82440  25257716.86040
   5409640.48700  22714662.00100                   4270093.17740  22714666.60640
  -1775468.56800  23483127.89900                  -1344203.40840  23483132.97440
 96  9  5  1 13 30.0050000  0  6  1 14 15 22 25 29
  41472594.52800  25906079.64200                  32411456.51040  25906085.34940
  -4428084.85400  22849433.54800                  -3412576.66140  22849439.06740
   6688990.55900  22983453.69600                   5280580.60540  22983459.72040
  -1685653.47000  25250636.23500                  -1240055.16540  25250642.63440
   5514303.07400  22734578.82100                   4351648.44140  22734583.11040
  -1765024.07100  23485115.57900                  -1336064.81140  23485120.39540
 96  9  5  1 14  0.0050000  0  6  1 14 15 22 25 29
  41608968.63700  25932030.39200                  32517722.02140  25932036.04040
  -4433720.51600  22848361.36000                  -3416968.07040  22848366.73940
   6809056.88200  23006301.70400                   5374138.75340  23006307.58740
  -1722738.02400  25243578.90700                  -1268952.15740  25243584.63840
   5619409.18600  22754579.95400                   4433549.31240  22754584.31340
  -1754393.82500  23487138.36800                  -1327781.46840  23487143.16140
 96  9  5  1 14 30.0050000  0  6  1 14 15 22 25 29
  41745345.27200  25957982.41500                  32623989.45840  25957988.55640
  -4439097.71300  22847338.15700                  -3421158.07240  22847343.51340
   6929621.99500  23029244.33700                   5468085.56640  23029250.31340
  -1759748.90000  25236535.56300                  -1297791.69440  25236540.84940
   5724942.28400  22774662.24300                   4515782.89540  22774666.47440
  -1743591.10700  23489193.89900                  -1319363.74340  23489198.70440
 96  9  5  1 15  0.0050000  0  6  1 14 15 22 25 29
  41881718.03900  25983933.46200                  32730253.96340  25983939.27440
  -4444222.47600  22846362.80600                  -3425151.37340  22846368.29040
   7050682.34200  23052281.58700                   5562418.27840  23052287.48140
  -1796677.55100  25229508.05600                  -1326567.22840  25229513.98540
   5830898.18500  22794825.03200                   4598345.94040  22794829.53240
  -1732618.32200  23491282.15700                  -1310813.48140  23491286.70440
 96  9  5  1 15 30.0050000  0  6  1 14 15 22 25 29
  42018073.75800  26009880.64900                  32836505.15140  26009885.47840
  -4449094.91100  22845435.50900                  -3428948.05640  22845441.01740
   7172229.39800  23075411.04000                   5657130.23640  23075417.01740
  -1833529.99800  25222495.07900                  -1355283.31040  25222502.64240
   5937269.53400  22815066.41500                   4681232.70940  22815070.81040
  -1721496.24500  23493398.24300                  -1302146.89540  23493403.22440
 96  9  5  1 16  0.0050000  0  6  1 14 15 22 25 29
  42154417.85400  26035826.20400                  32942747.27840  26035832.40340
  -4453713.04300  22844556.83700                  -3432546.58340  22844562.39240
   7294257.11000  23098632.22800                   5752216.73340  23098638.14540
  -1870307.49000  25215497.16500                  -1383941.02140  25215503.63440
   6044036.61100  22835383.66500                   4764427.83540  22835388.25940
  -1710239.07900  23495540.59500                  -1293375.05040  23495545.45840
 96  9  5  1 16 30.0050000  0  6  1 14 15 22 25 29
  42290759.94400  26061771.39900                  33048987.81540  26061779.99340
  -4458062.67200  22843728.86800                  -3435935.89340  22843734.43540
   7416769.10900  23121945.70400                   5847680.59840  23121951.78640
  -1906998.82600  25208514.62600                  -1412531.63740  25208520.93140
   6151200.81900  22855776.25100                   4847932.41340  22855780.77440
  -1698840.59100  23497709.54800                  -1284493.08240  23497714.35340
 96  9  5  1 17  0.0050000  0  6  1 14 15 22 25 29
  42427065.95100  26087709.47000                  33155200.31640  26087715.75140
  -4462132.40900  22842954.43800                  -3439107.09840  22842959.94640
   7539762.58900  23145350.68800                   5943519.64540  23145356.54840
  -1943608.46800  25201547.83700                  -1441058.53240  25201553.96640
   6258773.86500  22876246.93800                   4931755.56040  22876251.63840
  -1687295.19800  23499906.73500                  -1275496.63240  23499911.71640
 96  9  5  1 17 30.0050000  0  6  1 14 15 22 25 29
  42563338.14500  26113641.28200                  33261386.35440  26113647.24740
  -4465918.74200  22842234.04000                  -3442057.47340  22842239.59540
   7663227.16600  23168845.04800                   6039725.78340  23168850.90740
  -1980151.68500  25194594.11800                  -1469533.68840  25194600.32940
   6366738.26900  22896791.81300                   5015883.67040  22896796.25540
  -1675602.54800  23502131.74300                  -1266385.44840  23502136.33740
 96  9  5  1 18  0.0050000  0  6  1 14 15 22 25 29
  42699605.09500  26139572.20400                  33367568.40540  26139578.43840
  -4469403.58200  22841570.97800                  -3444772.91240  22841576.43840
   7787177.61600  23192432.13400                   6136310.51540  23192437.93540
  -2016603.70700  25187657.54800                  -1497937.78840  25187664.64240
   6475109.79300  22917414.34500                   5100329.00640  22917418.76340
  -1663739.78600  23504389.18100                  -1257141.70240  23504393.79840
 96  9  5  1 18 30.0050000  0  6  1 14 15 22 25 29
  42835839.05700  26165497.09500                  33473724.68940  26165502.38040
  -4472608.34200  22840961.02400                  -3447270.11640  22840966.50940
   7911588.56300  23216106.79800                   6233254.08640  23216112.77440
  -2052977.29900  25180735.49300                  -1526280.79140  25180742.55240
   6583891.08900  22938114.35300                   5185093.65340  22938118.88840
  -1651728.21500  23506674.72000                  -1247782.00440  23506679.56040
 96  9  5  1 19  0.0050000  0  6  1 14 15 22 25 29
  42972067.89900  26191419.64200                  33579876.98340  26191425.04440
  -4475517.29800  22840407.39900                  -3449536.82340  22840413.14240
   8036468.10200  23239870.49300                   6330562.77640  23239876.39940
  -2089255.85700  25173832.25100                  -1554549.70140  25173839.09540
   6693094.78900  22958895.54000                   5270187.44040  22958900.00540
  -1639550.56400  23508992.16500                  -1238292.90140  23508996.93540
 96  9  5  1 19 30.0050000  0  6  1 14 15 22 25 29
  43108330.06000  26217349.21200                  33686055.27540  26217355.08340
  -4478133.85700  22839909.37600                  -3451575.68340  22839914.87240
   8161816.32300  23263723.51700                   6428236.68740  23263729.49340
  -2125424.08200  25166949.07900                  -1582732.66040  25166955.31340
   6802705.29400  22979753.61800                   5355598.22440  22979757.94240
  -1627203.98900  23511341.50900                  -1228672.16540  23511346.19640
 96  9  5  1 20  0.0050000  0  6  1 14 15 22 25 29
  43244608.82000  26243282.89200                  33792246.49840  26243289.25540
  -4480484.46100  22839462.22000                  -3453407.30940  22839467.68140
   8287614.38100  23287662.27400                   6526261.11740  23287668.11040
  -2161488.90700  25160086.57100                  -1610835.08040  25160092.59540
   6912704.49900  23000685.73500                   5441311.89040  23000689.91940
  -1614711.80500  23513718.57900                  -1218937.96840  23513723.32540
 96  9  5  1 20 30.0060000  0  6  1 14 15 22 25 29
  43380896.11100  26269216.77900                  33898444.35040  26269224.37740
  -4482562.93200  22839066.59200                  -3455026.88340  22839072.07640
   8413864.96900  23311686.67000                   6624638.17740  23311692.77540
  -2197450.66100  25153243.38100                  -1638857.09840  25153251.40040
   7023084.38700  23021690.33400                   5527322.18640  23021694.69340
  -1602073.99100  23516123.42000                  -1209090.29140  23516128.26040
 96  9  5  1 21  0.0060000  0  6  1 14 15 22 25 29
  43517205.71500  26295156.81100                  34004659.65440  26295163.61940
  -4484350.02300  22838726.49000                  -3456419.40440  22838731.85740
   8540575.85400  23335799.07600                   6723373.90640  23335805.04140
  -2233291.58500  25146423.12300                  -1666785.04240  25146430.67440
   7133830.32400  23042764.63900                   5613617.71740  23042768.93940
  -1589270.43900  23518559.73200                  -1199113.47640  23518564.46740
 96  9  5  1 21 30.0060000  0  6  1 14 15 22 25 29
  43653516.22700  26321094.41200                  34110875.61740  26321102.16240
  -4485850.13800  22838441.07600                  -3457588.31540  22838446.46740
   8667739.75900  23359997.59200                   6822462.63140  23360003.51040
  -2269024.94900  25139623.06800                  -1694629.18140  25139629.42040
   7244939.74700  23063908.16200                   5700196.48540  23063912.56840
  -1576320.14400  23521024.26400                  -1189022.30540  23521029.04540
 96  9  5  1 22  0.0060000  0  6  1 14 15 22 25 29
  43789799.00500  26347028.92000                  34217069.92440  26347035.28340
  -4487054.79200  22838211.94300                  -3458526.99240  22838217.28740
   8795351.40900  23384281.35700                   6921900.24940  23384287.29940
  -2304655.27400  25132842.70100                  -1722392.96340  25132848.79540
   7356429.13400  23085123.63900                   5787071.32540  23085128.03340
  -1563238.58400  23523513.60700                  -1178828.85140  23523518.20140
 96  9  5  1 22 30.0060000  0  6  1 14 15 22 25 29
  43926048.40400  26372956.17000                  34323238.31140  26372962.52140
  -4487942.11800  22838043.12300                  -3459218.40540  22838048.59640
   8923411.91200  23408650.77100                   7021687.63040  23408656.56140
  -2340178.21200  25126082.22500                  -1750073.13140  25126088.68240
   7468311.32400  23106414.31100                   5874252.24740  23106418.75240
  -1550018.31900  23526029.19300                  -1168527.32740  23526033.89340
 96  9  5  1 23  0.0060000  0  6  1 14 15 22 25 29
  44062280.84800  26398880.70900                  34429393.43940  26398886.86140
  -4488514.63200  22837934.02900                  -3459664.50740  22837939.39640
   9051922.82300  23433105.27900                   7121825.96940  23433111.09240
  -2375593.92000  25119343.36500                  -1777669.70640  25119349.76440
   7580601.81600  23127782.18600                   5961751.33040  23127786.82640
  -1536651.01600  23528572.96700                  -1158111.22040  23528577.56140
 96  9  5  1 23 30.0060000  0  6  1 14 15 22 25 29
  44198483.08500  26424799.20100                  34535525.00140  26424805.37740
  -4488771.28000  22837885.15400                  -3459864.48440  22837890.48640
   9180874.04500  23457643.95900                   7222307.41240  23457649.87740
  -2410904.07100  25112623.56800                  -1805184.07040  25112629.48640
   7693301.17500  23149228.33400                   6049569.00240  23149232.90440
  -1523155.34300  23531141.09200                  -1147595.09140  23531145.93240
 96  9  5  1 24  0.0060000  0  6  1 14 15 22 25 29
  44334666.50700  26450713.90400                  34641641.97240  26450721.43240
  -4488708.30800  22837897.10000                  -3459815.40140  22837902.65440
   9310269.89200  23482267.32600                   7323135.31140  23482273.26840
  -2446086.36900  25105929.05300                  -1832598.76140  25105934.99440
   7806404.09600  23170751.04500                   6137701.14640  23170755.59240
  -1509510.92900  23533737.64600                  -1136963.05540  23533742.38140
 96  9  5  1 24 30.0060000  0  6  1 14 15 22 25 29
  44470835.52900  26476626.18600                  34747747.66340  26476632.25640
  -4488342.83600  22837966.73200                  -3459530.60740  22837972.15840
   9440096.60800  23506972.32600                   7424298.95640  23506978.32640
  -2481145.49600  25099257.10000                  -1859917.48040  25099264.12340
   7919876.13900  23192344.19300                   6226120.91140  23192348.86940
  -1495709.07900  23536363.79500                  -1126208.34540  23536368.55340
 96  9  5  1 25  0.0060000  0  6  1 14 15 22 25 29
  44607004.79700  26502538.22500                  34853853.58140  26502545.05740
  -4487679.32100  22838092.95100                  -3459013.56540  22838098.40040
   9570351.32200  23531759.11500                   7525796.09740  23531764.96340
  -2516077.36600  25092609.81800                  -1887137.02540  25092615.73640
   8033708.26000  23214005.60700                   6314821.26540  23214010.10740
  -1481742.91400  23539021.64600                  -1115325.59440  23539026.18240
 96  9  5  1 25 30.0060000  0  6  1 14 15 22 25 29
  44743165.83100  26528448.13100                  34959953.17140  26528453.10040
  -4486702.67400  22838278.98200                  -3458252.52840  22838284.27940
   9701033.95100  23556627.29500                   7627626.69240  23556633.34240
  -2550862.03700  25085991.29500                  -1914241.87540  25085997.47140
   8147890.42400  23235734.04500                   6403794.37440  23235738.40440
  -1467609.24500  23541711.27100                  -1104312.32240  23541715.83040
 96  9  5  1 26  0.0060000  0  6  1 14 15 22 25 29
  44879317.78100  26554358.89600
  -4485419.44800  22838523.10000                  -3457252.60140  22838528.36140
   9832146.55500  23581577.01400                   7729792.32340  23581582.92040
  -2585499.72900  25079398.99000                  -1941232.21740  25079404.76840
   8262419.72100  23257528.24800                   6493037.97340  23257532.67840
  -1453283.69300  23544436.88100                  -1093149.53840  23544441.70940
 96  9  5  1 26 30.0060000  0  5 14 15 22 25 29
  -4483825.32800  22838826.34200                  -3456010.41240  22838831.75640
   9963686.10600  23606608.24000                   7832290.64040  23606614.14640
  -2620004.26600  25072832.92800                  -1968118.78840  25072838.97540
   8377298.13900  23279388.78700                   6582553.62040  23279393.08840
  -1438781.00400  23547196.88900                  -1081848.72340  23547201.64640
 96  9  5  1 27  0.0060000  0  5 14 15 22 25 29
  -4481912.30000  22839190.17800                  -3454519.72040  22839195.74440
  10095648.43500  23631719.81100                   7935118.40140  23631725.65840
  -2654369.20800  25066293.47500                  -1994896.56440  25066299.26440
   8492527.05400  23301316.04500                   6672342.37840  23301320.36940
  -1424128.18800  23549985.18600                  -1070430.92840  23549989.99040
 96  9  5  1 27 30.0060000  0  5 14 15 22 25 29
  -4479672.87600  22839616.35000                  -3452774.70240  22839621.71740
  10228041.22600  23656913.67000                   8038281.57440  23656919.70540
  -2688581.79800  25059783.80300                  -2021555.68640  25059789.46340
   8608112.33200  23323311.29500                   6762408.82040  23323315.50240
  -1409323.51000  23552802.48200                  -1058894.79040  23552807.14640
 96  9  5  1 28  0.0060000  0  5 14 15 22 25 29
  -4477122.04500  22840101.85700                  -3450787.02740  22840107.33040
  10360851.16600  23682186.37300                   8141769.80940  23682192.20940
  -2722649.89400  25053300.45100                  -2048102.17140  25053306.21740
   8724041.36100  23345371.84200                   6852743.12240  23345376.27140
  -1394380.95300  23555645.87300                  -1047251.22140  23555650.70140
 96  9  5  1 28 30.0060000  0  5 14 15 22 25 29
  -4474255.30800  22840647.09200                  -3448553.19340  22840652.69340
  10494068.17700  23707537.02900                   8245575.23940  23707542.83040
  -2756560.11900  25046847.35700                  -2074525.65940  25046853.54540
   8840310.88600  23367497.17800                   6943342.74940  23367501.49040
  -1379321.68300  23558511.42800                  -1035516.70640  23558516.26840
 96  9  5  1 29  0.0060000  0  5 14 15 22 25 29
  -4471058.48900  22841255.64600                  -3446062.15140  22841261.04940
  10627703.42400  23732966.62300                   8349706.56640  23732972.57640
  -2790278.92400  25040430.27100                  -2100799.98740  25040436.56440
   8956938.19100  23389690.56100                   7034221.15940  23389694.96740
  -1364110.69900  23561405.98200                  -1023663.97740  23561410.63540
 96  9  5  1 29 30.0060000  0  5 14 15 22 25 29
  -4467557.32800  22841921.97500                  -3443333.96340  22841927.31840
  10761731.75500  23758471.56100                   8454144.19140  23758477.64340
  -2823827.57200  25034046.28700                  -2126941.71240  25034052.33440
   9073902.26800  23411948.14600                   7125361.99540  23411952.52940
  -1348746.69300  23564329.56100                  -1011692.00640  23564334.14340
 96  9  5  1 30  0.0060000  0  5 14 15 22 25 29
  -4463725.00000  22842650.99000                  -3440347.71840  22842656.38140
  10896160.32600  23784052.34200                   8558893.68740  23784058.27140
  -2857198.49200  25027695.74800                  -2152944.97540  25027702.08840
   9191225.33200  23434273.67000                   7216782.56540  23434277.87740
  -1333216.78000  23567285.19300                   -999590.75640  23567289.84640
 96  9  5  1 30 30.0060000  0  5 14 15 22 25 29
  -4459546.63900  22843446.28700                  -3437091.83940  22843451.76040
  11030992.99400  23809710.05300                   8663958.06340  23809715.97140
  -2890391.35000  25021380.00600                  -2178809.44440  25021386.49840
   9308917.02900  23456669.88900                   7308490.37240  23456674.45940
  -1317519.63300  23570271.95100                   -987359.18740  23570276.73240
 96  9  5  1 31  0.0060000  0  5 14 15 22 25 29
  -4455025.82300  22844306.41200                  -3433569.11440  22844311.82640
  11166223.77400  23835443.98200                   8769332.66640  23835450.04140
  -2923418.48800  25015094.35000                  -2204544.81040  25015100.60740
   9426969.52600  23479134.57600                   7400479.32440  23479139.12340
  -1301662.04600  23573289.55300                   -975002.61040  23573294.17040
 96  9  5  1 31 30.0060000  0  5 14 15 22 25 29
  -4450172.95000  22845229.76400                  -3429787.63740  22845235.24840
  11301838.28400  23861250.40400                   8875006.26640  23861256.28740
  -2956301.78100  25008837.39600                  -2230168.06340  25008843.88940
   9545364.64700  23501664.53700                   7492735.26540  23501668.94340
  -1285680.19200  23576331.01400                   -962549.20140  23576335.74840
 96  9  5  1 32  0.0060000  0  5 14 15 22 25 29
  -4444978.40900  22846218.57600                  -3425739.92840  22846223.97840
  11437838.81300  23887130.77100                   8980980.66240  23887136.61940
  -2989032.36200  25002608.99000                  -2255672.34940  25002614.85040
   9664105.88600  23524259.97500                   7585260.90340  23524264.52140
  -1269582.65000  23579393.87300                   -950005.64640  23579398.44340
 96  9  5  1 32 30.0060000  0  5 14 15 22 25 29
  -4439461.43500  22847268.38100                  -3421440.97140  22847273.60740
  11574219.39000  23913082.72500                   9087251.20340  23913088.51440
  -3021596.54300  24996412.03700                  -2281046.96340  24996417.99040
   9783176.45100  23546918.20100                   7678043.15640  23546922.64340
  -1253368.98700  23582479.38100                   -937371.59640  23582484.17440
 96  9  5  1 33  0.0060000  0  5 14 15 22 25 29
  -4433605.85500  22848382.58400                  -3416878.16240  22848387.97540
  11710992.93800  23939109.85700                   9193827.95540  23939115.85740
  -3053970.79500  24990251.27100                  -2306273.59140  24990257.69340
   9902588.83100  23569641.84200                   7771091.75840  23569646.43640
  -1237008.15200  23585592.92000                   -924622.87940  23585597.38540
 96  9  5  1 33 30.0060000  0  5 14 15 22 25 29
  -4427414.12900  22849560.81100                  -3412053.42440  22849566.08440
  11848145.10400  23965209.13100                   9300699.73740  23965215.09640
  -3086156.66000  24984126.52100                  -2331353.39040  24984132.61540
  10022324.29600  23592426.88900                   7864392.11840  23592431.18940
  -1220489.91700  23588736.24800                   -911751.49940  23588740.86540
 96  9  5  1 34  0.0070000  0  5 14 15 22 25 29
  -4420881.59100  22850804.06500                  -3406963.12440  22850809.42140
  11985673.35200  23991379.94800                   9407864.56740  23991386.01940
  -3118148.91400  24978038.76100                  -2356282.34140  24978044.63240
  10142388.25800  23615274.20600                   7957948.45940  23615278.81140
  -1203797.32200  23591912.49500                   -898744.26340  23591917.11240
 96  9  5  1 34 30.0070000  0  5 14 15 22 25 29
  -4414014.81100  22852110.69000                  -3401612.37040  22852116.16340
  12123556.22100  24017618.53400                   9515305.72440  24017624.65140
  -3149951.94600  24971987.05000                  -2381063.84640  24971992.75740
  10262756.95800  23638179.62000                   8051742.24840  23638184.07340
  -1186937.31800  23595120.97900                   -885606.57040  23595125.45640
 96  9  5  1 35  0.0070000  0  5 14 15 22 25 29
  -4406778.30700  22853487.85400                  -3395973.52940  22853493.15140
  12261820.52600  24043929.37800                   9623044.10740  24043935.22640
  -3181544.24600  24965974.91700                  -2405681.14440  24965980.78840
  10383457.00800  23661147.92500                   8145794.23740  23661152.31940
  -1169896.17000  23598363.83100                   -872327.73440  23598368.46040
 96  9  5  1 35 30.0070000  0  5 14 15 22 25 29
  -4399196.94400  22854930.40900                  -3390065.95940  22854935.78840
  12400439.16400  24070307.69800                   9731058.58840  24070313.59340
  -3212952.99600  24959998.14400                  -2430155.42340  24960004.23740
  10504470.68600  23684176.38600                   8240090.60940  23684180.88640
  -1152709.13600  23601634.26100                   -858935.22140  23601638.85440
 96  9  5  1 36  0.0070000  0  5 14 15 22 25 29
  -4391258.93900  22856440.95600                  -3383880.49240  22856446.34740
  12539427.17700  24096756.11200                   9839360.90440  24096762.12440
  -3244164.70400  24954058.56500                  -2454476.15540  24954064.23740
  10625822.16800  23707268.47200                   8334650.20340  23707273.10140
  -1135373.74200  23604933.05800                   -845427.09840  23604937.58140
 96  9  5  1 36 30.0070000  0  5 14 15 22 25 29
  -4382982.71000  22858015.82300                  -3377431.47140  22858021.06140
  12678769.01000  24123271.80800                   9947938.91740  24123277.81940
  -3275185.79500  24948155.00300                  -2478648.35640  24948160.97940
  10747489.37400  23730421.20600                   8429455.81740  23730425.56540
  -1117908.95700  23608256.39400                   -831818.14740  23608260.78840
 96  9  5  1 37  0.0070000  0  5 14 15 22 25 29
  -4374373.06000  22859654.26100                  -3370722.64640  22859659.45240
  12818459.65800  24149854.14400                  10056788.72640  24149860.02640
  -3306019.23600  24942287.60400                  -2502674.33140  24942293.75740
  10869478.46700  23753634.80000                   8524512.24740  23753639.17140
  -1100304.76700  23611606.49500                   -818100.57240  23611611.03040
 96  9  5  1 37 30.0070000  0  5 14 15 22 25 29
  -4365413.48700  22861359.02600                  -3363741.15540  22861364.38240
  12958514.87700  24176505.98700                  10165922.62740  24176511.81140
  -3336642.74300  24936459.87000                  -2526536.73340  24936466.29240
  10991805.93300  23776912.97200                   8619832.35140  23776917.35440
  -1082535.04700  23614987.87000                   -804254.01240  23614992.31140
 96  9  5  1 38  0.0070000  0  5 14 15 22 25 29
  -4356116.92100  22863128.02600                  -3356497.06640  22863133.49940
  13098917.06300  24203223.75300                  10275326.89040  24203229.53040
  -3367052.11400  24930673.35400                  -2550232.26140  24930678.93340
  11114434.57400  23800248.46400                   8715387.13840  23800253.04640
  -1064615.38200  23618398.05800                   -790290.61040  23618402.55840
 96  9  5  1 38 30.0070000  0  5 14 15 22 25 29
  -4346468.03100  22864964.25300                  -3348978.44740  22864969.67940
  13239671.98800  24230008.54200                  10385006.01240  24230014.42540
  -3397230.91100  24924930.12800                  -2573748.15140  24924936.63240
  11237363.43300  23823640.98700                   8811175.85340  23823645.46440
  -1046546.05400  23621836.27600                   -776210.58840  23621840.87040
 96  9  5  1 39  0.0070000  0  5 14 15 22 25 29
  -4336469.02400  22866867.12800                  -3341187.00840  22866872.48340
  13380757.36700  24256856.37800                  10494942.62040  24256861.96840
  -3427194.34900  24919228.40100                  -2597096.20740  24919234.36640
  11360561.29100  23847084.71400                   8907174.18340  23847089.41340
  -1028360.43000  23625296.97200                   -762039.94040  23625301.10840
 96  9  5  1 39 30.0070000  0  5 14 15 22 25 29
  -4326100.11500  22868840.20600                  -3333107.33640  22868845.55040
  13522175.41400  24283766.98700                  10605138.46840  24283772.88240
  -3456925.18800  24913570.88600                  -2620263.01740  24913577.34340
  11484019.05600  23870577.99500                   9003375.03740  23870582.68340
  -1010065.87700  23628778.01900                   -747784.41740  23628782.69440
 96  9  5  1 40  0.0070000  0  5 14 15 22 25 29
  -4315350.29600  22870885.87800                  -3324730.84540  22870891.19840
  13663917.18300  24310739.44800                  10715586.56240  24310745.40140
  -3486421.19800  24907958.26100                  -2643246.85640  24907964.08540
  11607741.50000  23894121.62800                   9099782.14440  23894126.31540
   -991661.14800  23632280.53400                   -733443.04140  23632284.92940
 96  9  5  1 40 30.0070000  0  5 14 15 22 25 29
  -4304212.38200  22873005.30800                  -3316051.94940  22873010.53440
  13805982.74300  24337774.10400                  10826286.95340  24337780.09340
  -3515684.84300  24902389.78400                  -2666049.60840  24902395.93640
  11731750.37600  23917719.64400                   9196412.43840  23917724.43640
   -973132.13700  23635806.39400                   -719004.81640  23635811.08140
 96  9  5  1 41  0.0070000  0  5 14 15 22 25 29
  -4292691.97000  22875197.58900                  -3307074.99840  22875202.96840
  13948374.28700  24364869.94000                  10937241.37240  24364875.84740
  -3544706.60600  24896866.00300                  -2688663.90640  24896872.15540
  11856055.15300  23941374.16700                   9293273.30540  23941379.04240
   -954455.83400  23639360.53400                   -704451.82740  23639365.11640
 96  9  5  1 41 30.0070000  0  6 14 15 18 22 25 29
  -4280804.82200  22877459.69800                  -3297812.27940  22877464.96040
  14091089.64000  24392027.96400                  11048448.09140  24392033.89440
    -14561.86910  26942936.26900
  -3573494.85200  24891388.04200                  -2711096.21940  24891393.97240
  11980681.27000  23965089.72900                   9390384.56040  23965094.41740
   -935619.64300  23642945.01100                   -689774.24840  23642949.34740
 96  9  5  1 42  0.0070000  0  6 14 15 18 22 25 29
  -4268569.11100  22879787.88600                  -3288277.95940  22879793.24140
  14234116.95800  24419245.26900                  11159897.91140  24419251.24540
    -40266.70700  26938043.70600
  -3602071.64600  24885949.82300                  -2733363.79540  24885955.91740
  12105620.48500  23988864.83900                   9487739.79040  23988869.38640
   -916625.62900  23646559.32300                   -674973.69540  23646563.60140
 96  9  5  1 42 30.0070000  0  6 14 15 18 22 25 29
  -4255983.91900  22882182.82300                  -3278471.30640  22882188.20240
  14377467.22300  24446523.83100                  11271599.37640  24446529.39740
    -65960.01400  26933156.19000                      -666.58650  26933162.91740
  -3630427.15800  24880553.90100                  -2755458.93640  24880559.78440
  12230871.37100  24012699.31500                   9585337.88240  24012703.81540
   -897477.60000  23650202.96400                   -660053.13140  23650207.32340
 96  9  5  1 43  0.0070000  0  6 14 15 18 22 25 29
  -4243045.36000  22884644.96400                  -3268389.30640  22884650.26140
  14521136.08800  24473863.03400                  11383549.10240  24473868.99940
    -91629.66100  26928270.70600                    -20668.83640  26928276.96440
  -3658560.89900  24875200.69800                  -2777381.24740  24875206.53440
  12356427.20700  24036591.88600                   9683173.58640  24036596.15140
   -878182.74900  23653874.49500                   -645018.16540  23653878.98340
 96  9  5  1 43 30.0070000  0  6 14 15 18 22 25 29
  -4229739.60600  22887176.79200                  -3258021.17440  22887182.06540
  14665110.44300  24501260.35400                  11495736.85540  24501266.33140
   -117283.02300  26923388.72900                    -40658.38140  26923394.94040
  -3686477.44000  24869888.44800                  -2799134.32540  24869894.03840
  12482269.10300  24060538.61200                   9781232.20240  24060543.22940
   -858745.91900  23657573.08900                   -629872.56440  23657577.34340
 96  9  5  1 44  0.0070000  0  6 14 15 18 22 25 29
  -4216051.21100  22889781.66700                  -3247354.87740  22889786.87040
  14809388.25400  24528715.71400                  11608161.07240  24528721.64440
   -142920.01800  26918510.08900                    -60635.20540  26918515.70240
  -3714161.29300  24864619.74500                  -2820706.09740  24864625.75740
  12608377.33200  24084536.59700                   9879498.34340  24084540.94440
   -839165.92400  23661299.26900                   -614615.41040  23661303.65140
 96  9  5  1 44 30.0070000  0  6 14 15 18 22 25 29
  -4201980.47600  22892459.26100                  -3236390.65140  22892464.65140
  14953956.67300  24556226.12000                  11720811.75440  24556231.83940
   -168539.78600  26913635.12800                    -80598.60040  26913641.01140
  -3741606.24800  24859397.47900                  -2842091.69440  24859403.31540
  12734744.46700  24108583.19000                   9977966.23240  24108587.51540
   -819459.82800  23665049.33900                   -599259.99640  23665053.69840
 96  9  5  1 45  0.0070000  0  6 14 15 18 22 25 29
  -4187500.29600  22895214.76100                  -3225107.38240  22895220.01140
  15098820.78500  24583793.24500                  11833692.82740  24583799.19840
   -194141.75200  26908763.11200                   -100548.11240  26908769.32340
  -3768803.64300  24854221.53400                  -2863284.40940  24854227.45240
  12861382.38700  24132681.62000                  10076645.12240  24132686.17940
   -799607.49100  23668826.92500                   -583790.63040  23668831.43640
 96  9  5  1 45 30.0070000  0  6 14 15 18 22 25 29
  -4172603.21000  22898049.61200                  -3213499.24540  22898054.92140
  15243984.84700  24611417.07300                  11946807.63340  24611423.13240
   -219729.15300  26903893.52600                   -120486.29440  26903900.80840
  -3795747.24900  24849094.20600                  -2884279.35240  24849100.38240
  12988288.16300  24156831.12800                  10175532.73240  24156835.49940
   -779613.95600  23672631.69000                   -568211.23940  23672636.08540
 96  9  5  1 46  0.0070000  0  6 14 15 18 22 25 29
  -4157311.34500  22900959.45600                  -3201583.48840  22900964.88240
  15389435.58600  24639095.30000                  12060145.83240  24639101.07740
   -245311.10300  26899025.76900                   -140420.15440  26899030.70240
  -3822445.43600  24844013.82300                  -2905083.06140  24844019.75340
  13115454.05800  24181029.76100                  10274623.03640  24181034.74140
   -759509.75700  23676457.30800                   -552545.62040  23676461.76140
 96  9  5  1 46 30.0070000  0  6 14 15 18 22 25 29
  -4141613.61300  22903946.63600                  -3189351.47540  22903951.85140
  15535182.68000  24666830.22200                  12173714.93840  24666836.40940
   -270876.31100  26894160.31500                   -160341.08540  26894168.83940
  -3848875.94100  24838984.15900                  -2925678.20040  24838990.11240
  13242893.95400  24205280.84700                  10373926.84140  24205285.46440
   -739293.09800  23680304.48700                   -536792.36840  23680309.04640
 96  9  5  1 47  0.0070000  0  6 14 15 18 22 25 29
  -4125532.96800  22907006.64400                  -3176821.08640  22907011.96440
  15681208.15500  24694617.97900                  12287500.97540  24694623.99140
   -296442.04800  26889294.10400                   -180262.26640  26889300.35140
  -3875042.60400  24834005.14400                  -2946067.75040  24834011.24940
  13370585.83000  24229579.92500                  10473426.99940  24229584.53040
   -718976.25800  23684170.34700                   -520961.06240  23684174.98740
 96  9  5  1 47 30.0080000  0  6 14 15 18 22 25 29
  -4109083.48800  22910136.89100                  -3164003.29640  22910142.16440
  15827515.76000  24722459.18700                  12401506.86240  24722465.17640
   -322000.33300  26884431.93700                   -200177.73940  26884441.08240
  -3900925.35800  24829079.53100                  -2966236.06340  24829085.07440
  13498533.27500  24253927.65600                  10573126.30740  24253932.15640
   -698551.92900  23688057.14100                   -505045.99840  23688061.85240
 96  9  5  1 48  0.0080000  0  6 14 15 18 22 25 29
  -4092261.27700  22913338.12500                  -3150895.07040  22913343.51640
  15974099.34300  24750353.06200                  12515727.78140  24750359.36740
                  26879569.26600
  -3926499.47600  24824213.33600                  -2986163.88640  24824219.46540
  13626738.36300  24278324.16400                  10673026.36940  24278328.67640
   -677989.48700  23691970.10900                   -489023.31340  23691974.57440
 96  9  5  1 48 30.0080000  0  6 14 15 18 22 25 29
  -4075052.94100  22916612.85900                  -3137485.96540  22916618.06240
  16120962.40800  24778300.31200                  12630166.47640  24778306.26640
    -24696.58400  26874707.66400
  -3951773.35400  24819403.57800                  -3005857.75740  24819409.41440
  13755210.40800  24302771.45300                  10773134.45240  24302775.98840
   -657267.61900  23695913.21100                   -472876.39240  23695917.84040
 96  9  5  1 49  0.0080000  0  6 14 15 18 22 25 29
  -4057466.47500  22919959.35900                  -3123782.21240  22919964.66840
  16268096.99700  24806299.25800                  12744816.75540  24806305.52740
    -50232.94500  26869848.60900
  -3976764.91800  24814647.55500                  -3025331.63440  24814653.29740
  13883940.38900  24327267.59400                  10873443.52540  24327272.01240
   -636370.72100  23699889.76600                   -456593.08240  23699894.25440
 96  9  5  1 49 30.0080000  0  6 14 15 18 22 25 29
  -4039491.51400  22923379.71900                  -3109775.73640  22923384.99240
  16415499.32100  24834349.19500                  12859675.65340  24834355.30140
    -75764.07400  26864989.90600                     -8620.43150  26864995.14440
  -4001485.20600  24809943.46900                  -3044594.14040  24809949.41040
  14012924.81500  24351812.46100                  10973950.87040  24351817.19540
   -615292.82400  23703900.75000                   -440168.73140  23703905.27340
 96  9  5  1 50  0.0080000  0  6 14 15 18 22 25 29
  -4021115.29200  22926876.71900                  -3095456.59140  22926881.98040
  16563162.76800  24862448.50000                  12974738.02340  24862454.53540
   -101287.20600  26860133.10900                    -28508.54540  26860139.02740
  -4025948.27400  24805288.24200                  -3063656.21140  24805294.13740
  14142155.44500  24376404.41400                  11074650.05740  24376409.07840
   -594051.15600  23707943.01600                   -423616.77140  23707947.45740
 96  9  5  1 50 30.0080000  0  6 14 15 18 22 25 29
  -4002327.29800  22930451.91400                  -3080816.58640  22930457.05940
  16711086.08400  24890597.35900                  13090002.89440  24890603.44140
   -126776.04400  26855282.39800                    -48369.92340  26855289.12540
  -4050153.01400  24800682.28100                  -3082516.97940  24800688.44540
  14271633.10500  24401043.37500                  11175541.74540  24401047.93440
   -572669.57000  23712011.68700                   -406955.77940  23712016.26940
 96  9  5  1 51  0.0080000  0  6 14 15 18 22 25 29
  -3983125.33100  22934105.92200                  -3065854.00840  22934111.21940
  16859267.87800  24918795.32800                  13205469.17940  24918801.46940
   -152229.78700  26850438.70300                    -68203.90940  26850444.87940
  -4074076.06000  24796130.10200                  -3101158.25740  24796136.17240
  14401346.65500  24425726.94500                  11276617.23840  24425731.69140
   -551155.16400  23716105.84400                   -390191.29340  23716110.16840
 96  9  5  1 51 30.0080000  0  6 14 15 18 22 25 29
  -3963493.63000  22937841.60900                  -3050556.57540  22937846.85940
  17007707.45800  24947042.72700                  13321136.32640  24947048.73840
   -177660.61400  26845598.98400                    -88020.09340  26845604.71540
  -4097704.50300  24791633.33600                  -3119569.97540  24791639.46540
  14531304.80800  24450457.63300                  11377883.33340  24450462.27340
   -529512.84000  23720224.17200                   -373327.12540  23720228.80140
 96  9  5  1 52  0.0080000  0  6 14 15 18 22 25 29
  -3943439.29500  22941657.98400                  -3034929.81640  22941663.31640
  17156399.89300  24975337.83600                  13437000.51240  24975344.03540
   -203073.36800  26840763.09400                   -107822.18740  26840769.21140
  -4121034.87900  24787194.02300                  -3137749.42840  24787199.91840
  14661510.13700  24475234.50800                  11479342.03040  24475239.23040
   -507746.03200  23724366.14800                   -356365.95940  23724370.60240
 96  9  5  1 52 30.0080000  0  6 14 15 18 22 25 29
  -3922966.33300  22945553.78100                  -3018976.85440  22945558.97340
  17305343.46500  25003680.93000                  13553060.37540  25003686.84840
   -228480.81600  26835928.43000                   -127620.09340  26835934.61740
  -4144062.10600  24782811.53100                  -3155692.68240  24782817.43740
  14791949.86600  24500056.39100                  11580983.37840  24500061.07840
   -485835.96600  23728535.69500                   -339293.16040  23728540.20740
 96  9  5  1 53  0.0080000  0  6 14 15 18 22 25 29
  -3902097.74100  22949524.79700                  -3002715.60740  22949530.09440
  17454526.37100  25032069.37500                  13669306.74240  25032075.26940
   -253914.84800  26831088.35200                   -147438.75240  26831094.51640
  -4166790.69800  24778486.31200                  -3173403.22140  24778492.65240
  14922604.88800  24524919.60200                  11682792.49240  24524923.98440
   -463780.77600  23732732.71900                   -322107.28440  23732737.11340
 96  9  5  1 53 30.0080000  0  6 14 15 18 22 25 29
  -3880834.43400  22953571.03100                  -2986146.78840  22953576.34040
  17603954.77700  25060504.71900                  13785744.39940  25060510.84840
   -279366.23900  26826244.62500                   -167270.95340  26826249.51240
  -4189212.88000  24774219.74200                  -3190874.99440  24774225.66040
  15053491.39200  24549826.22700                  11784781.98040  24549830.60940
   -441570.89600  23736958.94500                   -304800.87040  23736963.32840
 96  9  5  1 54  0.0080000  0  6 14 15 18 22 25 29
  -3859194.21600  22957689.11700                  -2969284.28040  22957694.43740
  17753607.15500  25088982.41400                  13902356.59340  25088988.68440
   -304837.58500  26821397.75000                   -187118.70140  26821404.35940
  -4211342.29900  24770008.76600                  -3208118.63640  24770014.69540
  15184578.05400  24574771.09400                  11886927.42340  24574775.80540
   -419232.00600  23741209.70300                   -287393.91940  23741214.06240
 96  9  5  1 54 30.0080000  0  6 14 15 18 22 25 29
  -3837150.18000  22961883.96900                  -2952107.10740  22961889.20740
  17903497.71000  25117506.07000                  14019154.36740  25117512.53940
   -330299.91700  26816552.57800                   -206959.37940  26816558.30940
  -4233145.79700  24765859.66400                  -3225108.32740  24765865.78140
  15315885.57000  24599758.16400                  11989244.96740  24599762.68740
   -396752.81900  23745487.39800                   -269877.64640  23745491.91040
 96  9  5  1 55  0.0080000  0  6 14 15 18 22 25 29
  -3814679.27800  22966160.14800                  -2934597.31340  22966165.60940
  18053635.41100  25146076.39800                  14136144.73540  25146082.60940
   -355727.22900  26811713.10200                   -226772.80040  26811718.68040
  -4254601.96100  24761776.56200                  -3241827.35640  24761782.56240
  15447464.84200  24624796.94500                  12091774.27540  24624801.34040
   -374125.44600  23749793.26600                   -252245.89240  23749797.33240
 96  9  5  1 55 30.0080000  0  6 14 15 18 22 25 29
  -3791773.56100  22970518.96100                  -2916748.69240  22970524.36340
  18204003.78800  25174690.52300                  14253314.82840  25174696.47740
   -381113.73500  26806883.27300                   -246554.46140  26806890.49640
  -4275733.14200  24757755.66400                  -3258293.16840  24757761.28940
  15579314.89000  24649887.14800                  12194514.56640  24649891.94140
   -351359.09200  23754125.59400                   -234505.88840  23754129.95340
 96  9  5  1 56  0.0080000  0  6 14 15 18 22 25 29
  -3768413.07300  22974964.22700                  -2898545.71140  22974969.60540
  18354602.66200  25203348.72700                  14370664.54740  25203354.44540
   -406454.85100  26802060.45300                   -266300.76140  26802065.28140
  -4296537.92200  24753796.48400                  -3274504.62940  24753802.34440
  15711436.92700  24675028.86700                  12297466.80240  24675033.46140
   -328452.93100  23758484.42200                   -216656.89540  23758488.79340
 96  9  5  1 56 30.0080000  0  6 14 15 18 22 25 29
  -3744633.60000  22979489.34400                  -2880016.24340  22979494.57040
  18505405.13000  25232045.24200                  14488172.90840  25232051.44140
   -431782.15000  26797240.96100                   -286036.26140  26797246.44540
  -4317043.82500  24749894.46100                  -3290483.20040  24749900.34440
  15843817.56600  24700220.14800                  12400620.55440  24700224.67240
   -305422.94200  23762866.80500                   -198711.42840  23762871.18740
 96  9  5  1 57  0.0080000  0  6 14 15 18 22 25 29
  -3720432.44900  22984094.72700                  -2861158.19940  22984099.95340
  18656412.95700  25260781.18000                  14605841.28340  25260787.19140
   -457097.37400  26792423.85200                   -305762.36440  26792429.84040
  -4337261.10800  24746046.95300                  -3306236.87840  24746052.80140
  15976438.51900  24725456.74200                  12503961.55340  24725461.48840
   -282256.43300  23767275.20300                   -180659.58540  23767279.58640
 96  9  5  1 57 30.0080000  0  6 14 15 18 22 25 29
  -3695809.94300  22988780.00800                  -2841971.82640  22988785.31640
  18807633.43800  25289557.69500                  14723675.36540  25289564.17640
   -482395.90000  26787609.13300                   -325475.41940  26787614.25440
  -4357173.38500  24742257.98400                  -3321752.89140  24742264.13740
  16109265.93500  24750733.53100                  12607463.43240  24750738.12540
   -258945.71000  23771711.18000                   -162495.36540  23771715.41040
 96  9  5  1 58  0.0080000  0  6 14 15 18 22 25 29
  -3670780.71700  22993542.96900                  -2822468.52740  22993548.30140
  18959061.13400  25318373.53900                  14841670.90540  25318379.84440
   -507692.88300  26782794.69500                   -345187.25840  26782800.08640
  -4376764.77500  24738529.55500                  -3337018.86940  24738535.12140
  16242281.18500  24776045.50800                  12711111.68640  24776049.50440
   -235496.51600  23776173.51600                   -144223.24740  23776177.86340
 96  9  5  1 58 30.0080000  0  6 14 15 18 22 25 29
  -3645345.85600  22998383.17200                  -2802649.14740  22998388.43440
  19110691.78300  25347227.82800                  14959824.60240  25347233.93440
   -532989.65900  26777982.23400                   -364898.92240  26777988.62140
  -4396026.91700  24734863.58600                  -3352028.27040  24734869.52740
  16375470.57000  24801390.57000                  12814895.62440  24801395.50440
   -211905.42300  23780662.68000                   -125840.56340  23780667.05140
 96  9  5  1 59  0.0080000  0  6 14 15 18 22 25 29
  -3619473.36700  23003306.50800                  -2782488.75940  23003311.74640
  19262541.50800  25376123.82000                  15078148.97340  25376129.83240
   -558268.52000  26773170.96100                   -384596.64440  26773178.35940
  -4414920.33300  24731268.78900                  -3366750.36140  24731274.67240
  16508841.23600  24826769.76600                  12918820.81340  24826774.51240
   -188151.73300  23785182.71900                   -107331.17940  23785187.07840
 96  9  5  1 59 30.0080000  0  6 14 15 18 22 25 29
  -3593179.16500  23008310.19500                  -2761999.76140  23008315.45740
  19414592.49900  25405058.50000                  15196630.20740  25405064.64140
   -583547.15700  26768360.71100                   -404294.23040  26768366.79340
  -4433444.84700  24727743.92200                  -3381184.99040  24727749.45340
  16642396.84100  24852184.91400                  13022890.12140  24852189.30940
   -164257.18600  23789729.84400                    -88712.03540  23789734.19140
 96  9  5  2  0  0.0080000  0  6 14 15 18 22 25 29
  -3566450.59800  23013396.32000                  -2741172.30440  23013401.46540
  19566837.35100  25434029.16400                  15315262.49140  25434035.43440
   -608828.75000  26763549.79700                   -423994.07540  26763555.50440
  -4451612.09700  24724286.57800                  -3395341.24540  24724292.13340
  16776148.69200  24877636.70300                  13127112.34140  24877641.19140
   -140230.82000  23794301.78100                    -69990.18040  23794306.01240
 96  9  5  2  0 30.0080000  0  6 14 15 18 22 25 29
  -3539278.04900  23018567.32000                  -2719998.88140  23018572.65240
  19719269.92100  25463036.75800                  15434041.03840  25463042.58240
   -634108.44100  26758738.85200                   -443692.43840  26758745.99240
  -4469426.36600  24720896.39100                  -3409222.45040  24720901.98040
  16910097.40300  24903126.88300                  13231487.96440  24903131.12540
   -116078.28500  23798897.85900                    -51170.01340  23798902.13740
 96  9  5  2  1  0.0080000  0  6 14 15 18 22 25 29
  -3511660.57000  23023822.48400                  -2698478.76040  23023827.74640
  19871893.47200  25492079.96900                  15552968.41940  25492085.96940
   -659372.47200  26753931.10200                   -463378.65340  26753937.78140
  -4486890.52600  24717572.82800                  -3422830.83640  24717578.89840
  17044261.18000  24928656.64800                  13336031.16440  24928661.21940
    -91790.68500  23803519.63300                    -32244.59240  23803524.05140
 96  9  5  2  1 30.0090000  0  6 14 15 18 22 25 29
  -3483601.61100  23029162.15300                  -2676614.62740  23029167.33340
  20024702.85200  25521158.42700                  15672040.58740  25521165.10640
   -684619.60800  26749126.39500                   -483051.68240  26749132.51340
  -4504027.17400  24714311.81000                  -3436184.01740  24714317.69240
  17178636.32400  24954227.85600                  13440739.08240  24954232.46240
    -67378.29300  23808165.30200                    -13221.93440  23808169.63840
 96  9  5  2  2  0.0090000  0  6 14 15 18 22 25 29
  -3455089.19600  23034587.97400                  -2654397.15140  23034593.13040
  20177683.32100  25550269.77800                  15791246.07940  25550275.62640
   -709836.49700  26744328.07500                   -502701.13640  26744333.77040
  -4520835.13600  24711113.20800                  -3449281.08440  24711119.11440
  17313203.29600  24979835.19200                  13545596.46240  24979839.81040
    -42829.95600  23812836.45800                      5906.65640  23812840.82940
 96  9  5  2  2 30.0090000  0  6 14 15 18 22 25 29
  -3426136.07600  23040097.27800                  -2631836.27640  23040102.54040
  20330837.18700  25579414.06000                  15910586.68140  25579420.94240
   -735026.80000  26739534.29400                   -522329.86940  26739540.28240
  -4537302.32600  24707979.58300                  -3462112.61440  24707985.54840
  17447960.76200  25005478.81000                  13650602.27440  25005482.92340
    -18132.76000  23817536.05200                     25151.23440  23817540.36440
 96  9  5  2  3  0.0090000  0  6 14 15 18 22 25 29
  -3396745.11700  23045690.20800                  -2608934.22340  23045695.47040
  20484163.23600  25608591.09900                  16030061.44440  25608597.04040
   -760199.35400  26734744.14500                   -541944.82240  26734750.95440
  -4553422.28800  24704912.23900                  -3474673.57440  24704918.35640
  17582906.97000  25031158.39500                  13755755.16540  25031162.97740
      6724.47300  23822266.23900                     44520.52140  23822270.56340
 96  9  5  2  3 30.0090000  0  6 14 15 18 22 25 29
  -3366906.33900  23051368.49700                  -2585683.22240  23051373.75940
  20637655.64900  25637799.88000                  16149665.85940  25637805.97440
   -785363.83300  26729955.62200                   -561553.37440  26729962.82140
  -4569181.73400  24701913.41100                  -3486953.61940  24701919.30640
  17718035.61100  25056871.98100                  13861050.21640  25056876.18840
     31735.55300  23827025.82500                     64009.68740  23827030.19640
 96  9  5  2  4  0.0090000  0  6 14 15 18 22 25 29
  -3336627.72400  23057130.18500                  -2562089.48940  23057135.43540
  20791307.63900  25667038.73900                  16269394.60840  25667045.33740
   -810532.90200  26725166.20000                   -581165.54840  26725173.39940
  -4584572.84900  24698984.62200                  -3498946.64340  24698990.56340
  17853342.96000  25082620.04400                  13966484.50740  25082624.54440
     56894.45000  23831813.38800                     83614.03640  23831817.75940
 96  9  5  2  4 30.0090000  0  6 14 15 18 22 25 29
  -3305916.09000  23062974.41900                  -2538158.33940  23062979.61040
  20945124.34400  25696309.07500                  16389251.69340  25696315.63840
   -835705.51600  26720375.48900                   -600780.50040  26720382.07540
  -4599594.98600  24696125.31000                  -3510652.15740  24696131.12240
  17988837.53900  25108404.22400                  14072064.70540  25108408.56040
     82196.67200  23836628.14500                    103330.06440  23836632.45840
 96  9  5  2  5  0.0090000  0  6 14 15 18 22 25 29
  -3274740.88000  23068906.82500                  -2513865.96540  23068912.04040
  21099109.85300  25725611.98900                  16509240.33340  25725618.23540
   -860866.27700  26715588.19200                   -620386.23640  26715594.68540
  -4614243.30200  24693338.26300                  -3522066.38040  24693344.31040
  18124529.96300  25134225.43500                  14177799.05540  25134229.89940
    107640.27800  23841469.96600                    123156.26140  23841474.39540
 96  9  5  2  5 30.0090000  0  6 14 15 18 22 25 29
  -3243096.80200  23074928.51300                  -2489208.23840  23074933.62240
  21253259.01800  25754945.34900                  16629356.47840  25754951.74740
   -886002.71100  26710804.48100                   -639972.99940  26710811.24340
  -4628521.47600  24690621.57500                  -3533192.18240  24690627.41140
  18260413.14200  25160082.60600                  14283682.05240  25160087.25940
    133215.61700  23846336.73900                    143085.11140  23846341.15740
 96  9  5  2  6  0.0090000  0  6 14 15 18 22 25 29
  -3210999.93300  23081036.41100                  -2464197.68640  23081041.59140
  21407556.45200  25784307.04400                  16749588.18540  25784313.20840
   -911123.56600  26706024.35600                   -659547.65140  26706030.47440
  -4642445.90400  24687971.56000                  -3544042.33840  24687977.50140
  18396460.77700  25185972.10600                  14389693.18840  25185976.46640
    158907.06500  23851225.81000                    163104.43340  23851230.05240
 96  9  5  2  6 30.0090000  0  6 14 15 18 22 25 29
  -3178431.40500  23087233.95000                  -2438819.61140  23087239.20040
  21562005.34000  25813698.28600                  16869937.87640  25813704.81340
   -936211.09600  26701249.97400                   -679096.33040  26701255.98540
  -4655999.54900  24685392.16100                  -3554603.57240  24685398.02040
  18532681.17400  25211893.74700                  14495838.94840  25211898.21240
    184726.82100  23856138.92700                    183223.73840  23856143.33340
 96  9  5  2  7  0.0090000  0  6 14 15 18 22 25 29
  -3145387.07800  23093522.03600                  -2413070.78240  23093527.29840
  21716596.39500  25843116.00500                  16990398.37640  25843122.18140
   -961266.19900  26696481.93500                   -698619.72740  26696487.12640
  -4669165.56300  24682887.12200                  -3564862.75540  24682893.09940
  18669068.76100  25237847.13000                  14602114.98340  25237851.85240
    210670.48700  23861076.06000                    203439.59840  23861080.32540
 96  9  5  2  7 30.0090000  0  6 14 15 18 22 25 29
  -3111891.97500  23099896.02800                  -2386970.70140  23099901.25540
  21871329.87700  25872560.51300                  17110969.82840  25872567.01740
   -986293.81500  26691719.23100                   -718121.70040  26691724.30640
  -4681937.47900  24680456.41100                  -3574814.85740  24680462.50540
  18805614.56000  25263831.26300                  14708514.31040  25263836.09140
    236743.67100  23866037.38000                    223756.37740  23866041.68140
 96  9  5  2  8  0.0090000  0  6 14 15 18 22 25 29
  -3077963.09400  23106352.45000                  -2360532.60940  23106357.72440
  22026200.61100  25902031.65300                  17231648.24040  25902038.01740
  -1011305.65000  26686960.47400                   -737611.42740  26686968.14240
  -4694307.29600  24678102.38000                  -3584453.63340  24678108.40340
  18942314.69300  25289844.50500                  14815033.88240  25289849.31040
    262948.87100  23871024.07500                    244176.03140  23871028.57540
 96  9  5  2  8 30.0090000  0  6 14 15 18 22 25 29
  -3043611.41400  23112889.37200                  -2333765.06540  23112894.65740
  22181202.44700  25931527.67700                  17352428.82440  25931533.94640
  -1036312.21500  26682201.23100                   -757096.99740  26682207.22040
  -4706276.48500  24675824.23100                  -3593780.23940  24675830.13840
  19079170.02800  25315887.36400                  14921674.39040  25315891.40740
    289294.57000  23876037.38800                    264705.16140  23876041.73540
 96  9  5  2  9  0.0090000  0  6 14 15 18 22 25 29
  -3008859.48600  23119502.48100                  -2306685.64140  23119507.64940
  22336325.91200  25961046.79400                  17473304.16040  25961052.94640
  -1061328.52900  26677440.73100                   -776590.18140  26677445.16140
  -4717866.21900  24673618.97400                  -3602811.16240  24673624.83340
  19216161.90600  25341955.70800                  15028421.30340  25341960.57140
    315767.97800  23881075.25500                    285333.80140  23881079.59140
 96  9  5  2  9 30.0090000  0  6 14 15 18 22 25 29
  -2973692.06200  23126194.53600                  -2279282.45240  23126199.83340
  22491583.85400  25990591.20000                  17594284.29040  25990597.97440
  -1086344.09300  26672680.56700                   -796082.80140  26672685.27840
  -4729069.96000  24671487.19200                  -3611541.30740  24671493.19240
  19353302.43600  25368052.89500                  15135284.04840  25368057.64240
    342390.78400  23886141.29400                    306078.85640  23886145.60640
 96  9  5  2 10  0.0090000  0  6 14 15 18 22 25 29
  -2938080.73000  23132971.19200                  -2251533.36240  23132976.44240
  22646968.93600  26020160.10600                  17715363.49540  26020166.35240
  -1111357.27000  26667921.14500                   -815573.55540  26667927.15740
  -4739888.54000  24669428.44200                  -3619971.33040  24669434.17340
  19490608.00100  25394181.24700                  15242275.38240  25394186.42740
    369164.09700  23891236.27000                    326941.18640  23891240.46640
 96  9  5  2 10 30.0090000  0  6 14 15 18 22 25 29
  -2901995.43400  23139837.91900                  -2223414.95440  23139843.21640
  22802475.02100  26049751.91100                  17836536.97140  26049758.06340
  -1136367.34500  26663161.34100                   -835061.88140  26663167.02440
  -4750324.40900  24667442.59900                  -3628103.13940  24667448.59940
  19628079.39400  25420341.47400                  15349395.94540  25420345.90340
    396080.84600  23896358.20800                    347915.29140  23896362.57940
 96  9  5  2 11  0.0090000  0  6 14 15 18 22 25 29
  -2865418.81300  23146798.18500                  -2194913.68240  23146803.48140
  22958098.18800  26079366.09100                  17957801.68340  26079372.86440
  -1161375.46100  26658402.52000                   -854548.67340  26658408.50940
  -4760365.25200  24665531.85600                  -3635927.13740  24665537.72740
  19765719.90700  25446533.25500                  15456648.28340  25446537.79040
    423126.26300  23901504.85600                    368989.65840  23901509.11040
 96  9  5  2 11 30.0090000  0  6 14 15 18 22 25 29
  -2828325.61300  23153857.01300                  -2166009.88840  23153862.27440
  23113836.15400  26109002.00500                  18079155.88940  26109008.53240
  -1186384.22800  26653643.42700                   -874035.97340  26653649.09940
  -4769995.37600  24663698.89500                  -3643431.08840  24663704.83740
  19903536.30600  25472759.19200                  15564037.66540  25472764.19640
    450311.49900  23906677.96600                    390172.97240  23906682.33740
 96  9  5  2 12  0.0090000  0  6 14 15 18 22 25 29
  -2790719.56900  23161013.08300                  -2136706.47940  23161018.49740
  23269679.34500  26138658.42700                  18200592.04540  26138664.90740
  -1211403.08000  26648882.40300                   -893531.18040  26648888.45040
  -4779210.68600  24661945.66900                  -3650611.82340  24661951.58740
  20041515.80700  25499015.53600                  15671554.14640  25499020.29440
    477627.65600  23911876.09100                    411458.29940  23911880.36840
 96  9  5  2 12 30.0090000  0  6 14 15 18 22 25 29
  -2752613.83800  23168264.46600                  -2107013.69940  23168269.84540
  23425629.85500  26168334.59900                  18322111.85940  26168340.45840
  -1236429.18900  26644119.65300                   -913031.99140  26644125.30240
  -4788004.05800  24660271.84900                  -3657463.76040  24660277.62640
  20179640.30600  25525299.79400                  15779183.62140  25525304.82140
    505076.10800  23917099.34900                    432846.71440  23917103.52040
 96  9  5  2 13  0.0090000  0  6 14 15 18 22 25 29
  -2714044.41600  23175603.80200                  -2076959.60240  23175609.11040
  23581676.92900  26198029.24700                  18443706.90540  26198036.38840
  -1261469.31500  26639355.17700                   -932543.73840  26639360.94240
  -4796387.79700  24658676.64500                  -3663996.50040  24658682.47040
  20317906.74100  25551610.57500                  15886923.70440  25551615.41540
    532660.32800  23922348.65300                    454340.92440  23922352.87240
 96  9  5  2 13 30.0090000  0  6 14 15 18 22 25 29
  -2674999.35100  23183033.86400                  -2046534.87340  23183039.16140
  23737838.83100  26227745.59100                  18565391.42040  26227752.37640
  -1286489.70900  26634593.57500                   -952040.12640  26634598.72040
  -4804345.18300  24657162.43500                  -3670197.01240  24657168.48140
  20456328.95100  25577951.38000                  15994785.15640  25577956.17340
    560415.18500  23927629.99700                    475968.09940  23927634.22740
 96  9  5  2 14  0.0090000  0  6 14 15 18 22 25 29
  -2635508.22300  23190548.84100                  -2015762.56340  23190554.02040
  23894096.19700  26257481.19200                  18687150.31840  26257488.01340
  -1311493.70400  26629835.98900                   -971523.70240  26629842.75140
  -4811896.02600  24655725.56000                  -3676080.74340  24655731.51340
  20594886.19400  25604318.29400                  16102751.83340  25604323.21640
    588319.03100  23932939.92700                    497711.36240  23932944.22740
 96  9  5  2 14 30.0090000  0  6 14 15 18 22 25 29
  -2595557.40900  23198151.28600                  -1984632.05940  23198156.52440
  24050455.02800  26287235.36400                  18808988.28740  26287242.23540
  -1336465.93600  26625083.33300                   -990982.52240  26625089.41540
  -4819033.96900  24654367.14500                  -3681642.74440  24654372.81740
  20733584.54800  25630711.50500                  16210828.46640  25630716.26340
    616383.74000  23938280.36400                    519579.97940  23938284.63040
 96  9  5  2 15  0.0090000  0  6 14 15 18 22 25 29
  -2555154.75900  23205839.59900                  -1953149.47140  23205844.84940
  24206895.60700  26317004.97400                  18930889.94740  26317011.26740
  -1361421.68500  26620334.77000                  -1010428.49940  26620340.60640
  -4825765.69300  24653086.41100                  -3686888.20040  24653092.24740
  20872409.49500  25657129.48100                  16319003.75040  25657133.67740
    644594.22300  23943648.83300                    541562.18540  23943653.16940
 96  9  5  2 15 30.0100000  0  6 14 15 18 22 25 29
  -2514288.09200  23213616.26000                  -1921305.31340  23213621.56840
  24363415.49100  26346789.59600                  19052853.40340  26346796.76040
  -1386372.03500  26615586.92400                  -1029870.27440  26615593.25240
  -4832094.14200  24651882.08800                  -3691819.42040  24651888.02940
  21011343.73100  25683568.08000                  16427264.19640  25683572.82640
    672943.28100  23949043.49400                    563652.37740  23949047.88940
 96  9  5  2 16  0.0100000  0  6 14 15 18 22 25 29
  -2472939.42500  23221484.87700                  -1889085.56940  23221490.03340
  24520017.61000  26376590.54900                  19174880.95440  26376598.06440
  -1411300.71400  26610842.51800                  -1049295.15940  26610848.42440
  -4838000.34600  24650758.01800                  -3696421.62540  24650763.73640
  21150388.76100  25710027.30700                  16535610.96840  25710032.39340
    701449.77500  23954467.84600                    585865.23940  23954472.07640
 96  9  5  2 16 30.0100000  0  6 14 15 18 22 25 29
  -2431093.03900  23229447.87700                  -1856477.99140  23229453.06840
  24676707.59600  26406407.86100                  19296976.95640  26406413.56840
  -1436207.33400  26606102.98600                  -1068702.85540  26606108.93940
  -4843480.71900  24649715.13500                  -3700692.00640  24649721.05340
  21289558.24900  25736509.85300                  16644054.71840  25736514.51840
    730122.20200  23959924.03300                    608207.40340  23959928.32240
 96  9  5  2 17  0.0100000  0  6 14 15 18 22 25 29
  -2388748.36100  23237505.52500                  -1823482.13540  23237510.78740
  24833483.75100  26436241.58800                  19419140.11040  26436247.97540
  -1461083.19900  26601369.08000                  -1088086.61740  26601374.91640
  -4848534.04300  24648753.90000                  -3704629.61940  24648759.76040
  21428864.34000  25763019.31400                  16752604.92540  25763023.74440
    758968.60100  23965413.68900                    630685.13040  23965417.85040
 96  9  5  2 17 30.0100000  0  6 14 15 18 22 25 29
  -2345905.33000  23245658.37700                  -1790097.95040  23245663.60340
  24990340.68500  26466090.04900                  19541366.19840  26466096.03740
  -1485918.67400  26596643.23600                  -1107438.87840  26596649.36540
  -4853157.66800  24647873.65800                  -3708232.40240  24647879.48240
  21568313.07900  25789555.81400                  16861266.28240  25789560.47840
    787980.21700  23970934.04900                    653291.59840  23970938.42040
 96  9  5  2 18  0.0100000  0  6 14 15 18 22 25 29
  -2302553.30400  23253908.07200                  -1756317.15240  23253913.42840
  25147284.94900  26495955.42400                  19663660.34840  26495962.83440
  -1510697.86600  26591928.28300                  -1126747.30440  26591933.83840
  -4857323.25200  24647080.96300                  -3711478.27440  24647086.84640
  21707926.01900  25816122.51800                  16970055.59840  25816127.51040
    817153.41400  23976485.65800                    676023.97140  23976489.88940
 96  9  5  2 18 30.0100000  0  6 14 15 18 22 25 29
  -2258717.51000  23262249.66600                  -1722159.39040  23262255.02140
  25304288.55700  26525832.20500                  19786000.74340  26525838.75640
  -1535448.35000  26587218.51000                  -1146033.34840  26587223.79540
  -4861038.59700  24646373.70500                  -3714373.31140  24646379.55340
  21847688.57000  25842718.15800                  17078961.47240  25842722.48240
    846448.49700  23982060.23600                    698851.32240  23982064.54940
 96  9  5  2 19  0.0100000  0  6 14 15 18 22 25 29
  -2214406.48200  23270681.72100                  -1687631.31340  23270687.07640
  25461359.16100  26555722.51000                  19908393.32840  26555729.75640
  -1560161.74500  26582514.65000                  -1165290.48140  26582520.54540
  -4864267.88300  24645759.26000                  -3716889.59840  24645764.94340
  21987601.23500  25869343.39300                  17187984.34240  25869348.52540
    875863.32600  23987657.64300                    721771.98340  23987661.81440
 96  9  5  2 19 30.0100000  0  6 14 15 18 22 25 29
  -2169623.00300  23279203.68900                  -1652735.09040  23279209.08040
  25618496.49200  26585624.36900                  20030837.90540  26585631.18940
  -1584844.03200  26577818.06400                  -1184523.38740  26577823.68940
  -4866995.38600  24645240.23600                  -3719014.88740  24645246.16640
  22127654.22900  25895994.64300                  17297116.55040  25895999.67040
    905391.13400  23993276.65800                    744780.67640  23993280.97140
 96  9  5  2 20  0.0100000  0  6 14 15 18 22 25 29
  -2124386.38400  23287812.14300                  -1617485.77040  23287817.43940
  25775685.42400  26615536.57200                  20153322.70540  26615543.94740
  -1609512.61700  26573124.38500                  -1203745.62140  26573129.88140
  -4869237.68900  24644813.65000                  -3720762.09640  24644819.58040
  22267817.66300  25922666.41600                  17406334.80940  25922671.47840
    935032.07800  23998916.90000                    767877.52840  23998921.18940
 96  9  5  2 20 30.0100000  0  6 14 15 18 22 25 29
  -2078707.91400  23296504.41600                  -1581892.15440  23296509.70140
  25932919.67800  26645457.03300                  20275842.79340  26645464.67840
  -1634174.73700  26568430.98600                  -1222962.79140  26568436.91640
  -4871012.68200  24644475.83800                  -3722145.18740  24644481.52140
  22408068.69400  25949355.89300                  17515621.33740  25949360.24040
    964791.21700  24004580.11100                    791066.48240  24004584.28340
 96  9  5  2 21  0.0100000  0  6 14 15 18 22 25 29
  -2032581.46400  23305281.91600                  -1545949.46040  23305287.26040
  26090202.76900  26675387.08000                  20398400.93740  26675394.42040
  -1658825.01200  26563740.29900                  -1242170.74840  26563745.11540
  -4872342.40800  24644222.76000                  -3723181.30340  24644228.46740
  22548395.26100  25976058.62700                  17624966.73040  25976062.63540
    994690.23100  24010269.55700                    814364.42740  24010273.79940
 96  9  5  2 21 30.0100000  0  6 14 15 18 22 25 29
  -1985979.17100  23314150.01800                  -1509635.98140  23314155.30340
  26247537.27200  26705327.51800                  20520999.17340  26705333.56440
  -1683457.58700  26559052.58800                  -1261364.90840  26559058.76440
  -4873246.80200  24644050.34600                  -3723885.99040  24644056.19340
  22688789.99900  26002775.72100                  17734365.23440  26002779.85740
   1024749.16000  24015989.74400                    837786.97840  24015993.84640
 96  9  5  2 22  0.0100000  0  6 14 15 18 22 25 29
  -1938898.42300  23323109.29900                  -1472949.67940  23323114.54940
  26404911.37700  26735274.52500                  20643628.27040  26735280.57240
  -1708088.80100  26554366.00200                  -1280558.00840  26554371.55740
  -4873740.09500  24643956.66600                  -3724270.33340  24643962.47840
  22829244.61600  26029502.61900                  17843810.40840  26029507.54140
   1054962.29100  24021739.12700                    861329.69240  24021743.43940
 96  9  5  2 22 30.0100000  0  6 14 15 18 22 25 29
  -1891310.32900  23332164.90000                  -1435868.04040  23332170.04540
  26562333.62600  26765230.79900                  20766294.87540  26765237.38540
  -1732704.27800  26549681.58800                  -1299738.85840  26549686.86140
  -4873808.50000  24643943.62700                  -3724323.60240  24643949.35740
  22969786.77500  26056247.29900                  17953323.77440  26056251.71740
   1085332.28800  24027518.29100                    884994.63540  24027522.51040
 96  9  5  2 23  0.0100000  0  6 14 15 18 22 25 29
  -1843194.39800  23341321.11100                  -1398375.10640  23341326.35040
  26719799.87100  26795196.11100                  20888995.74840  26795203.22840
  -1757299.92300  26545000.79100                  -1318904.25040  26545006.76840
  -4873435.21400  24644014.73600                  -3724032.69240  24644020.15040
  23110433.22600  26083010.82200                  18062918.41540  26083015.93240
   1115859.29100  24033327.26000                    908781.91640  24033331.40840
 96  9  5  2 23 30.0100000  0  6 14 15 18 22 25 29
  -1794556.32400  23350576.36100                  -1360475.30540  23350581.65840
  26877300.51800  26825167.73600                  21011723.42740  26825175.13540
  -1781881.69900  26540323.39300                  -1338058.83340  26540329.21740
  -4872599.77300  24644173.61900                  -3723381.67640  24644179.33840
  23251198.26800  26109797.76000                  18172605.45440  26109801.95540
   1146531.17800  24039163.97800                    932682.09540  24039168.27940
 96  9  5  2 24  0.0100000  0  6 14 15 18 22 25 29
  -1745395.30900  23359931.50200                  -1322168.01940  23359936.74040
  27034834.50400  26855144.54100                  21134477.11940  26855151.23240
  -1806440.72100  26535649.48600                  -1357195.70140  26535655.29940
  -4871287.29800  24644423.27500                  -3722358.93240  24644429.04140
  23392108.77600  26136612.76800                  18282405.84940  26136617.15040
   1177354.28800  24045029.47800                    956700.11340  24045033.66240
 96  9  5  2 24 30.0100000  0  6 14 15 18 22 25 29
  -1695712.18200  23369385.94700                  -1283453.89440  23369391.12740
  27192396.80600  26885127.85300                  21257252.84640  26885134.48640
  -1830965.18800  26530982.20500                  -1376305.65340  26530987.71340
  -4869493.44000  24644764.49400                  -3720961.08640  24644770.21340
  23533155.21400  26163452.93200                  18392312.16940  26163457.85340
   1208336.67500  24050925.26000                    980842.23940  24050929.46740
 96  9  5  2 25  0.0100000  0  6 14 15 18 22 25 29
  -1645504.45900  23378940.22800                  -1244330.99240  23378945.50240
  27349993.97000  26915118.08000                  21380055.71140  26915124.73640
  -1855459.50600  26526321.68900                  -1395392.08740  26526327.93540
  -4867199.79700  24645200.99400                  -3719173.79840  24645206.77140
  23674335.53000  26190318.79900                  18502322.80740  26190323.94340
   1239503.44300  24056856.11100                   1005128.03840  24056860.30740
 96  9  5  2 25 30.0100000  0  6 14 15 18 22 25 29
  -1594797.74900  23388589.24400                  -1204819.27240  23388594.43540
  27507603.07400  26945110.28300                  21502867.92140  26945115.70940
  -1879943.35200  26521662.17400                  -1414470.37340  26521668.29140
  -4864432.69100  24645727.45500                  -3717017.58240  24645732.99840
  23815623.77100  26217204.77500                  18612417.53640  26217209.79140
   1270835.83400  24062818.40800                   1029542.89540  24062822.68540
 96  9  5  2 26  0.0100000  0  6 14 15 18 22 25 29
  -1543554.02500  23398340.65000                  -1164889.10240  23398345.86540
  27665241.84000  26975108.15800                  21625703.25440  26975113.46740
  -1904400.68000  26517007.85300                  -1433528.00040  26517013.85340
  -4861177.39700  24646346.97800                  -3714480.96040  24646352.46340
  23957025.30700  26244112.52500                  18722600.53540  26244117.70540
   1302343.56700  24068814.04100                   1054094.38040  24068818.24840
 96  9  5  2 26 30.0100000  0  6 14 15 18 22 25 29
  -1491777.96100  23408193.38500                  -1124544.11740  23408198.60040
  27822908.68100  27005110.86900                  21748560.41540  27005117.36140
  -1928837.52600  26512358.37700                  -1452569.62240  26512364.69340
  -4857430.70600  24647059.98600                  -3711561.42940  24647065.48240
  24098522.71800  26271038.11100                  18832858.24840  26271043.06840
   1334016.42300  24074841.26800                   1078774.53740  24074845.59240
 96  9  5  2 27  0.0100000  0  6 14 15 18 22 25 29
  -1439482.47700  23418144.81400                  -1083794.39640  23418150.01840
  27980594.68300  27035117.53300                  21871432.56640  27035124.54540
  -1953259.23100  26507710.83800                  -1471599.51240  26507716.67440
  -4853211.40700  24647862.80700                  -3708273.62040  24647868.50240
  24240116.53100  26297983.36900                  18943191.10340  26297989.20540
   1365835.07500  24080896.05700                   1103568.30140  24080900.26440
 96  9  5  2 27 30.0100000  0  6 14 15 18 22 25 29
  -1386668.86700  23428194.81400                  -1042640.93740  23428200.01840
  28138300.66100  27065128.08000                  21994320.24440  27065135.06840
  -1977647.24800  26503069.85300                  -1490603.10340  26503075.50240
  -4848521.05400  24648755.00200                  -3704618.77140  24648760.87340
  24381795.39100  26324943.08800                  19053590.20340  26324948.12740
   1397790.87100  24086977.01000                   1128468.93040  24086981.01840
 96  9  5  2 28  0.0100000  0  6 14 15 18 22 25 29
  -1333371.35700  23438337.18900                  -1001110.41840  23438342.55740
  28296006.47200  27095139.17400                  22117207.77440  27095145.43240
  -2002016.64400  26498432.46300                  -1509592.22340  26498437.84240
  -4843372.66000  24649735.33000                  -3700607.00640  24649740.87340
  24523530.69500  26351914.52500                  19164033.30040  26351918.92040
   1429865.40700  24093080.67400                   1153462.08940  24093084.83440
 96  9  5  2 28 30.0100000  0  6 14 15 18 22 25 29
  -1279615.25200  23448566.69700                   -959222.54940  23448572.06440
  28453713.87200  27125149.83800                  22240096.54340  27125157.52940
  -2026346.90400  26493802.66600                  -1528550.80340  26493808.27940
  -4837747.43100  24650805.64300                  -3696223.67640  24650810.72840
  24665319.49100  26378895.89300                  19274518.06240  26378899.56040
   1462078.19000  24099210.57200                   1178562.97340  24099214.69740
 96  9  5  2 29  0.0100000  0  6 14 15 18 22 25 29
  -1225392.02400  23458885.07200                   -916970.69140  23458890.32240
  28611425.28200  27155161.51000                  22362988.45940  27155168.15440
  -2050633.45500  26489181.09600                  -1547475.31540  26489187.24840
  -4831627.38500  24651970.19700                  -3691454.77440  24651975.54140
  24807175.95500  26405891.48600                  19385055.56340  26405895.65840
   1494439.70300  24105368.73600                   1203779.74840  24105372.95540
 96  9  5  2 29 30.0110000  0  6 14 15 18 22 25 29
  -1170694.21500  23469293.51500                   -874349.02240  23469298.84740
  28769146.52300  27185174.36600                  22485888.05640  27185181.65940
  -2074876.54100  26484567.84300                  -1566365.96940  26484573.40940
  -4824981.35500  24653234.47600                  -3686276.01940  24653240.08940
  24949118.93400  26432901.76500                  19495660.46540  26432906.01840
   1526962.88000  24111557.65500                   1229122.49740  24111561.81540
 96  9  5  2 30  0.0110000  0  6 14 15 18 22 25 29
  -1115533.18000  23479790.28000                   -831366.40440  23479795.64740
  28926857.20100  27215185.98300                  22608779.35940  27215192.46440
  -2099075.05400  26479962.78800                  -1585221.88440  26479968.61240
  -4817812.32600  24654599.01500                  -3680689.73540  24654604.54640
  25091151.37500  26459928.81100                  19606335.09040  26459933.97940
   1559649.56500  24117777.75700                   1254592.66240  24117781.87040
 96  9  5  2 30 30.0110000  0  7  4 14 15 18 22 25 29
      1790.95310  28087721.62400
  -1059868.83500  23490383.08500                   -787991.59340  23490388.41740
  29084568.32700  27245197.87400                  22731671.04840  27245204.68340
  -2123228.92500  26475366.48300                  -1604043.02940  26475372.62440
  -4810111.60100  24656064.25700                  -3674689.13240  24656069.76540
  25233298.55500  26486978.53000                  19717099.12240  26486983.49940
   1592509.43600  24124030.74900                   1280197.77440  24124034.92140
 96  9  5  2 31  0.0110000  0  7  4 14 15 18 22 25 29
     12786.56200  28089813.31100
  -1003690.02600  23501073.46800                   -744215.90240  23501078.72940
  29242257.10300  27275204.97600                  22854545.33140  27275211.36240
  -2147362.68900  26470774.03800                  -1622848.49740  26470779.20640
  -4801915.19400  24657624.24900                  -3668302.29440  24657629.34740
  25375548.11800  26514047.68600                  19827942.93240  26514052.51540
   1625522.42600  24130312.78800                   1305922.20040  24130316.96040
 96  9  5  2 31 30.0110000  0  7  4 14 15 18 22 25 29
     24212.01100  28091987.94400                      2106.56950  28091992.51540
   -946981.71200  23511864.63200                   -700027.60840  23511870.04640
  29399937.71500  27305210.91300                  22977413.21940  27305219.12040
  -2171444.25500  26466191.42100                  -1641613.27540  26466196.33140
  -4793220.64500  24659278.71800                  -3661527.29840  24659284.28440
  25517901.68300  26541136.87400                  19938867.77640  26541141.53840
   1658705.82800  24136627.53800                   1331779.41840  24136631.64040
 96  9  5  2 32  0.0110000  0  7  4 14 15 18 22 25 29
     36062.14000  28094242.53000                     11340.49040  28094249.22240
   -889744.76000  23522756.44400                   -655427.38740  23522761.65940
  29557602.17300  27335213.06100                  23100268.57840  27335220.46040
  -2195487.30200  26461616.24100                  -1660348.05740  26461621.86640
  -4784035.74700  24661026.35100                  -3654370.19640  24661031.82340
  25660330.07700  26568239.98300                  20049850.93840  26568244.82340
   1692054.67400  24142973.46000                   1357765.55140  24142977.55040
 96  9  5  2 32 30.0110000  0  7  4 14 15 18 22 25 29
     48359.18600  28096582.53800                     20922.62240  28096588.72640
   -831955.86900  23533753.28000                   -610397.08340  23533758.51840
  29715255.17700  27365213.49100                  23223114.99440  27365220.25340
  -2219493.53800  26457047.42100                  -1679054.12240  26457052.94040
  -4774344.21400  24662870.50700                  -3646818.32240  24662876.22640
  25802826.08900  26595356.41300                  20160886.77840  26595360.42140
   1725576.34400  24149352.47600                   1383886.35240  24149356.61240
 96  9  5  2 33  0.0110000  0  7  4 14 15 18 22 25 29
     61110.01900  28099009.72600                     30858.33640  28099013.67540
   -773654.74300  23544847.70200                   -564967.63540  23544852.87040
  29872880.49100  27395207.94400                  23345939.80840  27395215.81140
  -2243469.77200  26452484.71800                  -1697736.83840  26452490.23740
  -4764150.18400  24664810.62400                  -3638874.88740  24664816.13240
  25945368.76600  26622481.47600                  20271959.01340  26622486.33940
   1759266.85100  24155763.74100                   1410138.71740  24155767.76140
 96  9  5  2 33 30.0110000  0  7  4 14 15 18 22 25 29
     74333.81200  28101526.23300                     41162.65440  28101531.41340
   -714843.36300  23556039.12400                   -519140.58340  23556044.45640
  30030488.08900  27425200.64000                  23468750.79940  27425207.48340
  -2267416.00900  26447928.33500                  -1716396.16040  26447934.03040
  -4753418.01300  24666852.57700                  -3630512.11840  24666858.00340
  26087961.70200  26649615.90500                  20383070.37740  26649620.30040
   1793132.76100  24162207.99900                   1436527.76040  24162212.21840
 96  9  5  2 34  0.0110000  0  7  4 14 15 18 22 25 29
     88014.85500  28104128.89700                     51823.23340  28104135.43640
   -655512.99700  23567329.33500                   -472909.13140  23567334.70240
  30188062.91900  27455186.39700                  23591536.30340  27455194.24140
  -2291353.81800  26443372.76500                  -1735048.93940  26443378.88240
  -4742153.18900  24668996.05400                  -3621734.30440  24669001.69040
  26230604.16800  26676760.10100                  20494220.35240  26676763.97940
   1827161.82200  24168683.43600                   1463043.92040  24168687.60840
 96  9  5  2 34 30.0110000  0  7  4 14 15 18 22 25 29
    102157.12500  28106820.11600                     62843.20040  28106824.59340
   -595651.12700  23578720.71000                   -426263.52140  23578725.96040
  30345607.17100  27485165.73300                  23714297.96140  27485173.58940
  -2315263.71700  26438822.66300                  -1753679.95640  26438828.59340
  -4730367.32200  24671239.32700                  -3612550.47540  24671244.63640
  26373315.63000  26703917.03000                  20605424.09740  26703922.26840
   1861355.66300  24175190.50700                   1489688.48440  24175194.65540
 96  9  5  2 35  0.0110000  0  7  4 14 15 18 22 25 29
    116760.74300  28109599.57700                     74222.65040  28109604.74540
   -535260.24700  23590212.69400                   -379205.68940  23590217.94440
  30503123.18400  27515140.22600                  23837037.63040  27515148.42140
  -2339146.37500  26434278.49900                  -1772289.74840  26434284.17140
  -4718057.71100  24673581.29600                  -3602958.53840  24673586.67540
  26516100.38000  26731088.28800                  20716684.92940  26731093.40940
   1895705.27400  24181726.78000                   1516454.42840  24181730.94040
 96  9  5  2 35 30.0110000  0  7  4 14 15 18 22 25 29
    131813.62100  28112463.92100                     85952.18840  28112469.19440
   -474338.51900  23601805.68600                   -331734.21440  23601810.87840
  30660597.05900  27545106.74100                  23959744.38740  27545114.57340
  -2363005.09700  26429738.42100                  -1790880.88540  26429743.48340
  -4705241.57100  24676020.23300                  -3592971.90140  24676025.84740
  26658947.30900  26758271.13200                  20827994.21140  26758275.76140
   1930189.86200  24188289.01500                   1543325.54840  24188293.10440
 96  9  5  2 36  0.0110000  0  7  4 14 15 18 22 25 29
    147330.25800  28115416.78000                     98043.10940  28115422.59340
   -412866.11200  23613503.53000                   -283833.63040  23613508.64040
  30818041.50400  27575066.91300                  24082428.28940  27575073.81940
  -2386813.00400  26425206.98300                  -1809432.43740  26425212.60840
  -4691915.44400  24678555.96800                  -3582587.86740  24678561.74540
  26801884.06300  26785470.96800                  20939373.48640  26785475.98340
   1964833.91200  24194881.53000                   1570320.92740  24194885.70240
 96  9  5  2 36 30.0110000  0  7  4 14 15 18 22 25 29
    163314.08400  28118457.86600                    110498.04040  28118462.29640
   -350873.89700  23625300.03000                   -235528.00440  23625305.40940
  30975447.91100  27605020.33500                  24205082.52240  27605028.87040
  -2410584.25400  26420683.81900                  -1827955.43540  26420688.91740
  -4678078.30200  24681188.96800                  -3571805.63940  24681194.38240
  26944890.21500  26812684.27200                  21050806.86140  26812688.98340
   1999637.37900  24201504.43600                   1597440.52240  24201508.53840
 96  9  5  2 37  0.0110000  0  7  4 14 15 18 22 25 29
    179771.00300  28121589.30400                    123321.66040  28121595.04640
   -288369.04100  23637194.45200                   -186822.92540  23637199.64340
  31132818.13100  27634966.96800                  24327708.56540  27634975.23340
  -2434322.45800  26416166.57700                  -1846452.67440  26416172.48340
  -4663712.33300  24683922.56900                  -3560611.34640  24683928.03040
  27087964.92800  26839910.39700                  21162293.67340  26839914.92140
   2034612.80700  24208160.03800                   1624694.10540  24208164.09340
 96  9  5  2 37 30.0110000  0  7  4 14 15 18 22 25 29
    196708.42700  28124812.36600                    136519.61740  28124817.38240
   -225348.47200  23649187.07700                   -137715.98840  23649192.30440
  31290147.43600  27664905.63200                  24450302.70440  27664913.86240
  -2458014.80400  26411658.12400                  -1864914.18940  26411663.97240
  -4648823.89500  24686755.92100                  -3549009.93440  24686761.54640
  27231120.54000  26867152.37400                  21273843.50640  26867156.95640
   2069773.74500  24214850.94400                   1652092.25240  24214855.14040
 96  9  5  2 38  0.0110000  0  7  4 14 15 18 22 25 29
    214118.26600  28128126.07700                    150085.74640  28128131.35140
   -161809.27300  23661277.98300                    -88204.92640  23661283.19840
  31447432.76100  27694836.75700                  24572862.57240  27694846.25340
  -2481674.53000  26407155.53000                  -1883350.30040  26407161.53040
  -4633407.54200  24689689.65500                  -3536997.15840  24689694.91740
  27374349.93000  26894408.08500                  21385450.82340  26894413.44040
   2105124.71800  24221578.14000                   1679638.46840  24221582.18340
 96  9  5  2 38 30.0110000  0  7  4 14 15 18 22 25 29
    232004.30400  28131529.63200                    164022.95040  28131536.46440
    -97743.64400  23673469.41300                    -38283.65440  23673474.55840
  31604674.83400  27724758.33500                  24695388.74940  27724765.90940
  -2505292.51700  26402661.61600                  -1901753.89540  26402667.26540
  -4617460.26300  24692724.31900                  -3524570.67440  24692729.58140
  27517643.81400  26921675.17100                  21497108.40040  26921680.23340
   2140665.69600  24228341.33500                   1707332.74240  24228345.39040
 96  9  5  2 39  0.0110000  0  7  4 14 15 18 22 25 29
    250363.23600  28135022.23300                    178328.62840  28135028.04640
    -33140.09600  23685762.96000                     12056.76740  23685768.24540
  31761871.17600  27754672.87400                  24817879.32740  27754681.60840
  -2528849.35900  26398178.88200                  -1920109.83940  26398184.58940
  -4600981.36600  24695860.01500                  -3511729.94940  24695865.30040
  27661009.46700  26948957.30400                  21608821.90340  26948963.04640
   2176388.90800  24235138.97600                   1735169.01440  24235143.01840
 96  9  5  2 39 30.0110000  0  7  4 14 15 18 22 25 29
    269177.06000  28138602.28000                    192988.73040  28138607.49540
     31988.66100  23698156.57700                     62806.44640  23698161.72240
  31919003.50400  27784574.74100                  24940319.99240  27784581.98740
  -2552357.88600  26393705.21000                  -1938428.11740  26393711.30440
  -4583978.26700  24699095.70200                  -3498480.74540  24699101.12840
  27804414.98300  26976246.44400                  21720566.46740  26976251.15540
   2212278.40400  24241968.65500                   1763134.86040  24241972.67540
 96  9  5  2 40  0.0110000  0  7  4 14 15 18 22 25 29
    288449.05300  28142270.74100                    208005.89340  28142275.69840
     97650.98200  23710651.56100                    113971.89340  23710656.82340
  32076084.41300  27814465.15500                  25062720.53640  27814472.83540
  -2575805.56000  26389242.94400                  -1956698.98840  26389248.75740
  -4566423.82500  24702436.39700                  -3484801.92640  24702441.68340
  27947866.40500  27003544.15500                  21832346.80940  27003549.01840
   2248347.57100  24248832.34300                   1791240.70840  24248836.50340
 96  9  5  2 40 30.0110000  0  7  4 14 15 18 22 25 29
    308186.31100  28146026.46800                    223385.57240  28146031.00340
    163821.06500  23723243.39000                    165532.99340  23723248.64040
  32233100.06900  27844345.28800                  25185070.33540  27844352.45240
  -2599194.85800  26384792.28800                  -1974924.37140  26384798.55840
  -4548322.47600  24705880.68600                  -3470696.95040  24705885.69040
  28091348.60200  27030847.78800                  21944151.12340  27030853.27240
   2284585.28100  24255728.17100                   1819477.88740  24255732.35440
 96  9  5  2 41  0.0110000  0  7  4 14 15 18 22 25 29
    328408.56000  28149873.61600                    239143.18740  28149877.07340
    230495.46300  23735931.10100                    217487.06840  23735936.25740
  32390061.65500  27874214.07700                  25307377.91040  27874222.12040
  -2622522.34500  26380353.06900                  -1993101.58640  26380358.85840
  -4529641.19300  24709435.67100                  -3456140.07340  24709441.24940
  28234878.53400  27058161.07700                  22055992.61540  27058165.49540
   2321009.57600  24262659.37400                   1847860.45940  24262663.55840
 96  9  5  2 41 30.0110000  0  7  4 14 15 18 22 25 29
    349122.40900  28153816.09300                    255283.86840  28153821.09740
    297678.38100  23748715.68600                    269837.39440  23748720.84340
  32546967.50300  27904072.52200                  25429642.12340  27904078.00740
  -2645792.09200  26375925.17900                  -2011233.82540  26375931.10840
  -4510368.17500  24713103.03800                  -3441122.10140  24713108.61640
  28378451.56500  27085481.19400                  22167867.71640  27085486.05840
   2357623.66000  24269626.97600                   1876390.91840  24269631.05440
 96  9  5  2 42  0.0110000  0  7  4 14 15 18 22 25 29
    370343.56900  28157854.31100                    271819.85340  28157860.15940
    365378.27000  23761598.56900                    322590.54840  23761603.73740
  32703815.29200  27933920.51500                  25551861.01740  27933929.62440
  -2668994.49500  26371510.28000                  -2029313.56240  26371515.41340
  -4490509.73100  24716882.03800                  -3425647.96040  24716887.54640
  28522078.57300  27112813.11600                  22279784.86340  27112818.82340
   2394417.90500  24276628.62400                   1905061.76640  24276632.78440
 96  9  5  2 42 30.0110000  0  7  4 14 15 18 22 25 29
    392075.15100  28161989.60100                    288753.53040  28161995.07340
    433595.38200  23774579.71800                    375746.73740  23774584.97940
  32860592.06800  27963752.56100                  25674024.63740  27963761.21440
  -2692139.10600  26367105.28800                  -2047348.28340  26367110.08140
  -4470082.93900  24720768.93600                  -3409730.94340  24720774.70240
  28665739.30200  27140150.74100                  22391728.29940  27140157.32740
   2431382.03300  24283662.42100                   1933864.99440  24283666.55840
 96  9  5  2 43  0.0110000  0  7  4 14 15 18 22 25 29
    414312.77300  28166221.36600                    306081.58040  28166226.80440
    502367.49000  23787666.72600                    429335.38940  23787672.06940
  33017303.90800  27993573.74900                  25796137.64740  27993582.14340
  -2715216.40900  26362713.79600                  -2065330.55340  26362719.37440
  -4449096.82800  24724762.28800                  -3393378.10240  24724767.70240
  28809452.99200  27167498.57700                  22503712.99740  27167503.59340
   2468524.11900  24290730.46000                   1962806.89040  24290734.55040
 96  9  5  2 43 30.0110000  0  7  4 14 15 18 22 25 29
    437039.91800  28170546.37400                    323791.04040  28170551.98740
    571709.93600  23800861.84300                    483368.46140  23800867.18640
  33173936.99700  28023380.55400                  25918189.27340  28023388.19840
  -2738231.08800  26358334.87400                  -2083264.02940  26358339.64340
  -4427580.41100  24728856.95200                  -3376612.03440  24728862.17940
  28953212.34100  27194855.21800                  22615733.27740  27194859.46040
   2505831.03800  24297829.83500                   1991877.22440  24297834.03040
 96  9  5  2 44  0.0120000  0  7  4 14 15 18 22 25 29
    460255.28700  28174963.91800                    341880.93640  28174967.55140
    641633.31500  23814168.12900                    537854.20940  23814173.39140
  33330500.77700  28053173.83200                  26040186.92040  28053181.40640
  -2761188.30800  26353965.59000                  -2101152.73540  26353971.09840
  -4405539.31300  24733051.35500                  -3359437.12240  24733056.66440
  29097033.66000  27222223.19900                  22727801.84240  27222227.48840
   2543330.90700  24304965.90200                   2021097.91140  24304969.95740
 96  9  5  2 44 30.0120000  0  7  4 14 15 18 22 25 29
    483953.11000  28179473.36300                    360346.77940  28179479.02340
    712130.29300  23827583.11300                    592786.91740  23827588.41040
  33486990.63500  28082952.40200                  26162126.96940  28082961.34840
  -2784088.77400  26349607.92600                  -2118997.21040  26349613.51640
  -4382959.25900  24737348.08200                  -3341842.24340  24737353.46140
  29240923.10700  27249605.05900                  22839923.49940  27249610.19140
   2581039.91100  24312141.61300                   2050481.56340  24312145.70340
 96  9  5  2 45  0.0120000  0  7  4 14 15 18 22 25 29
    508097.90500  28184067.99600                    379160.91840  28184072.26240
    783170.50000  23841101.64400                    648142.92640  23841106.94140
  33643388.74600  28112714.10500                  26283995.52640  28112721.71540
  -2806953.07000  26345256.25400                  -2136813.49740  26345261.17640
  -4359845.65800  24741746.51200                  -3323831.61640  24741751.58640
  29384871.90100  27276996.97300                  22952091.39940  27277001.10940
   2618942.32300  24319354.11300                   2080015.92640  24319358.22640
 96  9  5  2 45 30.0120000  0  7  4 14 15 18 22 25 29
    532702.21400  28188750.93400                    398333.09740  28188755.29340
    854736.17000  23854720.24600                    703908.38540  23854725.47340
  33799701.53800  28142459.37100                  26405797.62940  28142467.20340
  -2829765.27100  26340915.43400                  -2154589.20240  26340921.05940
  -4336159.98000  24746253.73800                  -3305375.21040  24746259.17640
  29528877.11700  27304400.66800                  23064303.26440  27304405.89440
   2657053.09300  24326606.33200                   2109712.64440  24326610.39840
 96  9  5  2 46  0.0120000  0  7  4 14 15 18 22 25 29
    557772.61100  28193520.62900                    417868.45440  28193526.31240
    926800.22600  23868433.55900                    760062.19440  23868438.83240
  33955925.82600  28172188.34800                  26527530.72840  28172199.25040
  -2852518.71400  26336586.23800                  -2172319.11340  26336591.27740
  -4311891.63500  24750871.71500                  -3286464.78540  24750876.91840
  29672919.10600  27331810.73800                  23176543.77840  27331814.76940
   2695369.99300  24333897.81600                   2139569.98040  24333901.93040
 96  9  5  2 46 30.0120000  0  7  4 14 15 18 22 25 29
    583314.98100  28198381.40200                    437771.59240  28198386.04340
    999353.06000  23882239.85500                    816596.87040  23882245.16440
  34112059.65000  28201899.74600                  26649193.37240  28201907.88340
  -2875202.06400  26332269.40200                  -2189994.41340  26332274.48840
  -4287031.64500  24755602.31600                  -3267093.33540  24755607.59040
  29816993.13600  27359226.80900                  23288809.28240  27359230.89840
   2733867.12300  24341223.39400                   2169567.76340  24341227.39140
 96  9  5  2 47  0.0120000  0  7  4 14 15 18 22 25 29
    609330.68500  28203332.30100                    458043.57040  28203337.22340
   1072397.95200  23896139.78500                    873514.96640  23896145.09440
  34268091.07100  28231591.31600                  26770776.23440  28231597.24640
  -2897820.28300  26327965.12900                  -2207618.95140  26327970.08640
  -4261586.18600  24760444.30100                  -3247265.67440  24760449.53940
  29961077.99700  27386645.50400                  23401083.22440  27386650.30940
   2772529.51200  24348580.94900                   2199694.31540  24348585.07440
 96  9  5  2 47 30.0120000  0  8  4 14 15 18 19 22 25 29
    635838.49400  28208376.24600                    478698.98540  28208380.91040
   1145945.75400  23910135.59800                    930824.93740  23910140.95340
  34424016.39600  28261263.17600                  26892276.34840  28261270.31640
  -2920375.34200  26323673.06600                  -2225194.29140  26323677.94140
    -14546.36310  28358371.53500
  -4235563.34500  24765396.35500                  -3226988.11440  24765401.55940
  30105162.04300  27414064.38700                  23513356.51040  27414070.21140
   2811351.84800  24355968.41800                   2229945.50040  24355972.67240
 96  9  5  2 48  0.0120000  0  8  4 14 15 18 19 22 25 29
    662867.17600  28213520.10500                    499760.31340  28213525.78940
   1220033.92400  23924234.04300                    988555.97240  23924239.30540
  34579850.32400  28290917.82400                  27013705.23440  28290924.76640
  -2942868.20500  26319392.89400                  -2242721.14840  26319398.07440
    -54130.63000  28350837.98800
  -4208960.01900  24770458.75400                  -3206258.21940  24770463.85140
  30249267.05800  27441486.25400                  23625646.11740  27441490.39140
   2850347.96600  24363389.09000                   2260332.09740  24363393.09840
 96  9  5  2 48 30.0120000  0  8  4 14 15 18 19 22 25 29
    690416.16800  28218761.60500                    521227.04040  28218766.24640
   1294677.57200  23938438.37900                   1046719.85440  23938443.59440
  34735586.34400  28320552.66000                  27135057.89040  28320560.17640
  -2965317.59700  26315120.46500                  -2260214.13540  26315125.64440
    -93602.30200  28343327.13700
  -4181783.41800  24775630.37900                  -3185081.61840  24775635.66440
  30393403.51500  27468914.59000                  23737960.23840  27468919.14840
   2889521.08600  24370843.52700                   2290856.62340  24370847.60540
 96  9  5  2 49  0.0120000  0  8  4 14 15 18 19 22 25 29
    718482.76700  28224102.94100                    543097.10840  28224108.10940
   1369899.89100  23952752.57400                   1105334.64140  23952757.76640
  34891225.61700  28350170.99600                  27256335.15940  28350182.07440
  -2987715.28200  26310858.37900                  -2277666.82240  26310864.33240
   -132964.91800  28335836.26200                    -25552.74450  28335844.10540
  -4154036.44400  24780910.39400                  -3163460.57540  24780915.72640
  30537572.31000  27496348.80100                  23850299.55540  27496353.50040
   2928894.18900  24378335.96500                   2321536.97540  24378340.06640
 96  9  5  2 49 30.0120000  0  8  4 14 15 18 19 22 25 29
    747061.13400  28229541.38700                    565365.93440  28229546.54340
   1445699.29400  23967176.69100                   1164399.10840  23967181.90640
  35046765.33500  28379768.93400                  27377534.82540  28379774.92240
  -3010055.89900  26306607.42600                  -2295075.05240  26306612.43040
   -172233.07800  28328363.29300                    -56151.13740  28328369.59840
  -4125723.04800  24786298.11300                  -3141398.16140  24786303.48040
  30681771.69200  27523788.88700                  23962662.69340  27523795.10940
   2968472.60700  24385867.51900                   2352377.30940  24385871.45740
 96  9  5  2 50  0.0120000  0  8  4 14 15 18 19 22 25 29
    776129.15100  28235073.05900                    588016.35640  28235076.70340
   1522055.07900  23981706.80100                   1223897.12340  23981712.13340
  35202190.98600  28409346.07400                  27498645.63240  28409354.59840
  -3032347.91700  26302365.33200                  -2312445.40540  26302370.51240
   -211421.62600  28320906.93400                    -86687.41440  28320913.16840
  -4096859.93000  24791790.51200                  -3118907.39340  24791795.97340
  30825997.39700  27551234.00400                  24075046.34140  27551237.87140
   3008244.28000  24393435.70700                   2383368.23440  24393439.79740
 96  9  5  2 50 30.0120000  0  8  4 14 15 18 19 22 25 29
    805671.81300  28240694.43400                    611036.60040  28240702.01940
   1598960.81400  23996341.36300                   1283823.66540  23996346.66040
  35357502.04500  28438900.30900                  27619667.15740  28438906.51940
  -3054561.44300  26298138.29300                  -2329754.59040  26298143.93040
   -250528.74300  28313464.26900                   -117160.36140  28313469.39140
  -4067444.21700  24797388.23800                  -3095986.03440  24797393.45340
  30970248.55300  27578684.44100                  24187449.84340  27578688.14440
   3048215.62300  24401042.19100                   2414514.74540  24401046.22340
 96  9  5  2 51  0.0120000  0  8  4 14 15 18 19 22 25 29
    835695.87300  28246407.92600
   1676420.13500  24011081.53500                   1344181.56640  24011086.82040
  35512704.00200  28468433.44100                  27740603.63340  28468442.65640
  -3076677.02800  26293929.70700                  -2346987.45940  26293935.35540
   -289535.22500  28306040.44900                   -147554.81640  28306046.03940
  -4037461.79100  24803093.65200                  -3072623.08440  24803098.90240
  31114525.93400  27606139.27700                  24299873.75940  27606143.69540
   3088393.19200  24408687.64400                   2445821.94440  24408691.71140
 96  9  5  2 51 30.0120000  0  7  4 14 18 19 22 25 29
    866215.73800  28252216.10500
   1754409.93700  24025922.37900                   1404952.83540  24025927.81640
  -3098694.32700  26289739.81600                  -2364143.73940  26289745.03140
   -328417.43800  28298640.73800                   -177852.53840  28298648.71140
  -4006894.75900  24808910.51900                  -3048804.59140  24808915.75840
  31258827.43700  27633599.88700                  24412316.47940  27633605.30140
   3128772.32900  24416371.55900                   2477286.21440  24416375.56640
 96  9  5  2 52  0.0120000  0  7  4 14 18 19 22 25 29
    897224.76800  28258115.66800                      3242.57050  28258120.46140
   1832926.61100  24040863.66800                   1466134.65240  24040868.95340
  -3120616.07200  26285568.62100                  -2381225.55840  26285573.62540
   -367165.01400  28291268.84800                   -208045.31940  28291276.15240
  -3975731.15400  24814840.62900                  -3024521.24040  24814845.80940
  31403162.21900  27661064.49600                  24524785.10940  27661070.75440
   3169364.26600  24424095.80900                   2508916.30240  24424099.74640
 96  9  5  2 52 30.0120000  0  7  4 14 18 19 22 25 29
    928709.26600  28264108.05100                     27775.90840  28264112.68040
   1911980.86000  24055907.34000                   1527735.35940  24055912.62540
  -3142451.19100  26281412.38700                  -2398239.88540  26281417.64840
   -405780.16800  28283919.98800                   -238134.92240  28283925.87140
  -3943957.55800  24820886.91800                  -2999762.57140  24820892.25040
  31547530.67700  27688537.39400                  24637279.99640  27688541.96540
   3210176.91300  24431862.23000                   2540718.37040  24431866.28540
 96  9  5  2 53  0.0120000  0  7  4 14 18 19 22 25 29
    960674.07800  28270189.93400                     52683.59140  28270195.85140
   1991565.64100  24071051.78500                   1589749.46740  24071056.95340
  -3164219.60400  26277270.82400                  -2415202.25040  26277276.63740
   -444244.44100  28276600.90200                   -268106.93640  28276607.79740
  -3911566.63600  24827050.56600                  -2974522.87040  24827055.82840
  31691937.20600  27716017.76200                  24749804.55840  27716022.91840
   3251205.84800  24439669.77700                   2572688.97540  24439673.69140
 96  9  5  2 53 30.0120000  0  7  4 14 18 19 22 25 29
    993114.08200  28276363.50400                     77961.47140  28276371.13740
   2071685.12900  24086297.95700                   1652180.23540  24086303.32440
  -3185910.23400  26273143.02700                  -2432103.99140  26273148.19540
   -482545.28700  28269311.84000                   -297951.54640  28269318.35540
  -3878549.89200  24833333.44900                  -2948795.51440  24833338.61740
  31836399.86900  27743507.37900                  24862372.86540  27743510.90640
   3292460.55800  24447520.30100                   2604835.51340  24447524.35540
 96  9  5  2 54  0.0120000  0  7  4 14 18 19 22 25 29
   1026013.93300  28282624.14400                    103597.71540  28282628.82040
   2152343.69100  24101646.75400                   1715031.05840  24101652.07440
  -3207540.49900  26269026.87100                  -2448958.70540  26269032.40240
   -520706.96900  28262049.33200                   -327687.87240  28262054.30140
  -3844924.13600  24839732.25400                  -2922593.60740  24839737.34040
  31980916.25400  27771008.37900                  24974983.00840  27771013.34840
   3333930.70000  24455411.90200                   2637149.91740  24455415.81640
 96  9  5  2 54 30.0120000  0  7  4 14 18 19 22 25 29
   1059381.27500  28288973.04300                    129598.23540  28288979.94940
   2233528.01600  24117095.58200                   1778291.56540  24117100.96140
  -3229125.90600  26264919.12900                  -2465778.47040  26264924.84840
   -558738.45500  28254812.55100                   -357322.63940  28254818.76240
  -3810708.07000  24846243.19900                  -2895931.71540  24846248.51940
  32125460.93100  27798514.17600                  25087615.21640  27798520.10540
   3375589.20000  24463339.01900                   2669611.09340  24463343.09840
 96  9  5  2 55  0.0120000  0  7  4 14 18 19 22 25 29
   1093240.55700  28295416.37900                    155982.14140  28295420.63340
   2315232.02600  24132643.59000                   1841957.02040  24132648.84040
  -3250644.40000  26260824.32400                  -2482546.08940  26260829.66840
   -596632.54100  28247601.46500                   -386850.23940  28247609.48440
  -3775904.44400  24852866.17600                  -2868811.98540  24852871.53140
  32270029.91200  27826024.82400                  25200266.34140  27826029.69940
   3417433.08000  24471301.72300                   2702216.72340  24471305.68440
 96  9  5  2 55 30.0120000  0  7  4 14 18 19 22 25 29
   1127588.70900  28301953.10500                    182746.89640  28301960.10540
   2397461.63000  24148291.09000                   1906032.02640  24148296.39840
  -3272098.51500  26256742.09800                  -2499263.56340  26256746.93740
   -634414.67600  28240412.24600                   -416290.74440  28240418.21140
  -3740527.71100  24859598.16000                  -2841245.67940  24859603.30540
  32414606.67300  27853536.69100                  25312923.55340  27853542.37540
   3459454.95800  24479298.16000                   2734961.05040  24479302.13340
 96  9  5  2 56  0.0120000  0  7  4 14 18 19 22 25 29
   1162453.79600  28308588.13700                    209914.50840  28308593.17640
   2480229.27800  24164041.29300                   1970526.28940  24164046.70740
  -3293480.88400  26252672.68400                  -2515925.13840  26252678.08640
   -672083.53300  28233244.78500                   -445642.89340  28233251.78540
  -3704581.19900  24866438.66800                  -2813235.38840  24866443.97640
  32559180.86100  27881048.28500                  25425578.75640  27881053.03140
   3501662.96700  24487330.09000                   2767850.41340  24487334.10940
 96  9  5  2 56 30.0120000  0  7  4 14 18 19 22 25 29
   1197841.56800  28315322.34800                    237489.37940  28315328.19540
   2563531.07700  24179893.31600                   2035436.78040  24179898.66040
  -3314778.70600  26248620.26200                  -2532520.83140  26248625.51240
   -709633.58400  28226097.25400                   -474902.47340  28226103.80540
  -3668076.99100  24873385.08200                  -2784790.52940  24873389.93440
  32703748.00200  27908558.34000                  25538228.46240  27908563.55540
   3544057.46700  24495397.56600                   2800885.09840  24495401.60940
 96  9  5  2 57  0.0120000  0  7  4 14 18 19 22 25 29
   1233745.09900  28322154.16800                    265466.11740  28322156.39440
   2647359.72700  24195845.32400                   2100757.80140  24195850.66840
  -3335977.41200  26244586.12900                  -2549039.29040  26244591.39140
   -747060.17600  28218974.37900                   -504065.81540  28218979.91040
  -3631012.71600  24880438.20700                  -2755909.25540  24880443.18740
  32848318.88400  27936069.24600                  25650881.10440  27936074.64840
   3586658.32000  24503504.19900                   2834080.58040  24503508.24240
 96  9  5  2 57 30.0120000  0  7  4 14 18 19 22 25 29
   1270164.72200  28329084.34800                    293845.04840  28329086.94940
   2731715.84400  24211897.59800                   2166489.83840  24211902.87140
  -3357085.04500  26240569.23000                  -2565486.77540  26240574.41040
   -784366.23200  28211875.67600                   -533135.26640  28211880.64440
  -3593377.68300  24887599.91800                  -2726583.23040  24887605.19140
  32992895.13000  27963580.72300                  25763537.89940  27963585.44540
   3629475.79300  24511651.94100                   2867444.85240  24511655.90240
 96  9  5  2 58  0.0120000  0  7  4 14 18 19 22 25 29
   1307107.65800  28336114.47300                    322631.72440  28336119.46540
   2816603.40000  24228051.29300                   2232635.98040  24228056.59040
  -3378093.62100  26236571.67600                  -2581857.09140  26236576.87940
   -821540.14000  28204802.56600                   -562101.79640  28204809.63740
  -3555151.66000  24894874.12100                  -2696796.70540  24894879.26640
  33137483.29500  27991095.29300                  25876203.98740  27991100.18040
   3672524.53900  24519843.69900                   2900989.34040  24519847.62540
 96  9  5  2 58 30.0120000  0  7  4 14 18 19 22 25 29
   1344544.82600  28343238.76200                    351803.62540  28343247.02740
   2902009.77100  24244303.42600                   2299186.39440  24244308.54740
  -3399015.14200  26232590.89400                  -2598159.56940  26232596.14440
   -858587.89700  28197752.40200                   -590970.01540  28197757.87540
  -3516324.04900  24902262.59000                  -2666541.40240  24902267.79340
  33282078.42200  28018610.51900                  25988875.50040  28018616.85940
   3715803.53300  24528079.71500                   2934713.24140  24528083.81640
 96  9  5  2 59  0.0130000  0  7  4 14 18 19 22 25 29
   1382491.31200  28350459.10200                    381372.22640  28350464.36440
   2987966.28400  24260660.67300                   2366165.48640  24260665.98140
  -3419827.16900  26228630.00100                  -2614376.71940  26228635.27440
   -895498.77700  28190728.33700                   -619731.58940  28190735.04040
  -3476855.79800  24909773.35200                  -2635786.90340  24909778.27440
  33426690.58800  28046129.73500                  26101560.28540  28046136.20440
   3759337.37000  24536363.97700                   2968635.72440  24536368.03240
 96  9  5  2 59 30.0130000  0  7  4 14 18 19 22 25 29
   1420916.15400  28357772.07900                    411313.63140  28357778.16140
   3074459.75300  24277119.76700                   2433562.98440  24277125.08740
  -3440565.39800  26224683.32900                  -2630536.35340  26224688.20440
   -932307.10200  28183722.95400                   -648413.22240  28183730.22440
  -3436777.78800  24917400.07100                  -2604557.26540  24917405.07540
  33571266.84500  28073641.67300                  26214217.11040  28073646.24340
   3803075.30300  24544686.81300                   3002717.23540  24544690.77440
 96  9  5  3  0  0.0130000  0  7  4 14 18 19 22 25 29
   1459830.23100  28365177.10200                    441636.26240  28365184.17340
   3161511.30200  24293685.01700                   2501395.35340  24293690.26740
  -3461200.73900  26220756.33700                  -2646615.82040  26220761.68140
   -968991.51300  28176741.79800                   -676998.31140  28176748.44240
  -3396081.07900  24925144.44600                  -2572845.52740  24925149.45040
  33715829.87400  28101150.58700                  26326863.58740  28101155.82540
   3847027.05200  24553050.66500                   3036965.36440  24553054.70840
 96  9  5  3  0 30.0130000  0  7  4 14 18 19 22 25 29
   1499243.14100  28372677.01700                    472347.66340  28372682.13840
   3249116.88600  24310355.98500                   2569659.43840  24310361.29440
  -3481726.85800  26216850.88400                  -2662610.17640  26216855.79440
  -1005541.18600  28169787.49300                   -705478.36740  28169795.71240
  -3354765.97400  24933006.08700                  -2540651.91740  24933011.06740
  33860381.60800  28128658.04000                  26439501.33640  28128662.79840
   3891183.90500  24561453.33700                   3071373.30840  24561457.32140
 96  9  5  3  1  0.0130000  0  7  4 14 18 19 22 25 29
   1539158.34200  28380272.99300                    503450.40140  28380279.04040
   3337270.18900  24327130.68800                   2638350.31740  24327136.04440
  -3502161.42900  26212962.15700                  -2678533.17740  26212967.41940
  -1041963.60300  28162856.58700                   -733859.30040  28162864.80640
  -3312846.08300  24940983.18800                  -2507987.05140  24940988.22740
  34004919.48700  28156163.30600                  26552128.25140  28156167.81740
   3935518.30400  24569889.90700                   3105919.60140  24569894.02040
 96  9  5  3  1 30.0130000  0  7  4 14 18 19 22 25 29
   1579569.99100  28387962.50100                    534939.99040  28387968.46640
   3425963.08100  24344008.53200                   2707461.64540  24344013.78240
  -3522519.81600  26209088.08700                  -2694396.81340  26209093.18440
  -1078244.47500  28155952.70400                   -762129.97640  28155959.19640
  -3270330.96200  24949073.52400                  -2474858.36640  24949078.70440
  34149464.19100  28183668.46200                  26664760.50840  28183671.29840
   3980024.15300  24578359.18800                   3140599.48940  24578363.25540
 96  9  5  3  2  0.0130000  0  7  4 14 18 19 22 25 29
   1620467.94700  28395744.86800                    566808.54740  28395749.80240
   3515172.05800  24360984.57100                   2776975.12340  24360989.88040
  -3542815.96200  26205225.88400                  -2710211.94540  26205231.20440
  -1114376.80500  28149076.73500                   -790284.96140  28149084.06340
  -3227227.61900  24957275.90700                  -2441271.33040  24957281.04040
  34294014.29700  28211176.22000                  26777396.95240  28211181.02440
   4024710.45800  24586862.87600                   3175419.99640  24586866.90740
 96  9  5  3  2 30.0130000  0  7  4 14 18 19 22 25 29
   1661862.36400  28403622.53200                    599063.95340  28403627.34940
   3604903.16900  24378059.68800                   2846895.45940  24378064.92740
  -3563062.75300  26201373.14900                  -2725988.60840  26201378.44640
  -1150347.44000  28142231.11800                   -818313.88840  28142237.28240
  -3183524.02000  24965592.26700                  -2407216.55840  24965597.54040
  34438580.88500  28238686.27400                  26890046.27040  28238691.45440
   4069592.33400  24595403.39900                   3210392.89540  24595407.47740
 96  9  5  3  3  0.0130000  0  7  4 14 18 19 22 25 29
   1703737.55700  28411591.77400                    631693.95040  28411596.87240
   3695150.22600  24395233.03200                   2917217.83040  24395238.32940
  -3583261.49000  26197529.30600                  -2741727.82540  26197534.61440
  -1186170.07100  28135413.67300                   -846227.47940  28135419.32140
  -3139241.14900  24974018.89900                  -2372710.40740  24974024.09140
  34583154.84900  28266197.78200                  27002701.30940  28266201.67340
   4114673.98700  24603982.28200                   3245521.46240  24603986.24340
 96  9  5  3  3 30.0130000  0  7  4 14 18 19 22 25 29
   1746101.22500  28419652.85200                    664704.60240  28419657.77440
   3785918.22400  24412505.75100                   2987946.13040  24412511.05940
  -3603379.78500  26193700.80600                  -2757404.34740  26193705.80940
  -1221833.04100  28128628.14200                   -874016.65140  28128634.84540
  -3094374.95600  24982556.84500                  -2337749.71740  24982562.09540
  34727734.45300  28293710.32900                  27115360.78740  28293715.04040
   4159988.33500  24612605.36000                   3280831.35040  24612609.28640
 96  9  5  3  4  0.0130000  0  7  4 14 18 19 22 25 29
   1788947.46000  28427805.83700                    698091.26440  28427811.48540
   3877178.60200  24429872.07100                   3059058.10540  24429877.49740
  -3623417.40700  26189887.83700                  -2773018.01040  26189893.29840
  -1257374.20300  28121864.58700                   -901710.93840  28121870.63440
  -3048942.76300  24991202.39200                  -2302347.91040  24991208.12240
  34872280.45500  28321216.20400                  27227994.06040  28321220.35240
   4205529.89100  24621271.60200                   3316318.26140  24621275.69240
 96  9  5  3  4 30.0130000  0  7  4 14 18 19 22 25 29
   1832284.22700  28436052.22000                    731860.14040  28436058.10240
   3968950.95500  24447335.75100                   3130569.01740  24447341.15340
  -3643359.78000  26186092.63400                  -2788557.46340  26186098.09540
  -1292807.75700  28115121.64200                   -929321.35940  28115128.40340
  -3002927.94000  24999958.89900                  -2266492.27240  24999963.93840
  35016802.40100  28348718.29800                  27340608.58840  28348721.79040
   4251298.09400  24629980.67300                   3351981.82940  24629984.64540
 96  9  5  3  5  0.0130000  0  7  4 14 18 19 22 25 29
   1876114.57400  28444393.42300                    766013.68240  28444397.58340
   4061228.85000  24464895.63400                   3202473.86140  24464901.03640
  -3663199.84500  26182317.41500                  -2804017.18840  26182322.55940
  -1328148.41500  28108396.82900                   -956859.39640  28108402.60640
  -2956332.54700  25008825.36000                  -2230184.14940  25008830.54040
  35161280.69800  28376211.22700                  27453189.08040  28376216.71240
   4297294.01000  24638733.32900                   3387822.81140  24638737.33740
 96  9  5  3  5 30.0130000  0  7  4 14 18 19 22 25 29
   1920455.24600  28452830.89200                    800564.86440  28452835.15740
   4154035.85600  24482556.05600                   3274791.00040  24482561.27040
  -3682927.12500  26178563.19600                  -2819389.03840  26178568.18840
  -1363372.07900  28101693.63400                   -984306.28740  28101699.65740
  -2909125.82600  25017808.59500                  -2193399.67540  25017813.73940
  35305733.53200  28403699.37600                  27565749.76740  28403703.66540
   4343537.77000  24647533.51700                   3423856.91940  24647537.53640
 96  9  5  3  6  0.0130000  0  7  4 14 18 19 22 25 29
   1965295.06800  28461363.47700                    835504.96740  28461368.47040
   4247362.91500  24500315.63400                   3347513.38040  24500320.79040
  -3702574.20200  26174824.48500                  -2834698.39340  26174829.93440
  -1398492.94200  28095010.40700                  -1011673.04740  28095017.44240
  -2861311.97100  25026907.07900                  -2156142.10040  25026912.22440
  35450156.18200  28431182.14900                  27678286.90240  28431187.10640
   4389996.25100  24656374.16500                   3460058.34240  24656378.17340
 96  9  5  3  6 30.0130000  0  7  4 14 18 19 22 25 29
   2010644.94600  28469993.79800                    870842.55940  28469999.34140
   4341228.50200  24518177.58700                   3420655.39140  24518183.02440
  -3722135.11000  26171101.99300                  -2849940.60640  26171107.55940
  -1433467.36600  28088354.73500                  -1038925.70040  28088361.89940
  -2812870.85800  25036125.21200                  -2118395.75740  25036130.16940
  35594574.60200  28458664.53200                  27790820.80940  28458670.05240
   4436676.33100  24665256.95400                   3496432.44240  24665261.02040
 96  9  5  3  7  0.0130000  0  7  4 14 18 19 22 25 29
   2056489.42900  28478717.76700                    906565.50340  28478723.69640
   4435608.42300  24536137.62600                   3494198.17840  24536143.07540
  -3741601.87400  26167397.50100                  -2865109.46740  26167402.22440
  -1468274.19300  28081731.21200                  -1066047.73140  28081736.91940
  -2763818.62900  25045459.65700                  -2080173.22640  25045464.75540
  35738974.16900  28486142.77400                  27903340.04240  28486148.07140
   4483578.26500  24674182.22700                   3532979.41040  24674186.18840
 96  9  5  3  7 30.0130000  0  7  4 14 18 19 22 25 29
   2102810.17800  28487531.72000                    942659.58640  28487537.06340
   4530498.69900  24554194.71200                   3568138.64440  24554200.16140
  -3760973.30200  26163711.61800                  -2880204.03940  26163716.49340
  -1502906.77000  28075140.83700                  -1093034.01040  28075147.36440
  -2714158.59900  25054909.36000                  -2041477.07840  25054914.55240
  35883357.39800  28513617.81300                  28015846.41140  28513623.39240
   4530692.35100  24683147.68100                   3569691.69040  24683151.87640
 96  9  5  3  8  0.0130000  0  7  4 14 18 19 22 25 29
   2149611.37600  28496438.22700                    979127.99540  28496443.79440
   4625896.06800  24572348.53200                   3642474.24740  24572353.85240
  -3780242.53800  26160044.48500                  -2895218.99140  26160048.85640
  -1537357.19900  28068584.08700                  -1119878.34440  28068591.07540
  -2663888.15100  25064475.77400                  -2002305.28340  25064480.56740
  36027726.19600  28541090.79800                  28128341.63740  28541094.84140
   4578019.76500  24692153.75100                   3606570.19940  24692157.82940
 96  9  5  3  8 30.0130000  0  7  4 14 18 19 22 25 29
   2196888.08900  28505434.38400                   1015966.94640  28505441.45440
   4721806.32500  24590599.35200                   3717209.50540  24590604.66140
  -3799391.32400  26156400.28200                  -2910140.08640  26156405.02840
  -1571620.30100  28062064.05600                  -1146576.71740  28062070.04440
  -2613008.18300  25074157.97700                  -1962658.53640  25074162.86440
  36172067.62200  28568558.29800                  28240815.57140  28568565.22740
   4625576.89800  24701203.70400                   3643627.71440  24701207.80640
 96  9  5  3  9  0.0130000  0  7  4 14 18 19 22 25 29
   2244636.32000  28514520.86000
   4818244.44800  24608950.93800                   3792356.08640  24608956.22440
  -3818419.45500  26152779.71200                  -2924967.16740  26152784.93840
  -1605717.72500  28055576.28200                  -1173146.03840  28055583.18840
  -2561523.16200  25083955.04000                  -1922540.32140  25083960.03240
  36316374.99300  28596018.46200                  28353262.76740  28596020.97040
   4673359.25200  24710296.27400                   3680860.72440  24710300.21240
 96  9  5  3  9 30.0130000  0  7  4 14 18 19 22 25 29
   2292874.13100  28523700.04000                      8803.34150  28523707.35640
   4915222.06400  24627405.22000                   3867923.05140  24627410.49340
  -3837344.00900  26149178.33700                  -2939713.54940  26149183.14240
  -1639662.61600  28049116.33700                  -1199596.45340  28049123.55940
  -2509435.79600  25093866.88400                  -1881952.74340  25093871.86440
                  28623475.01700
   4721360.10800  24719430.61800                   3718263.99140  24719434.73140
 96  9  5  3 10  0.0130000  0  6  4 14 18 19 22 29
   2341609.66000  28532974.28200                     46779.05040  28532980.65740
   5012751.52800  24645964.30600                   3943920.03540  24645969.64940
  -3856162.97400  26145597.10200                  -2954377.65540  26145601.87240
  -1673456.74900  28042685.29800                  -1225929.43240  28042690.91140
  -2456741.04400  25103894.21200                  -1840891.87840  25103899.12240
   4769585.20500  24728607.41500                   3755841.99840  24728611.41140
 96  9  5  3 10 30.0130000  0  6  4 14 18 19 22 29
   2390839.50400  28542341.82100                     85139.95440  28542347.49340
   5110826.43100  24664627.40700                   4020342.02940  24664632.86840
  -3874878.22400  26142035.63400                  -2968960.93240  26142040.77840
  -1707122.88700  28036278.85200                  -1252162.64840  28036285.89940
  -2403450.06400  25114035.25900                  -1799366.42140  25114040.33340
   4818029.65700  24737826.14200                   3793590.93240  24737830.14940
 96  9  5  3 11  0.0130000  0  6  4 14 18 19 22 29
   2440561.43200  28551804.19600                    123884.31540  28551810.37240
   5209423.50300  24683389.82900                   4097170.90540  24683395.17340
  -3893492.76600  26138493.42300                  -2983465.75240  26138498.36840
  -1740664.10700  28029895.86000                  -1278298.51340  28029903.50540
  -2349568.42300  25124288.51700                  -1757380.70940  25124293.54440
   4866686.11700  24747085.22000                   3831505.06340  24747089.15740
 96  9  5  3 11 30.0130000  0  6  4 14 18 19 22 29
   2490783.02400  28561360.91500                    163018.02840  28561367.80940
   5308519.62800  24702247.32100                   4174388.65640  24702252.70040
  -3911996.36200  26134972.49300                  -2997884.11440  26134977.72040
  -1774068.51200  28023539.73500                  -1304327.82140  28023544.21240
  -2295089.21600  25134655.43800                  -1714929.36440  25134660.36040
   4915575.14100  24756388.55600                   3869600.41540  24756392.47040
 96  9  5  3 12  0.0130000  0  6  4 14 18 19 22 29
   2541494.49900  28571010.50100                    202533.43940  28571015.43440
   5408114.80500  24721199.52400                   4251995.27440  24721205.02040
  -3930387.71000  26131472.69600                  -3012215.00940  26131477.78240
  -1807345.10000  28017206.63400                  -1330257.59040  28017212.31740
  -2240005.52600  25145137.64200                  -1672006.98940  25145142.51740
   4964704.65300  24765737.49300                   3907883.15940  24765741.53640
 96  9  5  3 12 30.0130000  0  6  4 14 18 19 22 29
   2592694.84300  28580754.40700                    242429.81040  28580759.48140
   5508188.29300  24740242.94600                   4329974.60140  24740248.39540
  -3948670.63900  26127993.79000                  -3026461.42240  26127998.55940
  -1840491.15800  28010898.68100                  -1356085.54640  28010904.01340
  -2184323.87200  25155733.71200                  -1628618.67140  25155738.73940
   5014060.94700  24775129.57900                   3946342.61640  24775133.54040
 96  9  5  3 13  0.0130000  0  6  4 14 18 19 22 29
   2644378.99000  28590589.41500                    282703.15440  28590594.79440
   5608734.60800  24759376.36800                   4408322.37440  24759381.86440
  -3966844.90800  26124535.32100                  -3040623.15640  26124540.20840
  -1873483.83700  28004620.14900                  -1381794.02340  28004627.14940
  -2128035.40900  25166444.89900                  -1584757.50840  25166449.68140
   5063648.24900  24784565.65700                   3984982.07740  24784569.72440
 96  9  5  3 13 30.0130000  0  6  4 14 18 19 22 29
   2696547.92400  28600516.71200                    323354.22940  28600522.14940
   5709774.14200  24778603.25900                   4487054.46840  24778608.64940
  -3984912.51500  26121097.16500                  -3054701.78340  26121102.04040
  -1906326.75100  27998370.22000                  -1407385.74440  27998376.64240
  -2071138.13000  25177272.12600                  -1540421.94940  25177276.88440
   5113472.26300  24794047.12600                   4023805.99040  24794051.22740
 96  9  5  3 14  0.0140000  0  6  4 14 18 19 22 29
   2749193.87700  28610534.88100                    364377.05440  28610540.41240
   5811325.83800  24797928.29500                   4566185.65440  24797933.68540
  -4002876.30400  26117678.49000                  -3068699.51440  26117683.33040
  -1939023.93500  27992148.66200                  -1432863.95140  27992155.70940
  -2013634.40800  25188214.48200                  -1495613.83640  25188219.29940
   5163510.94800  24803568.95900                   4062797.18140  24803572.92040
 96  9  5  3 14 30.0140000  0  6  4 14 18 19 22 29
   2802312.51000  28620643.58400                    405768.14840  28620648.60040
   5913379.74600  24817348.35700                   4645708.17040  24817353.79540
  -4020711.39400  26114284.81800                  -3082596.95740  26114289.60040
  -1971544.82400  27985960.01400                  -1458204.79940  27985967.20140
  -1955520.49200  25199273.31800                  -1450330.24140  25199278.01740
   5213770.57700  24813133.24000                   4101960.53640  24813137.28340
 96  9  5  3 15  0.0140000  0  6  4 14 18 19 22 29
   2855899.59100  28630840.12300                    447524.33240  28630845.52540
   6015949.76500  24836866.80300                   4725632.84740  24836872.27540
  -4038422.98800  26110914.02100                  -3096398.16340  26110918.97840
  -2003903.82200  27979802.01400                  -1483419.50740  27979808.69340
  -1896799.50700  25210447.68500                  -1404573.61840  25210452.60740
   5264266.11500  24822742.07600                   4141307.71640  24822746.18940
 96  9  5  3 15 30.0140000  0  6  4 14 18 19 22 29
   2909976.22800  28641130.60000                    489661.90740  28641137.43240
   6119063.94200  24856488.64600                   4805981.55040  24856494.08440
  -4056010.92900  26107566.99000                  -3110103.02840  26107571.93540
  -2036101.15300  27973675.18500                  -1508508.22940  27973680.97540
  -1837470.44300  25221737.56800                  -1358343.15840  25221742.40840
   5315010.64400  24832398.40400                   4180848.91740  24832402.43540
 96  9  5  3 16  0.0140000  0  6  4 14 18 19 22 29
   2964535.76600  28651512.70900                    532175.84340  28651518.48640
   6222713.43000  24876212.67000                   4886747.37340  24876218.28340
  -4073476.63100  26104243.84200                  -3123712.64140  26104248.43540
  -2068135.01000  27967579.06000                  -1533469.54740  27967586.31840
  -1777532.25900  25233143.45100                  -1311638.06240  25233148.31440
   5366009.38500  24842103.09200                   4220588.20540  24842107.05340
 96  9  5  3 16 30.0140000  0  6  4 14 18 19 22 29
   3019570.48600  28661985.31800                    575060.01840  28661991.92840
   6326876.52900  24896034.21700                   4967913.41540  24896039.59640
  -4090835.32200  26100940.43500                  -3137238.86440  26100945.20540
  -2100013.26500  27961512.89600                  -1558309.63440  27961517.94740
  -1716991.68600  25244663.58400                  -1264463.57040  25244668.57640
   5417270.35300  24851857.87300                   4260531.83140  24851861.89240
 96  9  5  3 17  0.0140000  0  6  4 14 18 19 22 29
   3075066.87000  28672546.70100                    618303.92040  28672551.51740
   6431534.22200  24915950.04500                   5049464.85540  24915955.49440
  -4108113.80900  26097652.49000                  -3150702.59640  26097657.48240
  -2131767.25000  27955470.01400                  -1583052.91140  27955476.21340
  -1655869.28600  25256294.73200                  -1216835.70440  25256299.70140
   5468772.46500  24861658.38900                   4300663.35940  24861662.38540
 96  9  5  3 17 30.0140000  0  6  4 14 18 19 22 29
   3131030.38600  28683196.49000                    661911.80740  28683202.30340
   6536677.85500  24935958.07600                   5131394.95140  24935963.46740
  -4125292.90100  26094383.10700                  -3164088.88240  26094388.45140
  -2163373.40300  27949455.74800                  -1607681.00940  27949461.85340
  -1594150.38400  25268039.67800                  -1168743.03340  25268044.60040
   5520520.54000  24871505.67000                   4340986.54240  24871509.52540
 96  9  5  3 18  0.0140000  0  6  4 14 18 19 22 29
   3187447.55900  28693931.53700                    705873.23440  28693936.18940
   6642288.11900  24956055.02100                   5213688.65640  24956060.41240
  -4142358.91400  26091135.49000                  -3177387.05640  26091140.65840
  -2194833.06600  27943469.49000                  -1632194.94240  27943476.71340
  -1531823.96200  25279900.00600                  -1120176.97940  25279904.95140
   5572506.63900  24881398.31800                   4381495.19540  24881402.27940
 96  9  5  3 18 30.0140000  0  6  4 14 18 19 22 29
   3244343.35700  28704758.94300                    750207.60340  28704765.00240
   6748368.37500  24976241.39600                   5296348.58640  24976246.78740
  -4159301.21800  26087911.52100                  -3190588.84040  26087916.67840
  -2226125.47300  27937515.11500                  -1656578.54440  27937520.98640
  -1468890.14100  25291875.96700                  -1071137.62140  25291880.85340
   5624723.20700  24891334.86500                   4422183.44340  24891338.75640
 96  9  5  3 19  0.0140000  0  6  4 14 18 19 22 29
   3301731.86800  28715679.70100                    794925.87540  28715685.87740
   6854928.16800  24996519.19300                   5379382.17840  24996524.79540
  -4176112.72200  26084712.60000                  -3203688.69740  26084717.33440
  -2257239.03400  27931593.78700                  -1680822.81140  27931599.77540
  -1405350.36400  25303967.01400                  -1021626.09440  25303971.99440
   5677168.22800  24901314.72500                   4463049.69940  24901318.74440
 96  9  5  3 19 30.0140000  0  6  4 14 18 19 22 29
   3359619.38300  28726695.24000                    840033.02840  28726701.48640
   6961979.96800  25016890.51400                   5462799.15940  25016895.79940
  -4192792.62000  26081538.40400                  -3216686.00240  26081543.26740
  -2288163.99700  27925709.06000                  -1704920.10640  27925715.28340
  -1341207.93000  25316172.86500                   -971644.96840  25316177.88140
   5729837.62100  24911337.26400                   4504090.79340  24911341.15440
 96  9  5  3 20  0.0140000  0  6  4 14 18 19 22 29
   3418010.24000  28737805.67000                    885532.37740  28737810.89640
   7069534.27200  25037357.41200                   5546607.69640  25037362.75640
  -4209352.20800  26078387.31000                  -3229589.56440  26078392.19740
  -2318908.53000  27919857.90400                  -1728876.80640  27919863.24840
  -1276480.06000  25328490.11500                   -921207.65040  25328494.99040
   5782717.67900  24921400.12300                   4545296.04340  24921403.96740
 96  9  5  3 20 30.0140000  0  6  4 14 18 19 22 29
   3476921.59500  28749017.38900                    931437.29940  28749023.23640
   7177612.44200  25057924.02900                   5630824.43940  25057929.25640
  -4225768.72700  26075263.02100                  -3242381.64740  26075267.81440
  -2349448.73100  27914047.10000                  -1752674.30040  27914053.08840
  -1211160.75100  25340920.00600                   -870309.47940  25340924.92840
   5835837.78800  24931508.38100                   4586688.33940  24931512.37740
 96  9  5  3 21  0.0140000  0  6  4 14 18 19 22 29
   3536296.80400  28760315.63100                    977703.63340  28760320.01440
   7286188.05000  25078585.21700                   5715428.80140  25078590.67840
  -4242059.29700  26072163.21700                  -3255075.57740  26072168.13940
  -2379827.95500  27908265.93500                  -1776346.37140  27908272.06440
  -1145269.72000  25353458.75600                   -818965.80340  25353463.68940
   5889179.54100  24941658.95100                   4628253.34640  24941663.05340
 96  9  5  3 21 30.0140000  0  6  4 14 18 19 22 29
   3596124.60500  28771700.69300                   1024322.68940  28771706.09640
   7395263.83600  25099341.77100                   5800422.90240  25099347.10340
  -4258208.15700  26069090.24800                  -3267659.09340  26069095.31040
  -2410056.78400  27902513.17000                  -1799901.22940  27902518.43240
  -1078792.60300  25366108.88100                   -767165.44240  25366113.86140
   5942758.72200  24951854.92800                   4670003.35840  24951858.91240
 96  9  5  3 22  0.0140000  0  6  4 14 18 19 22 29
   3656375.05400  28783165.95100                   1071271.05940  28783171.82240
   7504809.10100  25120187.59200                   5885782.83840  25120193.05340
  -4274218.36600  26066043.63100                  -3280134.56340  26066048.50640
  -2440157.41600  27896785.09200                  -1823356.16040  27896791.50240
  -1011735.30800  25378869.39600                   -714912.99140  25378874.48240
   5996575.90100  24962096.06000                   4711938.82740  24962100.04540
 96  9  5  3 22 30.0140000  0  6  4 14 18 19 22 29
   3717026.40000  28794707.82600                   1118531.83640  28794713.68540
   7614795.94500  25141117.35700                   5971486.86540  25141122.76040
  -4290097.31400  26063022.01400                  -3292507.75540  26063026.58440
  -2470153.07700  27891077.42000                  -1846729.32340  27891083.17440
   -944103.08300  25391739.50600                   -662212.54440  25391744.45140
   6050621.28000  24972380.49000                   4754052.10540  24972384.40440
 96  9  5  3 23  0.0140000  0  6  4 14 18 19 22 29
   3778098.67200  28806328.68500                   1166120.56040  28806334.01740
   7725233.93600  25162132.78700                   6057542.43440  25162138.30740
  -4305849.08900  26060024.15400                  -3304781.84640  26060029.04140
  -2500033.57900  27885391.35000                  -1870012.78140  27885396.91640
   -875878.68700  25404721.98200                   -609050.65840  25404727.03340
   6104906.89900  24982710.70900                   4796352.58640  24982714.64640
 96  9  5  3 23 30.0140000  0  6  4 14 18 19 22 29
   3839612.01300  28818034.99800                   1214053.07540  28818039.74440
   7836116.40000  25183232.97500                   6143944.34740  25183238.41240
  -4321486.07700  26057048.63100                  -3316966.49640  26057053.63540
  -2529792.80000  27879728.02900                  -1893201.68240  27879734.24040
   -807080.69000  25417813.90400                   -555441.81540  25417818.79140
   6159431.40300  24993086.31800                   4838839.21540  24993090.22140
 96  9  5  3 24  0.0140000  0  6  4 14 18 19 22 29
   3901591.33700  28829828.78700                   1262348.60640  28829834.62340
   7947454.97400  25204420.02900                   6230701.66840  25204425.44340
  -4337010.25400  26054094.70900                  -3329063.22640  26054099.45540
  -2559403.60800  27874093.10700                  -1916274.96840  27874099.27140
   -737707.41000  25431015.31800                   -501384.69840  25431020.28740
   6214196.27000  25003507.81000                   4881513.13640  25003511.61940
 96  9  5  3 24 30.0140000  0  6  4 14 18 19 22 29
   3964067.06900  28841717.68500                   1311030.97740  28841722.52540
   8059264.66100  25225696.73200                   6317826.09040  25225702.17040
  -4352426.83300  26051160.53700                  -3341076.11540  26051165.52940
  -2588846.24500  27868490.38900                  -1939217.17440  27868496.09640
   -667744.30700  25444328.74000                   -446867.98140  25444333.69740
   6269215.65000  25013977.61500                   4924385.38540  25013981.48240
 96  9  5  3 25  0.0140000  0  6  4 14 18 19 22 29
   4027046.61200  28853702.48200                   1360105.92940  28853707.07640
   8171551.88200  25247064.38900                   6405322.61240  25247069.83840
  -4367730.25300  26048249.03700                  -3353000.82840  26048253.78340
  -2618103.73300  27862922.57600                  -1962015.14440  27862928.54140
   -597179.46600  25457756.68500                   -391882.37440  25457761.76040
   6324505.31100  25024498.78700                   4967468.23940  25024502.72540
 96  9  5  3 25 30.0140000  0  6  4 14 18 19 22 29
   4090527.70700  28865782.76400                   1409571.66640  28865787.59240
   8284317.31300  25268522.77100                   6493191.77040  25268528.39640
  -4382911.63100  26045359.85700                  -3364830.44640  26045364.73240
  -2647182.05900  27857389.02100                  -1984673.49840  27857395.01040
   -526011.34500  25471299.66200                   -336426.68540  25471304.67840
   6380051.32600  25035068.77100                   5010750.84740  25035072.87340
 96  9  5  3 26  0.0140000  0  6  4 14 18 19 22 29
   4154491.70100  28877954.25600                   1459413.72040  28877958.35740
   8397550.02100  25290070.34200                   6581425.03340  25290075.87340
  -4397982.81800  26042491.70100                  -3376574.19940  26042496.81040
  -2676099.33100  27851886.22500                  -2007206.34340  27851892.07240
   -454230.34600  25484958.87300                   -280493.41940  25484963.73640
   6435843.71100  25045685.89600                   5054225.43740  25045689.90440
 96  9  5  3 26 30.0140000  0  6  4 14 18 19 22 29
   4218931.13900  28890217.40400                   1509626.26940  28890221.99840
   8511255.32500  25311707.81800                   6670026.55240  25311713.42040
  -4412935.43200  26039646.70100                  -3388225.56340  26039651.37740
  -2704853.71800  27846414.60700                  -2029612.26940  27846420.93540
   -381838.50000  25498734.67800                   -224084.17640  25498739.67040
   6491887.69300  25056350.54500                   5097896.07040  25056354.54140
 96  9  5  3 27  0.0140000  0  6  4 14 18 19 22 29
   4283820.76900  28902565.16200                   1560189.61240  28902569.93240
   8625442.10300  25333436.74000                   6759003.24840  25333442.14240
  -4427756.21700  26036826.06000                  -3399774.20040  26036830.91240
  -2733451.56300  27840972.42800                  -2051896.22640  27840978.05340
   -308857.25900  25512622.52100                   -167215.66540  25512627.59640
   6548161.33800  25067059.01400                   5141745.66540  25067063.04540
 96  9  5  3 27 30.0140000  0  6  4 14 18 19 22 29
   4349159.55700  28914999.16200                   1611102.93240  28915004.58840
   8740134.89800  25355262.24000                   6848374.24940  25355267.66640
  -4442424.06100  26034034.86500                  -3411203.66740  26034039.71740
  -2761881.89000  27835561.76400                  -2074049.65040  27835567.52940
   -235287.89100  25526622.31800                   -109888.87840  25526627.26440
   6604668.43400  25077812.10700                   5185777.16640  25077816.04540
 96  9  5  3 28  0.0140000  0  6  4 14 18 19 22 29
   4414915.54000  28927511.88100                   1662341.36040  28927516.90840
   8855312.44400  25377179.93500                   6938122.96840  25377185.30340
  -4456955.09500  26031269.84200                  -3422526.52840  26031274.74040
  -2790146.48100  27830183.77900                  -2096073.89340  27830190.44740
   -161162.16300  25540728.15400                    -52128.56040  25540732.99440
   6661400.60500  25088607.95100                   5229984.06040  25088611.80740
 96  9  5  3 28 30.0140000  0  6  4 14 18 19 22 29
   4481089.06900  28940103.82600                   1713905.11340  28940108.54940
   8970984.69700  25399191.35000                   7028257.17940  25399196.79940
  -4471323.74400  26028535.35700                  -3433722.86240  26028540.51440
  -2818230.93700  27824839.24000                  -2117957.79540  27824844.92440
    -86483.51600  25554939.03700                      6062.60440  25554943.66640
   6718359.43400  25099446.77900                   5274367.56640  25099450.69340
 96  9  5  3 29  0.0150000  0  6  4 14 18 19 22 29
   4547671.02200  28952774.69000                   1765787.15540  28952780.67940
   9087125.14300  25421292.37000                   7118756.21640  25421297.86640
  -4485530.11500  26025832.23700                  -3444792.75140  26025837.19440
  -2846158.65100  27819524.56500                  -2139719.54740  27819530.70640
    -11252.79800  25569254.72200                     64683.95140  25569259.52640
   6775537.46900  25110327.39300                   5318921.88440  25110331.30840
 96  9  5  3 29 30.0150000  0  6  4 14 18 19 22 29
   4614679.50000  28965525.53400                   1818001.51740  28965532.05040
   9203710.43100  25443477.63600                   7209601.88340  25443483.20240
  -4499582.02200  26023158.23700                  -3455742.26940  26023163.14740
  -2873925.46000  27814240.77600                  -2161355.95140  27814246.74140
     64536.92600  25583677.05000                    123740.89140  25583681.93640
   6832954.84800  25121253.27600                   5363662.70440  25121257.23740
 96  9  5  3 30  0.0150000  0  6  4 14 18 19 22 29
   4682147.68100  28978364.22200                   1870574.09840  28978369.88240
   9320733.90800  25465746.66700                   7300788.99340  25465752.10440
  -4513485.29500  26020512.42500                  -3466575.97840  26020517.17140
  -2901525.98700  27808988.65100                  -2182862.75240  27808993.90140
    140908.89600  25598210.45600                    183251.52040  25598215.21440
   6890636.66200  25132230.01100                   5408609.57840  25132233.98340
 96  9  5  3 30 30.0150000  0  6  4 14 18 19 22 29
   4750081.82100  28991291.19800                   1923509.79940  28991296.09740
   9438186.97700  25488097.02600                   7392310.85540  25488102.56940
  -4527240.64100  26017894.55000                  -3477294.42140  26017899.30840
  -2928979.97000  27803764.48700                  -2204255.38640  27803770.48740
    217874.75000  25612856.49500                    243224.92540  25612861.41740
   6948590.05100  25143258.26100                   5453768.06540  25143262.17540
 96  9  5  3 31  0.0150000  0  6  4 14 18 19 22 29
   4818505.93900  29004312.30800                   1976827.25840  29004318.39040
   9556081.24200  25510531.69000                   7484176.50440  25510537.25740
  -4540842.74600  26015306.38600                  -3487893.45240  26015311.47240
  -2956268.33000  27798571.17500                  -2225518.98340  27798576.94040
    295453.97200  25627619.19800                    303676.27740  25627623.96840
   7006850.04700  25154344.65900                   5499165.46540  25154348.69040
 96  9  5  3 31 30.0150000  0  6  4 14 18 19 22 29
   4887380.93300  29017419.04200                   2030496.05740  29017425.37040
   9674392.56900  25533045.69800                   7576367.13540  25533051.11240
  -4554327.55000  26012740.23700                  -3498401.07640  26012744.79640
  -2983407.97400  27793406.60400                  -2246666.67540  27793412.28840
    373614.72300  25642492.64300                    364580.76740  25642497.55440
   7065391.04300  25165484.62800                   5544781.82840  25165488.67140
 96  9  5  3 32  0.0150000  0  6  4 14 18 19 22 29
   4956686.71000  29030606.81500                   2084500.54540  29030612.12440
   9793120.27300  25555638.76800                   7668882.21440  25555644.22940
  -4567669.33600  26010201.35400                  -3508797.25940  26010206.20640
  -3010398.63200  27788270.05800                  -2267698.28940  27788275.91740
    452359.86800  25657477.41700                    425940.63140  25657482.42140
   7124201.71700  25176676.03400                   5590608.32440  25176680.08940
 96  9  5  3 32 30.0150000  0  6  4 14 18 19 22 29
   5026420.30600  29043876.85400                   2138838.37540  29043883.20640
   9912282.50800  25578314.69000                   7761735.89540  25578320.14040
  -4580830.38000  26007697.07300                  -3519052.61040  26007701.63240
  -3037221.83600  27783165.99500                  -2288599.43840  27783171.74940
    531689.67800  25672573.37800                    487756.07940  25672578.30040
   7183285.67600  25187919.23700                   5636647.76940  25187923.25740
 96  9  5  3 33  0.0150000  0  6  4 14 18 19 22 29
   5096578.14100  29057228.55800                   2193506.81840  29057233.92540
  10031894.43600  25601075.90100                   7854939.98540  25601081.46840
  -4593803.19100  26005228.30000                  -3529161.28240  26005233.16340
  -3063854.87700  27778098.58900                  -2309352.39940  27778104.78840
    611600.39500  25687779.72200                    550024.17840  25687784.78440
   7242635.88000  25199213.20600                   5682894.67840  25199217.14340
 96  9  5  3 33 30.0150000  0  6  4 14 18 19 22 29
   5167147.27400  29070656.65100                   2248495.73440  29070661.25740
  10151954.33300  25623922.51800                   7948493.14240  25623928.02640
  -4606590.55000  26002794.85400                  -3539125.44540  26002799.49540
  -3090304.45900  27773064.51800                  -2329962.40940  27773070.10840
    692082.26800  25703095.17500                    612737.34240  25703099.94440
   7302236.86600  25210554.85400                   5729337.00540  25210558.76840
 96  9  5  3 34  0.0150000  0  6  4 14 18 19 22 29
   5238130.40900  29084164.83100                   2303807.21940  29084169.90540
  10272457.65200  25646853.59700                   8042391.82040  25646859.09340
  -4619207.45300  26000394.08900                  -3548956.77740  26000398.82340
  -3116582.17700  27768064.51100                  -2350438.51540  27768070.34740
    773125.28400  25718517.12000                    675887.75740  25718521.86640
   7362074.81500  25221941.80000                   5775963.97840  25221945.78440
 96  9  5  3 34 30.0150000  0  6  4 14 18 19 22 29
   5309548.91000  29097755.45600                   2359458.05840  29097761.96040
  10393423.40300  25669872.65900                   8136650.83840  25669878.26140
  -4631670.37500  25998022.47900                  -3558668.13240  25998027.34340
  -3142672.39200  27763100.15100                  -2370768.50840  27763106.10440
    854735.58600  25734046.95600                    739480.21740  25734051.46840
   7422166.31500  25233376.81500                   5822788.52240  25233380.62440
 96  9  5  3 35  0.0150000  0  6  4 14 18 19 22 29
   5381404.09300  29111428.43300                   2415449.06340  29111433.14340
  10514851.53000  25692979.69800                   8231270.15340  25692985.34740
  -4644004.49900  25995675.29200                  -3568279.12140  25995680.27240
  -3168584.88300  27758168.48700                  -2390960.01040  27758174.35840
    936912.39900  25749684.76100                    803514.10940  25749689.54240
   7482509.73100  25244859.82300                   5869809.36740  25244863.64340
 96  9  5  3 35 30.0150000  0  6  4 14 18 19 22 29
   5453717.81900  29125189.83900                   2471797.39240  29125196.29640
  10636749.67200  25716176.13600                   8326255.70540  25716181.85440
  -4656201.33600  25993354.47900                  -3577783.12540  25993358.88640
  -3194319.72800  27753271.01800                  -2411013.10640  27753276.39740
   1019669.36200  25765432.76800                    868000.06940  25765437.39740
   7543126.20900  25256394.49500                   5917042.98540  25256398.63240
 96  9  5  3 36  0.0150000  0  6  4 14 18 19 22 29
   5526487.80600  29139037.34700                   2528501.29440  29139040.95640
  10759114.54400  25739461.47900                   8421604.94340  25739467.15140
  -4668261.66500  25991059.26100                  -3587180.76640  25991064.12440
  -3219891.71200  27748405.19800                  -2430939.28840  27748410.97540
   1103001.66700  25781290.37800                    932934.34540  25781295.18340
   7604008.88100  25267980.18300                   5964484.02640  25267984.21440
 96  9  5  3 36 30.0150000  0  6  4 14 18 19 22 29
   5599711.76700  29152970.89300                   2585558.88640  29152977.31540
  10881950.04000  25762836.21400                   8517320.90340  25762841.74540
  -4680167.00500  25988793.87000                  -3596457.63140  25988798.83940
  -3245298.12500  27743569.76800                  -2450736.45540  27743575.35840
   1186910.49400  25797257.55000                    998317.85940  25797262.29640
   7665172.28800  25279619.37000                   6012143.82440  25279623.23740
 96  9  5  3 37  0.0150000  0  6  4 14 18 19 22 29
   5673382.13500  29166990.35400                   2642964.34440  29166996.48340
  11005236.50500  25786296.82300                   8613388.26940  25786302.30840
  -4691898.95700  25986561.09700                  -3605599.39440  25986565.83140
  -3270550.13500  27738764.83100                  -2470413.33340  27738770.37440
   1271393.44200  25813334.12800                   1064148.73740  25813338.95640
   7726608.04800  25291310.01800                   6060015.84740  25291313.94440
 96  9  5  3 37 30.0150000  0  6  4 14 18 19 22 29
   5747476.43800  29181090.15900                   2700700.13640  29181094.02640
  11128949.43900  25809838.59700                   8709787.94540  25809843.99940
  -4703455.70500  25984361.86200                  -3614604.63740  25984366.59740
  -3295646.20700  27733989.27600                  -2489968.68940  27733995.40540
   1356433.39900  25829516.60400                   1130413.65040  25829521.45640
   7788307.71200  25303050.94000                   6108093.50740  25303054.87840
 96  9  5  3 38  0.0150000  0  6  4 14 18 19 22 29
   5821992.61900  29195269.97200                   2758764.63140  29195273.79240
  11253075.81700  25833459.19800                   8806509.78540  25833464.55440
  -4714824.19000  25982198.65900                  -3623463.17540  25982203.66340
  -3320566.97200  27729247.12800                  -2509387.43340  27729252.72940
   1442028.77000  25845804.78400                   1197111.35440  25845809.57740
   7850272.92100  25314842.76800                   6156378.09040  25314846.70640
 96  9  5  3 38 30.0150000  0  6  4 14 18 19 22 29
   5896945.07300  29209533.66700                   2817169.09740  29209539.23340
  11377615.79100  25857158.25300                   8903553.90540  25857163.63240
  -4725980.88400  25980075.44800                  -3632156.68440  25980080.46440
  -3345281.11700  27724543.86200                  -2528645.18540  27724549.90940
   1528187.25100  25862200.27600                   1264247.83940  25862205.17540
   7912522.36900  25326688.32300                   6204884.15740  25326692.46040
 96  9  5  3 39  0.0150000  0  6  4 14 18 19 22 29
   5972324.31000  29223877.11200                   2875906.18440  29223882.62040
  11502555.83500  25880933.51800                   9000909.77540  25880939.06140
  -4736947.29000  25977988.57300                  -3640701.90940  25977993.53040
  -3369796.60900  27719878.82300                  -2547748.10540  27719884.74140
   1614893.05700  25878699.87000                   1331810.81740  25878704.66340
   7975040.14300  25338585.08900                   6253599.31140  25338589.15540
 96  9  5  3 39 30.0150000  0  6  4 14 18 19 22 29
   6048128.19700  29238302.46400                   2934974.10840  29238307.01140
  11627903.91600  25904786.45600                   9098583.58540  25904792.08140
  -4747730.46500  25975936.96400                  -3649104.37340  25975941.69840
  -3394107.46600  27715252.47200                  -2566691.59340  27715258.43640
   1702145.26100  25895303.40100                   1399799.55040  25895308.37040
   8037835.87800  25350534.78400                   6302531.05640  25350538.83940
 96  9  5  3 40  0.0150000  0  6  4 14 18 19 22 29
   6124356.94700  29252807.60400                   2994373.10240  29252811.33140
  11753650.67600  25928715.52600                   9196568.06040  25928721.35040
  -4758340.64500  25973917.69800                  -3657372.02640  25973922.42140
  -3418240.40500  27710660.17500                  -2585496.45640  27710666.26840
   1789948.20000  25912011.97200                   1468217.43640  25912016.83540
   8100898.32000  25362535.15900                   6351670.62640  25362539.00340
 96  9  5  3 40 30.0150000  0  6  4 14 18 19 22 29
   6200997.82500  29267392.02600                   3054093.23640  29267397.51140
  11879800.18300  25952720.77600                   9294866.36940  25952726.21440
  -4768791.79200  25971928.97900                  -3665515.76340  25971933.50340
  -3442223.94800  27706096.90100                  -2604184.87740  27706102.89040
   1878301.95300  25928824.73700                   1537064.52640  25928829.53040
   8164219.90800  25374584.86200                   6401012.13240  25374588.69440
 96  9  5  3 41  0.0150000  0  6  4 14 18 19 22 29
   6278045.37400  29282053.55800                   3114130.27840  29282057.35440
  12006363.14200  25976805.13600                   9393486.83840  25976810.66740
  -4779085.53200  25969969.92500                  -3673536.85040  25969974.50740
  -3466048.43300  27701562.51800                  -2622749.36940  27701568.62440
   1967222.50500  25945745.71400                   1606353.27540  25945750.65940
   8227807.46800  25386685.25300                   6450560.88240  25386689.21440
 96  9  5  3 41 30.0150000  0  6  4 14 18 19 22 29
   6355501.73500  29296793.79200                   3174485.78940  29296798.24540
  12133342.52100  26000968.30800                   9492431.79240  26000973.75740
  -4789200.69100  25968045.09700                  -3681418.78040  25968049.55040
  -3489703.89100  27697061.15100                  -2641182.13140  27697066.64740
   2056720.83900  25962776.87000                   1676092.24140  25962781.62840
   8291672.44200  25398838.22900                   6500325.79840  25398842.22540
 96  9  5  3 42  0.0150000  0  6  4 14 18 19 22 29
   6433360.38500  29311609.33100                   3235154.91040  29311618.75740
  12260741.87200  26025211.42500                   9591704.00140  26025217.13240
  -4799123.33900  25966156.80000                  -3689150.69940  25966161.75740
  -3513187.04400  27692592.71400                  -2659480.66440  27692598.53840
   2146783.20000  25979915.13600                   1746270.71240  25979919.87040
   8355811.82900  25411043.44000                   6550304.54240  25411047.46040
 96  9  5  3 42 30.0150000  0  6  4 14 18 19 22 29
   6511607.68700  29326498.62000                   3296126.82740  29326502.39340
  12388562.44300  26049535.06500                   9691304.43440  26049540.60840
  -4808864.18200  25964303.15100                  -3696740.96240  25964307.99140
  -3536489.37800  27688158.01100                  -2677638.27740  27688163.90540
   2237382.91000  25997155.92500                   1816867.89340  25997160.80040
   8420216.40700  25423299.29200                   6600489.92440  25423303.33540
 96  9  5  3 43  0.0150000  0  6  4 14 18 19 22 29
   6590243.28100  29341463.28400                   3357401.30940  29341467.76140
  12516798.59200  26073937.87000                   9791228.69740  26073943.36640
  -4818423.25500  25962484.41700                  -3704189.57240  25962489.19840
  -3559595.35400  27683761.12800                  -2695642.86540  27683766.90540
   2328510.19900  26014496.75300                   1887876.18040  26014501.62840
   8484884.20800  25435605.19000                   6650880.41640  25435609.18640
 96  9  5  3 43 30.0150000  0  6  4 14 18 19 22 29
   6669273.94300  29356501.48700                   3418983.62740  29356502.57740
  12645443.43000  26098418.07300                   9891471.41940  26098423.51140
  -4827800.06000  25960699.95600                  -3711496.16540  25960704.80840
  -3582517.82200  27679398.93300                  -2713504.48940  27679404.56940
   2420156.50200  26031936.30800                   1959288.89040  26031941.20640
   8549814.26400  25447960.97200                   6701475.26940  25447965.03840
 96  9  5  3 44  0.0150000  0  6  4 14 18 19 22 29
   6748723.83900  29371620.62800                   3480892.59340  29371623.53440
  12774513.09500  26122979.14300                   9992045.18040  26122984.76840
  -4836984.61600  25958952.00300                  -3718652.94340  25958956.59740
  -3605234.88400  27675076.23700                  -2731206.02540  27675082.17940
   2512345.96100  26049479.65100                   2031124.84840  26049484.36240
   8615023.06700  25460369.74500                   6752287.32340  25460373.85840
 96  9  5  3 44 30.0160000  0  6  4 14 18 19 22 29
   6828596.55400  29386820.96100                   3543131.06640  29386827.72340
  12903987.54500  26147617.15600                  10092934.34640  26147623.01640
  -4845991.91100  25957238.18000                  -3725671.59740  25957243.03140
  -3627755.01900  27670790.82000                  -2748754.12640  27670796.48040
   2605099.92500  26067129.89800                   2103400.66840  26067134.63340
   8680519.22200  25472833.32800                   6803323.28840  25472837.37140
 96  9  5  3 45  0.0160000  0  6  4 14 18 19 22 29
   6908897.88400  29402100.10900                   3605703.49940  29402104.25840
  13033863.36800  26172331.71900                  10194136.27540  26172337.25040
  -4854796.08000  25955562.39800                  -3732531.97240  25955567.30840
  -3650068.15700  27666544.39100                  -2766140.94440  27666550.85940
   2698435.15600  26084891.03900                   2176129.43240  26084895.92640
   8746331.11700  25485356.96900                   6854605.28340  25485360.84840
 96  9  5  3 45 30.0160000  0  6  4 14 18 19 22 29
   6989625.29600  29417462.11700                   3668607.84440  29417466.80540
  13164136.75900  26197121.99200                  10295647.99940  26197127.72340
  -4863390.74600  25953927.21900                  -3739229.09240  25953932.02340
  -3672184.35200  27662335.82800                  -2783374.28740  27662341.59440
   2792354.42000  26102763.32000                   2249313.27640  26102767.93740
   8812473.55700  25497943.43000                   6906144.84440  25497947.41440
 96  9  5  3 46  0.0160000  0  6  4 14 18 19 22 29
   7070771.40800  29432903.59400                   3731838.61640  29432911.25040
  13294801.06300  26221986.66400                  10397464.32940  26221992.18340
  -4871780.91100  25952330.60100                  -3745766.85440  25952335.40640
  -3694112.04300  27658163.31200                  -2800460.74540  27658169.41840
   2886849.60200  26120745.19500                   2322945.89440  26120750.17640
   8878939.69100  25510591.49200                   6957936.63240  25510595.23040
 96  9  5  3 46 30.0160000  0  6  4 14 18 19 22 29
   7152322.20900  29448423.46900                   3795384.59640  29448427.79340
  13425853.89300  26246925.15600                  10499583.40040  26246930.94540
  -4879965.15300  25950773.02300                  -3752144.16140  25950777.86340
  -3715859.01700  27654024.48400                  -2817406.40040  27654031.03540
   2981905.35400  26138833.46100                   2397015.32140  26138838.28940
   8945721.41600  25523299.65600                   7009974.33740  25523303.51240
 96  9  5  3 47  0.0160000  0  6  4 14 18 19 22 29
   7234267.11500  29464017.71900                   3859237.72540  29464024.07040
  13557303.41000  26271939.20300                  10602011.58240  26271945.01640
  -4887934.78600  25949256.50800                  -3758354.24340  25949261.18340
  -3737424.85100  27649920.93000                  -2834210.87440  27649926.55540
   3077494.91000  26157023.79700                   2471500.69940  26157028.48440
   9012793.86800  25536063.18000                   7062238.58640  25536067.03540
 96  9  5  3 47 30.0160000  0  6  4 14 18 19 22 29
   7316614.02200  29479687.22600                   3923404.12540  29479691.55140
  13689157.61400  26297030.26600                  10704755.10440  26297036.04340
  -4895679.46200  25947782.55500                  -3764389.02740  25947787.35940
  -3758813.20600  27645851.14100                  -2850877.08440  27645856.81240
   3173626.67400  26175316.96900                   2546408.57240  26175321.79740
   9080137.68000  25548878.25800                   7114714.28540  25548882.14840
 96  9  5  3 48  0.0160000  0  6  4 14 18 19 22 29
   7399340.35700  29495429.55500                   3987866.17640  29495434.04340
  13821401.38800  26322195.43000                  10807802.19140  26322201.30140
  -4903218.93300  25946348.00800                  -3770263.91940  25946352.42640
  -3780035.74900  27641812.64100                  -2867414.08040  27641818.44140
   3270278.01700  26193709.31200                   2621721.31740  26193713.80140
   9147720.17800  25561738.63300                   7167375.97340  25561742.53540
 96  9  5  3 48 30.0160000  0  6  4 14 18 19 22 29
   7482440.68100  29511242.54700                   4052619.64740  29511248.96940
  13954048.68600  26347437.32800                  10911163.70440  26347442.89440
  -4910536.21500  25944955.69500                  -3775965.67240  25944960.44140
  -3801085.09300  27637806.95300                  -2883816.12540  27637812.88340
   3367449.78600  26212200.28900                   2697439.58640  26212205.17640
   9215549.97800  25574646.33600                   7220230.36040  25574650.23840
 96  9  5  3 49  0.0160000  0  6  4 14 18 19 22 29
   7565926.70600  29527130.25800                   4117673.62440  29527134.65240
  14087104.36100  26372756.85100                  11014843.43840  26372762.89840
  -4917632.10600  25943605.26600                  -3781494.91540  25943609.87140
  -3821964.49000  27633833.53900                  -2900085.74240  27633839.43340
   3465152.48200  26230792.35900                   2773571.56540  26230797.07040
   9283644.77100  25587604.38300                   7273291.24040  25587608.32040
 96  9  5  3 49 30.0160000  0  6  4 14 18 19 22 29
   7649803.03400  29543091.63300                   4183031.82240  29543098.55140
  14220554.34700  26398151.57800                  11118830.42940  26398157.25040
  -4924532.60200  25942291.89100                  -3786871.90740  25942296.57840
  -3842680.23700  27629891.71100                  -2916227.84340  27629897.38340
   3563382.53800  26249484.73400                   2850114.47940  26249489.56240
   9352023.13800  25600616.23400                   7326573.08140  25600620.17240
 96  9  5  3 50  0.0160000  0  6  4 14 18 19 22 29
   7734069.90700  29559126.94500                   4248694.25740  29559132.84040
  14354394.78600  26423620.60100                  11223121.67140  26423626.35540
  -4931254.06600  25941012.94500                  -3792109.39340  25941017.78540
  -3863217.18800  27625983.75000                  -2932230.64040  27625989.24640
   3662118.85800  26268273.62500                   2927051.87340  26268278.54740
   9420714.31500  25613687.69500                   7380098.68140  25613691.73840
 96  9  5  3 50 30.0160000  0  6  4 14 18 19 22 29
   7818738.61300  29575238.49200                   4314669.83340  29575243.78940
  14488628.79500  26449164.46900                  11327719.58240  26449170.22340
  -4937782.05000  25939770.59400                  -3797196.12140  25939775.36340
  -3883576.21600  27622109.33600                  -2948094.77340  27622115.52340
   3761363.63300  26287159.14800                   3004385.46940  26287163.90640
   9489737.48200  25626822.24200                   7433882.96740  25626826.28540
 96  9  5  3 51  0.0160000  0  6  4 14 18 19 22 29
   7903808.47200  29591426.80500                   4380957.98240  29591431.35140
  14623229.49100  26474778.23400                  11432603.22840  26474784.05840
  -4944126.64400  25938563.43000                  -3802139.94640  25938568.10540
  -3903752.09500  27618269.93000                  -2963816.18440  27618275.64840
   3861115.09800  26306141.55500                   3082113.88840  26306146.23040
   9559096.80600  25640021.18000                   7487929.19440  25640025.19940
 96  9  5  3 51 30.0160000  0  6  4 14 18 19 22 29
   7989263.93300  29607688.73400                   4447546.62640  29607695.15640
  14758186.48600  26500459.89800                  11537764.51440  26500465.60540
  -4950271.99400  25937394.02300                  -3806928.51940  25937398.68740
  -3923734.08700  27614467.54700                  -2979386.52840  27614473.13740
   3961362.37600  26325217.96900                   3160228.65140  26325222.76240
   9628781.82200  25653281.33600                   7542229.20540  25653285.41440
 96  9  5  3 52  0.0160000  0  6  4 14 18 19 22 29
   8075094.21200  29624022.08600                   4514427.32640  29624028.26240
  14893507.21000  26526210.52300                  11643209.21940  26526216.38340
  -4956188.10800  25936268.16400                  -3811538.47040  25936272.82840
  -3943507.69100  27610704.49200                  -2994794.49340  27610709.84840
   4062121.06300  26344391.76600                   3238741.92640  26344396.48840
   9698775.09100  25666601.00800                   7596769.41240  25666604.86340
 96  9  5  3 52 30.0160000  0  6  4 14 18 19 22 29
   8161277.16600  29640422.33600                   4581582.85440  29640428.93340
  15029164.66100  26552025.10100                  11748916.30840  26552030.84440
  -4961874.19600  25935186.00000                  -3815969.17940  25935190.62940
  -3963082.03700  27606979.59400                  -3010047.18940  27606985.47640
   4163396.98200  26363663.88300                   3317658.22540  26363668.79340
   9769037.67800  25679971.46100                   7651519.48540  25679975.44540
 96  9  5  3 53  0.0160000  0  6  4 14 18 19 22 29
   8247825.46500  29656891.32800                   4649023.06040  29656896.76640
  15165179.68600  26577907.89100                  11854902.04140  26577913.62140
  -4967316.13300  25934150.75800                  -3820209.63840  25934155.48040
  -3982415.31700  27603300.46900                  -3025112.03640  27603306.41040
   4265216.48000  26383039.57800                   3396998.09840  26383044.41840
   9839579.82700  25693395.10100                   7706487.39440  25693399.19140
 96  9  5  3 53 30.0160000  0  6  4 14 18 19 22 29
   8334731.59100  29673428.52300                   4716742.07340  29673435.01640
  15301571.76600  26603862.60100                  11961181.57540  26603868.40240
  -4972515.23400  25933161.18700                  -3824260.87440  25933165.79340
  -4001505.33300  27599668.21100                  -3039987.31040  27599673.87140
   4367567.02500  26402516.17200                   3476751.77240  26402520.88340
   9910388.91700  25706869.70300                   7761663.30940  25706873.66440
 96  9  5  3 54  0.0160000  0  6  4 14 18 19 22 29
   8422009.25500  29690037.10900                   4784750.59940  29690043.33240
  15438349.15100  26629890.35900                  12067761.34240  26629896.09040
  -4977465.68500  25932219.18000                  -3828118.36340  25932223.87940
  -4020351.38500  27596081.74200                  -3054672.48740  27596087.48440
   4470458.22700  26422095.99200                   3556926.73340  26422100.85540
   9981492.81700  25720400.20300                   7817068.94640  25720404.19940
 96  9  5  3 54 30.0160000  0  6  4 14 18 19 22 29
   8509651.47600  29706714.96100                   4853043.20640  29706720.62140
  15575507.49800  26655990.81200                  12174637.97140  26655996.53140
  -4982184.00000  25931321.36700                  -3831794.96140  25931326.01940
  -4038988.45700  27592534.71100                  -3069194.83440  27592540.65240
   4573866.42800  26441773.56200                   3637504.55340  26441778.18040
  10052899.06600  25733988.50800                   7872710.17940  25733992.48040
 96  9  5  3 55  0.0160000  0  6  4 14 18 19 22 29
   8597664.80300  29723463.73400                   4921624.99840  29723469.17240
  15713071.50100  26682168.55500                  12281830.69740  26682174.20340
  -4986662.23200  25930468.93000                  -3835284.48540  25930473.34840
  -4057424.08300  27589026.58600                  -3083560.22340  27589032.34040
   4677780.23900  26461547.88300                   3718476.35540  26461552.64140
  10124622.16000  25747636.99200                   7928598.30540  25747640.93040
 96  9  5  3 55 30.0160000  0  6  4 14 18 19 22 29
   8686056.54600  29740284.18700                   4990501.65040  29740290.37540
  15851021.69400  26708419.38300                  12389324.34940  26708424.91440
  -4990900.52400  25929662.69500                  -3838587.04140  25929667.35940
  -4075696.72200  27585549.54700                  -3097798.59640  27585555.41840
   4782196.46400  26481417.45300                   3799839.64540  26481422.26940
  10196661.22100  25761345.58600                   7984732.64240  25761349.50040
 96  9  5  3 56  0.0160000  0  6  4 14 18 19 22 29
   8774820.60600  29757175.77300                   5059668.44240  29757182.23040
  15989315.14000  26734735.78900                  12497085.47040  26734741.46140
  -4994915.88200  25928898.39800                  -3841715.87940  25928903.03940
  -4093842.49400  27582096.43700                  -3111938.10840  27582102.16840
   4887117.82400  26501383.31200                   3881596.54840  26501388.05840
  10269000.10700  25775111.35100                   8041100.60640  25775115.20740
 96  9  5  3 56 30.0160000  0  6  4 14 18 19 22 29
   8863967.31300  29774139.69500                   5129133.37340  29774146.29340
  16127957.71900  26761118.21100                  12605118.63740  26761123.84840
  -4998703.21400  25928177.78100                  -3844667.03940  25928182.41040
  -4111843.51400  27578670.66400                  -3125964.83240  27578676.33640
   4992555.27200  26521447.64100                   3963755.60040  26521452.34040
  10341634.27500  25788933.01600                   8097698.66140  25788936.94140
 96  9  5  3 57  0.0160000  0  7  3  4 14 18 19 22 29
                  29798215.25000
   8953494.61200  29791175.33600                   5198894.89240  29791181.20740
  16266917.78700  26787561.96100                  12713399.19740  26787567.78540
  -5002269.23100  25927499.22600                  -3847445.73840  25927503.97340
  -4129684.53700  27575275.71900                  -3139866.87940  27575281.47340
   5098512.83900  26541610.57000                   4046319.94140  26541615.34040
  10414567.26200  25802811.75800                   8154529.55940  25802815.68340
 96  9  5  3 57 30.0160000  0  7  3  4 14 18 19 22 29
    -21395.37200  29793988.93000
   9043391.11500  29808282.36700                   5268944.03140  29808289.01240
  16406172.35000  26814060.71900                  12821909.23540  26814066.49640
  -5005620.86500  25926861.50000                  -3850057.39140  25926866.08240
  -4147371.25600  27571910.31200                  -3153648.70640  27571916.05540
   5204990.24500  26561872.77300                   4129289.35240  26561877.34440
  10487806.54000  25816748.56200                   8211599.13040  25816752.51240
 96  9  5  3 58  0.0160000  0  7  3  4 14 18 19 22 29
    -43461.14700  29789790.89800                      -571.86150  29789795.86740
   9133626.78300  29825453.21100                   5339257.49640  29825461.33640
  16545741.24300  26840620.10100                  12930664.20340  26840625.79740
  -5008754.53100  25926265.18000                  -3852499.19840  25926269.63340
  -4164885.08000  27568577.37500                  -3167295.80640  27568582.90640
   5311967.37100  26582229.69500                   4212648.15440  26582234.46540
  10561358.13000  25830745.00000                   8268912.05340  25830749.05540
 96  9  5  3 58 30.0160000  0  7  3  4 14 18 19 22 29
    -65446.54500  29785606.63300                    -17703.33140  29785611.85940
   9224184.62600  29842686.41400                   5409821.99940  29842691.27740
  16685645.22100  26867243.18000                  13039680.28140  26867248.64140
  -5011655.22300  25925713.39100                  -3854759.46740  25925717.79740
  -4182198.48900  27565282.47600                  -3180786.72540  27565288.01940
   5419428.31500  26602678.92200                   4296383.95840  26602683.37540
  10635238.44900  25844804.04700                   8326481.12840  25844808.01940
 96  9  5  3 59  0.0160000  0  7  3  4 14 18 19 22 29
    -87346.34900  29781439.48400                    -34768.13740  29781444.17240
   9315046.21100  29859977.10900                   5480623.19340  29859979.43040
  16825883.00500  26893929.35900                  13148956.46740  26893935.28940
  -5014318.63400  25925206.27300                  -3856834.83940  25925210.93740
  -4199319.22400  27562025.02300                  -3194127.53340  27562031.01240
   5527358.55900  26623217.11700                   4380485.45340  26623221.73440
  10709436.60300  25858923.50000                   8384297.87440  25858927.57840
 96  9  5  3 59 30.0160000  0  6  3 14 18 19 22 29
   -109156.76200  29777288.83600                    -51763.18340  29777293.80540
  16966473.02200  26920682.82800                  13258507.12140  26920688.66440
  -5016739.88700  25924745.63300                  -3858721.51840  25924750.19140
  -4216251.54800  27558802.75800                  -3207321.51040  27558808.23040
   5635748.91900  26643843.38300                   4464945.47340  26643848.49240
  10783937.81800  25873100.35900                   8442350.76840  25873104.33240
 96  9  5  4  0  0.0170000  0  6  3 14 18 19 22 29
   -130853.10200  29773160.34900                    -68669.41840  29773164.53240
  17107436.97200  26947507.61400                  13368349.15340  26947513.20440
  -5018904.50000  25924333.42700                  -3860408.21640  25924338.09140
  -4232958.16300  27555623.16900                  -3220339.61440  27555628.57140
   5744630.31300  26664562.34100                   4549788.13040  26664567.28640
  10858753.57000  25887337.55900                   8500648.75640  25887341.64940
 96  9  5  4  0 30.0170000  0  6  3 14 18 19 22 29
   -152423.31900  29769056.14500                    -85477.45140  29769061.47740
  17248742.47400  26974396.96600                  13478457.32740  26974402.76640
  -5020815.74300  25923969.70000                  -3861897.48440  25923974.31740
  -4249437.87200  27552486.93400                  -3233180.90840  27552492.65340
   5854003.29000  26685375.50500                   4635013.82740  26685380.43840
  10933865.37900  25901630.75500                   8559177.43840  25901634.78640
 96  9  5  4  1  0.0170000  0  6  3 14 18 19 22 29
   -173861.31700  29764976.45800                   -102182.35440  29764981.68440
  17390401.05600  27001353.65300                  13588840.62740  27001359.20840
  -5022463.99300  25923656.30900                  -3863181.82540  25923660.93840
  -4265695.38000  27549393.53600                  -3245849.05840  27549399.33740
   5963889.33800  26706286.30900                   4720639.31640  26706290.99740
  11009279.72300  25915981.78600                   8617941.85940  25915985.72440
 96  9  5  4  1 30.0170000  0  6  3 14 18 19 22 29
   -195179.90000  29760919.50500                   -118794.19740  29760924.45040
  17532407.67800  27028376.73100                  13699495.13440  27028382.27440
  -5023849.15500  25923392.71600                  -3864261.15640  25923397.36840
  -4281733.86600  27546341.48900                  -3258346.54840  27546347.67740
   6074286.96900  26727294.02800                   4806663.45040  26727298.52840
  11085001.83800  25930391.17700                   8676946.09540  25930394.93840
 96  9  5  4  2  0.0170000  0  6  3 14 18 19 22 29
   -216385.31900  29756884.66900                   -135317.87140  29756890.37640
  17674743.83000  27055462.20000                  13810406.40540  27055467.98940
  -5024972.35300  25923178.84900                  -3865136.36440  25923183.33740
  -4297562.87500  27543329.34900                  -3270680.82240  27543335.00940
   6185184.10400  26748397.24700                   4893076.80140  26748401.89940
  11161023.29000  25944857.57500                   8736183.58840  25944861.27840
 96  9  5  4  2 30.0170000  0  6  3 14 18 19 22 29
   -237462.19200  29752873.32500                   -151741.45540  29752876.65340
  17817421.71500  27082612.87200                  13921583.97240  27082618.41540
  -5025808.02900  25923019.75500                  -3865787.52940  25923024.12640
  -4313198.35700  27540354.09900                  -3282864.26840  27540359.67740
   6296569.17400  26769593.09900                   4979870.36040  26769597.86840
  11237356.05500  25959383.23100                   8795663.66640  25959387.15740
 96  9  5  4  3  0.0170000  0  6  3 14 18 19 22 29
   -258408.81000  29748886.76300                   -168063.43940  29748892.31740
  17960439.94900  27109828.53600                  14033026.74540  27109834.04440
  -5026357.46700  25922915.26300                  -3866215.64740  25922919.86840
  -4328644.32400  27537414.56700                  -3294900.04540  27537420.30940
   6408432.65000  26790879.96600                   5067036.70940  26790884.70040
  11314012.47200  25973970.55200                   8855395.93540  25973974.36040
 96  9  5  4  3 30.0170000  0  6  3 14 18 19 22 29
   -279238.14600  29744923.66900                   -184294.03040  29744931.94640
  18103764.77300  27137102.57500                  14144708.41540  27137108.20040
  -5026653.61300  25922858.78600                  -3866446.40240  25922863.15740
  -4343915.75600  27534508.87200                  -3306799.83540  27534514.16940
   6520751.34500  26812253.15300                   5154557.78040  26812257.66540
  11390978.27600  25988616.68400                   8915369.28440  25988620.39940
 96  9  5  4  4  0.0170000  0  6  3 14 18 19 22 29
   -299954.20200  29740980.93400                   -200436.44440  29740987.61440
  18247377.38800  27164430.81700                  14256614.33940  27164436.36040
  -5026715.76400  25922846.97400                  -3866494.81740  25922851.54440
  -4359020.42500  27531634.11400                  -3318569.68240  27531639.52840
   6633517.59400  26833712.21600                   5242427.58740  26833717.36040
  11468246.43200  26003320.19200                   8975578.23040  26003323.91940
 96  9  5  4  4 30.0170000  0  6  3 14 18 19 22 29
   -320539.05700  29737064.62200                   -216476.45740  29737070.79840
  18391293.90900  27191817.16900                  14368757.06740  27191822.94640
  -5026534.88000  25922881.46600                  -3866353.85340  25922886.04840
  -4373943.50000  27528794.41100                  -3330198.01040  27528800.57540
   6746739.21100  26855257.88800                   5330652.23340  26855262.54040
  11545828.26800  26018083.42700                   9036031.61340  26018087.22440
 96  9  5  4  5  0.0170000  0  6  3 14 18 19 22 29
   -341006.02700  29733169.96600                   -232424.73340  29733175.97740
  18535503.11400  27219259.30900                  14481127.86940  27219264.98140
  -5026136.19400  25922957.27000                  -3866043.17740  25922961.80640
  -4388670.16500  27525991.98900                  -3341673.28740  27525997.45040
   6860415.10800  26876889.66100                   5419230.85240  26876894.37240
  11623719.55500  26032905.66100                   9096726.11440  26032909.55240
 96  9  5  4  5 30.0170000  0  6  3 14 18 19 22 29
   -361335.74300  29729300.45000                   -248266.08840  29729306.29840
  18680022.95800  27246760.82500                  14593740.73140  27246766.34540
  -5025490.93700  25923080.33300                  -3865540.36840  25923084.79840
  -4403183.18600  27523230.27000                  -3352982.10240  27523236.03640
   6974565.63800  26898611.55200                   5508179.32440  26898616.39140
  11701926.88500  26047788.24700                   9157666.89440  26047792.12640
 96  9  5  4  6  0.0170000  0  6  3 14 18 19 22 29
   -381502.35800  29725463.56700                   -263980.27140  29725469.73140
  18824867.49000  27274323.70800                  14706606.59840  27274328.84140
  -5024562.42200  25923256.87200                  -3864816.84440  25923261.40740
  -4417468.14600  27520511.73900                  -3364113.20840  27520517.50540
   7089196.56700  26920424.96600                   5597502.12640  26920429.89940
  11780460.38800  26062732.62200                   9218861.82640  26062736.54840
 96  9  5  4  6 30.0170000  0  6  3 14 18 19 22 29
   -401501.19100  29721657.56700                   -279563.74440  29721662.39540
  18970028.55600  27301946.86400                  14819719.10740  27301952.44240
  -5023352.68700  25923486.95000                  -3863874.17740  25923491.57940
  -4431528.03200  27517836.52800                  -3375068.92840  27517842.03640
   7204290.67300  26942326.94200                   5687185.85240  26942331.61840
  11859321.97300  26077739.34100                   9280312.40740  26077743.33740
 96  9  5  4  7  0.0170000  0  6  3 14 18 19 22 29
   -421337.77400  29717882.63800                   -295020.75540  29717887.50140
  19115482.95600  27329625.84100                  14933060.19440  27329631.52440
  -5021870.06400  25923768.88000                  -3862718.87640  25923773.40340
  -4445369.95000  27515202.17700                  -3385854.80340  27515207.72040
   7319845.33500  26964315.87200                   5777228.45340  26964321.14540
  11938511.39900  26092808.65300                   9342018.45240  26092812.60240
 96  9  5  4  7 30.0170000  0  6  3 14 18 19 22 29
   -440998.01200  29714140.66100                   -310340.46040  29714147.29440
  19261230.15100  27357361.09900                  15046629.42940  27357366.68840
  -5020085.63100  25924108.67700                  -3861328.40840  25924113.22440
  -4459008.75700  27512607.15300                  -3396482.40240  27512612.61440
   7435872.28900  26986395.34100                   5867639.06640  26986400.20440
  12018029.66900  26107940.54400                   9403980.73340  26107944.44640
 96  9  5  4  8  0.0170000  0  6  3 14 18 19 22 29
   -460485.00000  29710432.80900                   -325524.97540  29710435.35240
  19407277.70300  27385152.71600                  15160432.71140  27385158.39940
  -5018008.64200  25924504.05900                  -3859709.96640  25924508.47740
  -4472451.83300  27510048.68400                  -3406957.49940  27510054.25140
   7552364.87000  27008562.97400                   5958412.51040  27008567.75540
  12097883.10500  26123136.09100                   9466204.18840  26123140.08740
 96  9  5  4  8 30.0170000  0  6  3 14 18 19 22 29
   -479836.15300  29706751.02800                   -340603.77840  29706758.49740
  19553596.78000  27412996.22400                  15274447.56740  27413002.11840
  -5015682.67900  25924946.61400                  -3857897.51740  25924951.07940
  -4485733.43000  27507521.48900                  -3417306.76940  27507526.98540
   7669298.33000  27030814.73900                   6049529.48940  27030819.89540
  12178032.22700  26138387.77000                   9528658.05640  26138391.80240
 96  9  5  4  9  0.0170000  0  6  3 14 18 19 22 29
   -499063.52200  29703092.66100                   -355586.13040  29703100.63440
  19700175.66700  27440889.44200                  15388664.87940  27440895.06740
  -5013104.20500  25925436.98900                  -3855888.30540  25925441.53640
  -4498874.27900  27505021.00500                  -3427546.36140  27505026.59540
   7786671.97300  27053150.40300                   6140989.47340  27053155.20840
  12258466.81900  26153694.02800                   9591334.35340  26153698.09540
 96  9  5  4  9 30.0170000  0  6  3 14 18 19 22 29
   -518148.40700  29699459.99700                   -370457.36040  29699464.93140
  19847033.72600  27468835.33300                  15503099.73440  27468841.13440
  -5010248.88500  25925980.54400                  -3853663.36640  25925984.99740
  -4511846.48900  27502552.24700                  -3437654.54840  27502557.96640
   7904491.70700  27075570.57500                   6232797.06040  27075575.18140
  12339207.29900  26169058.72400                   9654249.00340  26169062.75540
 96  9  5  4 10  0.0170000  0  6  3 14 18 19 22 29
   -537076.99500  29695858.19200                   -385207.01540  29695863.99340
  19994171.76500  27496834.81700                  15617752.74740  27496840.79440
  -5007130.84300  25926574.02000                  -3851233.72340  25926578.36840
  -4524620.43800  27500121.32500                  -3447608.23940  27500127.13840
   8022749.54000  27098074.51300                   6324946.01640  27098079.31740
  12420268.34200  26184483.92700                   9717413.44640  26184488.00540
 96  9  5  4 10 30.0170000  0  6  3 14 18 19 22 29
   -555846.49000  29692286.16900                   -399832.49740  29692292.34540
  20141553.93200  27524880.85600                  15732595.99140  27524886.52840
  -5003754.34600  25927216.48900                  -3848602.67840  25927220.80240
  -4537193.71100  27497728.86400                  -3457405.57240  27497734.80640
   8141439.65400  27120660.34100                   6417431.82040  27120665.02840
  12501651.14100  26199970.33300                   9780828.60640  26199974.42340
 96  9  5  4 11  0.0170000  0  6  3 14 18 19 22 29
   -574443.36200  29688747.90300                   -414323.47840  29688753.29440
  20289197.49100  27552976.41100                  15847642.92340  27552982.13040
  -5000093.70700  25927912.86400                  -3845750.22040  25927917.28240
  -4549547.09600  27495377.67700                  -3467031.54940  27495382.78640
   8260564.87300  27143328.80900                   6510256.66040  27143333.81340
  12583385.12800  26215523.76300                   9844517.42640  26215527.82940
 96  9  5  4 11 30.0170000  0  6  3 14 18 19 22 29
   -592857.19900  29685242.95800                   -428671.88940  29685247.48140
  20437112.84300  27581123.63000                  15962901.63240  27581129.14940
  -4996156.82200  25928662.20800                  -3842682.51040  25928666.63840
  -4561669.89700  27493070.80900                  -3476477.84440  27493076.55240
   8380125.60700  27166080.52800                   6603420.86540  27166085.06340
  12665467.20200  26231143.59100                   9908477.47340  26231147.65740
 96  9  5  4 12  0.0170000  0  6  3 14 18 19 22 29
   -611080.92000  29681775.80900                   -442872.19940  29681780.35640
  20585306.70400  27609323.88000                  16078377.35740  27609329.77440
  -4991940.64400  25929464.47400                  -3839397.16940  25929468.93840
  -4573592.56700  27490801.98900                  -3485768.20440  27490807.36840
   8500117.50100  27188914.38800                   6696921.04040  27188919.21640
  12747880.16100  26246826.48100                   9972695.35840  26246830.55940
 96  9  5  4 12 30.0170000  0  6  3 14 18 19 22 29
   -629123.69300  29678342.32500                   -456931.42140  29678348.27840
  20733784.18100  27637578.29400                  16194074.08640  27637584.09540
  -4987429.65600  25930322.68400                  -3835882.10640  25930327.07940
  -4585335.00300  27488567.48900                  -3494918.12840  27488573.16140
   8620535.53000  27211829.21600                   6790753.26240  27211833.92740
  12830603.92500  26262568.27800                  10037155.42940  26262572.29840
 96  9  5  4 13  0.0170000  0  6  3 14 18 19 22 29
   -646977.62200  29674945.19200                   -470843.57840  29674952.61440
  20882576.87100  27665892.92700                  16310016.43740  27665898.48140
  -4982607.19700  25931240.40300                  -3832124.33840  25931244.84540
  -4596889.57700  27486368.81700                  -3503921.65240  27486374.36040
   8741378.12700  27234824.94200                   6884916.32740  27234829.61840
  12913633.75400  26278368.29400                  10101853.98940  26278372.18440
 96  9  5  4 13 30.0170000  0  6  3 14 18 19 22 29
   -664634.74100  29671583.61400                   -484602.35140  29671589.04040
  21031662.89400  27694262.93400                  16426187.35840  27694268.43140
  -4977485.79000  25932215.05900                  -3828133.62240  25932219.60640
  -4608267.94000  27484203.66900                  -3512787.86840  27484209.37640
   8862637.52300  27257899.59100                   6979404.15840  27257904.64140
  12996944.26000  26294221.83300                  10166771.26540  26294225.78240
 96  9  5  4 14  0.0170000  0  6  3 14 18 19 22 29
   -682105.99600  29668260.01300                   -498216.23940  29668266.04840
  21181033.24500  27722687.01300                  16542579.83040  27722692.62640
  -4972054.59800  25933248.74700                  -3823901.51540  25933253.20040
  -4619462.42600  27482073.40300                  -3521510.80440  27482079.20440
   8984311.32400  27281053.39500                   7074214.91040  27281057.98940
  13080536.97000  26310128.93400                  10231908.43740  26310133.02440
 96  9  5  4 14 30.0170000  0  6  3 14 18 19 22 29
   -699395.04800  29664970.13000                   -511688.19840  29664975.56740
  21330678.89000  27751163.89500                  16659186.82040  27751169.64940
  -4966314.80900  25934340.88800                  -3819428.94940  25934345.27040
  -4630445.17700  27479983.32500                  -3530068.76340  27479988.71640
   9106412.94400  27304288.50500                   7169359.02740  27304293.39140
  13164439.07100  26326094.98100                  10297286.69540  26326099.04840
 96  9  5  4 15  0.0170000  0  6  3 14 18 19 22 29
   -716489.52200  29661716.69200                   -525008.49140  29661721.69640
  21480589.87700  27779690.83300                  16776000.57740  27779696.42340
  -4960264.58100  25935492.23900                  -3814714.47740  25935496.79840
  -4641209.97800  27477934.70800                  -3538456.87840  27477940.21640
   9228947.83600  27327606.22400                   7264840.75240  27327611.16940
  13248676.38100  26342124.80200                  10362926.15640  26342128.73940
 96  9  5  4 15 30.0170000  0  6  3 14 18 19 22 29
   -733406.80700  29658497.03600                   -538190.80240  29658502.15740
  21630732.71600  27808262.12200                  16892994.99140  27808267.84140
  -4953920.49400  25936699.41100                  -3809771.02140  25936703.78240
  -4651774.24300  27475924.37200                  -3546688.73540  27475929.50540
   9351907.08100  27351004.13000                   7360653.15140  27351008.64140
  13333252.35000  26358219.30200                  10428829.50840  26358223.21640
 96  9  5  4 16  0.0180000  0  6  3 14 18 19 22 29
   -750137.05900  29655313.90800                   -551227.37540  29655320.88540
  21781124.38800  27836880.57200                  17010183.30240  27836886.25640
  -4947263.75700  25937966.31400                  -3804583.94740  25937970.66240
  -4662117.13700  27473956.22800                  -3554748.10540  27473961.84240
   9475298.34100  27374485.26000                   7456802.17840  27374490.12340
  13418212.49200  26374386.29900                  10495032.21040  26374390.27140
 96  9  5  4 16 30.0180000  0  6  3 14 18 19 22 29
   -766650.96100  29652171.40800                   -564095.29740  29652174.22140
  21931759.83700  27865545.57200                  17127561.57940  27865551.36140
  -4940301.28000  25939290.93200                  -3799158.63240  25939295.39640
  -4672242.85600  27472029.24400                  -3562638.25140  27472034.75240
   9599108.04300  27398044.98600                   7553277.27140  27398049.72140
  13503552.32500  26390626.00200                  10561530.77940  26390629.98640
 96  9  5  4 17  0.0180000  0  6  3 14 18 19 22 29
   -782947.14200  29649070.40000                   -576793.57840  29649077.40040
  22082633.35500  27894255.69700                  17245125.36040  27894261.13540
  -4933043.47000  25940672.00200                  -3793503.19140  25940676.51440
  -4682164.36400  27470141.51700                  -3570369.26840  27470146.81440
   9723322.53900  27421682.68200                   7650067.78240  27421687.59240
  13589252.07600  26406934.26000                  10628309.80640  26406938.19740
 96  9  5  4 17 30.0180000  0  6  3 14 18 19 22 29
   -799022.14700  29646011.01700                   -589319.49440  29646015.50640
  22233753.12000  27923012.73600                  17362881.02340  27923018.49040
  -4925489.13800  25942109.51700                  -3787616.69540  25942114.11140
  -4691872.21100  27468294.02500                  -3577933.79940  27468299.66240
   9847942.86100  27445397.13500                   7747174.52340  27445401.90440
  13675300.94000  26423308.71300                  10695360.85740  26423312.63940
 96  9  5  4 18  0.0180000  0  6  3 14 18 19 22 29
   -814868.86500  29642995.76700                   -601667.58040  29643001.47440
  22385123.62000  27951818.04100                  17480832.06740  27951823.78340
  -4917640.10200  25943603.22800                  -3781500.56140  25943607.62340
  -4701372.18800  27466485.97100                  -3585336.36840  27466491.68940
   9972966.67300  27469188.29900                   7844595.66740  27469193.16240
  13761671.18300  26439744.58800                  10762662.34540  26439748.42040
 96  9  5  4 18 30.0180000  0  6  3 14 18 19 22 29
   -830489.48800  29640023.59600                   -613839.48840  29640028.88140
  22536739.67800  27980669.03300                  17598974.43740  27980674.89240
  -4909492.90300  25945153.80700                  -3775152.09040  25945158.11940
  -4710685.19600  27464713.94700                  -3592593.23840  27464719.30340
  10098395.98400  27493056.75200                   7942332.78540  27493061.93240
  13848338.38700  26456236.72800                  10830195.22340  26456240.51440
 96  9  5  4 19  0.0180000  0  6  3 14 18 19 22 29
   -845896.80300  29637091.14200                   -625845.18040  29637097.59940
  22688585.99300  28009564.85300                  17717296.25140  28009570.31440
  -4901036.75700  25946762.76000                  -3768562.88040  25946767.03740
  -4719813.27300  27462976.78300                  -3599706.00840  27462982.61940
  10224224.46000  27517001.14200                   8040380.94340  27517006.42840
  13935304.14700  26472785.78300                  10897960.75240  26472789.59240
 96  9  5  4 19 30.0180000  0  6  3 14 18 19 22 29
   -861073.49500  29634202.89200                   -637671.15840  29634207.58040
  22840674.61500  28038505.81400                  17835806.85640  28038511.24040
  -4892251.41000  25948434.78300                  -3761717.15040  25948439.17840
  -4728743.82700  27461277.67400                  -3606664.84840  27461283.19340
  10350457.27000  27541022.25200                   8138744.16740  27541027.40840
  14022573.76600  26489392.39200                  10965963.04840  26489396.35340
 96  9  5  4 20  0.0180000  0  6  3 14 18 19 22 29
   -876032.57300  29631355.93900                   -649327.51940  29631363.17440
  22992980.42100  28067489.23600                  17954486.70940  28067494.67440
  -4883156.75600  25950165.32200                  -3754630.40540  25950169.64640
  -4737494.13000  27459612.51000                  -3613483.24740  27459617.86540
  10477063.48300  27565114.47100                   8237398.35640  27565118.95940
  14110131.26800  26506054.36100                  11034189.66740  26506058.32240
 96  9  5  4 20 30.0180000  0  6  3 14 18 19 22 29
   -890739.76500  29628557.81400                   -660787.64240  29628562.97140
  23145524.46700  28096517.20500                  18073352.20540  28096523.13540
  -4873726.47600  25951959.78300                  -3747282.13140  25951964.17840
  -4746021.76600  27457989.81400                  -3620128.14240  27457994.99440
  10604071.70900  27589283.57200                   8336365.79740  27589288.37740
  14198032.15800  26522781.30700                  11102683.86440  26522785.34940
 96  9  5  4 21  0.0180000  0  7  3 14 18 19 22 27 29
   -905218.54600  29625802.43900                   -672069.80540  29625808.09940
  23298283.58000  28125586.17400                  18192385.29140  28125591.81040
  -4863994.21000  25953811.74400                  -3739698.53840  25953816.26740
  -4754331.70800  27456408.11100                  -3626603.39840  27456413.91240
  10731467.92200  27613526.40000                   8435635.57840  27613531.31040
                  30514975.90800
  14286264.61500  26539571.29100                  11171436.42640  26539575.07640
 96  9  5  4 21 30.0180000  0  7  3 14 18 19 22 27 29
   -919441.56100  29623095.91600                   -683152.62940  29623101.35340
  23451282.53300  28154701.33000                  18311605.25740  28154706.69740
  -4853932.68300  25955726.32200                  -3731858.38540  25955730.75240
  -4762399.92300  27454873.12700                  -3632890.29140  27454878.38940
  10859276.20200  27637847.26000                   8535226.44640  27637852.11140
    -31466.20700  30508781.74400
  14374863.69000  26556431.05700                  11240474.66340  26556434.83040
 96  9  5  4 22  0.0180000  0  7  3 14 18 19 22 27 29
   -933437.04000  29620432.84600                   -694058.15140  29620436.38540
  23604483.17500  28183854.19700                  18430982.39340  28183859.86940
  -4843569.25500  25957698.55700                  -3723782.97840  25957702.86940
  -4770259.11300  27453377.30700                  -3639014.30740  27453382.63940
  10987473.75100  27662242.29100                   8635120.63440  27662247.27140
    -63980.15500  30502594.37700
  14463823.85200  26573359.58800                  11309794.26840  26573363.71340
 96  9  5  4 22 30.0180000  0  7  3 14 18 19 22 27 29
   -947190.95000  29617815.26000                   -704775.41640  29617820.83840
  23757895.93300  28213047.99400                  18550524.80640  28213053.65440
  -4832877.92000  25959732.98600                  -3715452.06340  25959737.27540
  -4777901.61000  27451922.97100                  -3644969.46540  27451928.30340
  11116080.45400  27686715.86100                   8735333.65340  27686720.59640
    -96435.88700  30496417.92400                    -10954.30550  30496424.61540
  14553163.65400  26590360.36100                  11379409.69340  26590364.51040
 96  9  5  4 23  0.0180000  0  7  3 14 18 19 22 27 29
   -960698.64000  29615244.38500                   -715300.85440  29615250.17440
  23911518.69700  28242281.47800                  18670230.85840  28242286.30740
  -4821848.24700  25961831.81400                  -3706857.50140  25961836.24440
  -4785341.74700  27450506.97800                  -3650766.94540  27450512.59240
  11245073.03800  27711262.14200                   8835847.35240  27711266.79540
   -128831.53200  30490252.84600                    -36197.55640  30490257.93240
  14642850.77300  26607427.27500                  11449295.75740  26607431.09640
 96  9  5  4 23 30.0180000  0  7  3 14 18 19 22 27 29
   -973941.19700  29612724.89200                   -725619.67740  29612730.52940
  24065347.32200  28271553.43200                  18790097.31940  28271559.40840
  -4810464.52800  25963998.03300                  -3697987.05840  25964002.42840
  -4792576.64600  27449130.39200                  -3656404.49340  27449135.85340
  11374438.75900  27735879.48600                   8936651.81740  27735884.25640
   -161157.31700  30484100.83000                    -61386.45340  30484105.68240
  14732874.51400  26624558.33000                  11519444.12240  26624562.34940
 96  9  5  4 24  0.0180000  0  7  3 14 18 19 22 27 29
   -986920.88600  29610255.15800                   -735733.65940  29610259.27140
  24219378.37400  28300864.79100                  18910121.51740  28300870.63940
  -4798737.38500  25966229.58000                  -3688849.01140  25966233.95140
  -4799618.67200  27447790.09600                  -3661891.75540  27447795.75640
  11504170.40400  27760566.77500                   9037741.41240  27760571.94340
   -193417.78000  30477962.17400                    -86524.36040  30477968.87740
  14823209.04400  26641748.28300                  11589834.66940  26641752.24440
 96  9  5  4 24 30.0180000  0  7  3 14 18 19 22 27 29
   -999623.25000  29607838.34600                   -745631.57640  29607843.98240
  24373634.82800  28330219.04900                  19030321.36640  28330225.00240
  -4786649.41300  25968530.03300                  -3679429.80440  25968534.41640
  -4806456.51800  27446489.12700                  -3667219.91140  27446494.38940
  11634265.61200  27785322.90800                   9139114.30040  27785327.85340
   -225595.57300  30471839.90000                   -111597.87140  30471845.65440
  14913846.27800  26658996.22800                  11660461.08140  26659000.34240
 96  9  5  4 25  0.0180000  0  7  3 14 18 19 22 27 29
  -1012065.09800  29605470.29900                   -755326.47840  29605475.43240
  24528100.29200  28359612.53300                  19150684.07540  28359618.21740
  -4774226.68100  25970893.83800                  -3669749.74540  25970898.13940
  -4813105.91100  27445223.90800                  -3672401.22940  27445229.49840
  11764705.15000  27810144.89200                   9240755.50140  27810149.29940
   -257696.65700  30465731.17400                   -136611.59740  30465737.85340
  15004777.17200  26676299.65800                  11731316.32740  26676303.79540
 96  9  5  4 25 30.0180000  0  7  3 14 18 19 22 27 29
  -1024271.80600  29603146.68200                   -764838.15840  29603151.14640
  24682764.47600  28389044.25200                  19271201.61140  28389049.93540
  -4761489.29300  25973317.70500                  -3659824.49440  25973322.13540
  -4819573.52000  27443993.04100                  -3677440.89440  27443998.20940
  11895493.89400  27835033.38500                   9342668.81340  27835038.23640
   -289734.90100  30459633.58800                   -161576.37140  30459641.39640
  15096031.73600  26693664.81400                  11802423.77740  26693668.85740
 96  9  5  4 26  0.0180000  0  7  3 14 18 19 22 27 29
  -1036219.25300  29600873.73600                   -774147.82540  29600878.95140
  24837668.28100  28418521.21300                  19391905.89340  28418527.31840
  -4748414.15500  25975805.93200                  -3649636.06540  25975810.25640
  -4825838.78800  27442800.47800                  -3682322.88940  27442806.11540
  12026658.34400  27859992.82200                   9444874.87040  27859997.81440
   -321682.72400  30453555.15000                   -186470.74840  30453562.46740
  15187661.66500  26711101.44700                  11873823.71740  26711105.44340
 96  9  5  4 26 30.0180000  0  7  3 14 18 19 22 27 29
  -1047927.35400  29598646.17400                   -783271.00340  29598650.75640
  24992787.07100  28448039.89200                  19512777.68240  28448045.38940
  -4735023.60300  25978353.92400                  -3639201.85940  25978358.42440
  -4831912.03300  27441645.38500                  -3687055.26440  27441650.62340
  12158178.85400  27885020.05700                   9547358.39940  27885024.29940
   -353564.58600  30447487.51000                   -211313.63040  30447493.04140
  15279657.84100  26728607.83800                  11945509.03940  26728611.86940
 96  9  5  4 27  0.0180000  0  7  3 14 18 19 22 27 29
  -1059382.99500  29596466.29100                   -792197.43640  29596470.63940
  25148121.73700  28477598.50200                  19633817.69640  28477603.72840
  -4721314.60900  25980962.51700                  -3628519.51940  25980966.93540
  -4837781.41700  27440528.02500                  -3691628.78840  27440533.84940
  12290081.35000  27910120.73600                   9650139.57140  27910125.36540
   -385376.95900  30441433.52500                   -236102.50540  30441441.69740
  15372039.54900  26746187.34600                  12017494.78340  26746191.38940
 96  9  5  4 27 30.0180000  0  8  3 14 18 19 22 27 29 31
  -1070588.74100  29594333.07200                   -800929.14140  29594338.24040
  25303648.82700  28507194.54900                  19755007.65740  28507200.22140
  -4707284.78000  25983632.53300                  -3617587.17840  25983637.01040
  -4843458.81400  27439447.62700                  -3696052.70540  27439453.19340
  12422341.76800  27935288.68900                   9753199.64040  27935293.63540
   -417142.08000  30435389.30700                   -260854.47840  30435394.52140
  15464770.06700  26763833.49400                  12089752.33040  26763837.25640
    -31864.12810  30243623.84600
 96  9  5  4 28  0.0180000  0  8  3 14 18 19 22 27 29 31
  -1081505.22100  29592255.68900                   -809435.43740  29592260.85740
  25459370.78400  28536827.94700                  19876349.44040  28536833.32640
  -4692900.24300  25986369.83000                  -3606378.44140  25986374.11940
  -4848923.10900  27438407.54100                  -3700310.57340  27438413.23640
  12554965.68800  27960526.41600                   9856542.95840  27960531.37340
   -448842.89500  30429356.19700                   -285556.33540  30429361.38940
  15557827.60100  26781541.52500                  12162264.68840  26781545.58040
    -73454.76300  30235709.51700
 96  9  5  4 28 30.0180000  0  8  3 14 18 19 22 27 29 31
  -1092127.49500  29590234.23600                   -817712.54640  29590239.97840
  25615273.68000  28566495.53300                  19997832.21940  28566500.53740
  -4678141.78500  25989178.14200                  -3594878.33740  25989182.46740
  -4854160.96200  27437411.04900                  -3704391.99840  27437416.38140
  12687961.68800  27985834.54900                   9960176.21640  27985839.09640
   -480476.17200  30423337.25200                   -310205.54240  30423342.81840
  15651198.05900  26799309.25200                  12235020.89140  26799313.24840
   -115065.74400  30227790.61900                     -7566.58550  30227795.35340
 96  9  5  4 29  0.0180000  0  8  3 14 18 19 22 27 29 31
  -1102437.29500  29588272.03300                   -825746.11340  29588274.90440
  25771350.57100  28596195.77500                  20119450.58640  28596201.28340
  -4663003.16500  25992058.86900                  -3583082.00440  25992063.26440
  -4859180.18600  27436455.89200                  -3708303.05740  27436461.41240
  12821329.39000  28011213.20500                  10064099.10440  28011218.45540
   -512041.32400  30417330.03300                   -334801.77340  30417334.83840
  15744881.74200  26817137.01700                  12308021.14740  26817140.89640
   -156689.73400  30219868.58800                    -40000.87340  30219875.83440
 96  9  5  4 29 30.0180000  0  8  3 14 18 19 22 27 29 31
  -1112420.33000  29586373.26700                   -833525.03940  29586378.47140
  25927596.20700  28625928.48600                  20241200.44140  28625933.51440
  -4647485.33800  25995011.85300                  -3570990.18440  25995016.26040
  -4863975.17800  27435543.50200                  -3712039.38340  27435548.83440
  12955060.71200  28036661.91600                  10168305.32740  28036666.25240
   -543535.48000  30411336.93200                   -359342.59340  30411342.48640
  15838881.29200  26835024.43900                  12381267.55240  26835028.35340
   -198343.30800  30211943.06400                    -72458.21140  30211947.99840
 96  9  5  4 30  0.0180000  0  8  3 14 18 19 22 27 29 31
  -1122087.24100  29584532.70500                   -841057.68440  29584537.49840
  26084016.65000  28655693.68200                  20363086.49340  28655699.38940
  -4631607.53100  25998033.50200                  -3558617.85940  25998037.89640
  -4868560.99300  27434670.64200                  -3715612.70740  27434675.90440
  13089159.78900  28062179.56400                  10272798.11340  28062184.24040
   -574961.82800  30405356.72100                   -383830.57540  30405364.35340
  15933207.66700  26852974.29100                  12454768.61640  26852978.14640
   -240038.63700  30204009.01700                   -104947.96840  30204012.59240
 96  9  5  4 30 30.0180000  0  8  3 14 18 19 22 27 29 31
  -1131438.88100  29582754.15000                   -848344.62240  29582759.01440
  26240628.07700  28685496.05700                  20485121.38640  28685501.89240
  -4615373.28300  26001122.75200                  -3545967.79040  26001127.02940
  -4872935.67500  27433838.37700                  -3719021.52040  27433843.72140
  13223635.19300  28087769.54100                  10377584.14840  28087774.86140
   -606304.37600  30399392.39200                   -408253.32140  30399398.26440
  16027890.76200  26870991.61100                  12528547.64840  26870995.70140
   -281763.10900  30196069.52500                   -137460.61240  30196073.92040
